GFSGBSN_con_3kmhel_000.txt.gz
Helicity
40 35 39 40 35 25 28 21 28 41 24 19 21 34 37 30 17 16 20 29 44 36 40 71 88 114 185 226 173 154 105 67 4 51 89 80 88 130 147 184 103 51 96 53 55 90 95
31 35 41 41 28 33 30 33 26 28 31 26 20 25 35 40 28 22 20 30 27 22 38 61 76 99 169 160 115 87 105 117 123 102 50 90 107 106 173 117 139 147 63 102 84 73 74
25 34 34 40 43 35 33 28 33 34 22 33 21 22 29 38 31 26 24 25 15 9 20 48 66 94 157 128 145 130 128 111 101 136 143 31 71 165 196 174 185 96 121 89 44 73 96
7 13 22 40 42 39 38 35 33 36 27 34 32 23 29 28 41 31 49 51 35 31 19 47 58 78 184 72 58 116 190 95 34 45 86 103 102 117 166 174 196 165 135 91 46 91 74
24 16 17 21 40 44 48 46 39 31 30 30 36 37 29 27 44 52 61 68 65 69 56 51 95 144 154 125 124 64 86 69 70 70 78 58 88 121 154 162 202 148 162 102 87 131 73
85 33 27 27 29 46 52 52 49 38 28 37 35 47 44 41 50 69 87 115 131 118 110 124 122 173 137 66 79 36 58 51 64 92 127 97 146 140 126 185 211 231 190 167 114 109 107
174 82 38 38 39 50 50 52 51 46 37 42 43 55 64 50 64 83 126 114 143 165 209 245 144 191 282 64 101 76 31 80 79 108 152 118 188 168 130 114 102 173 154 112 116 103 102
127 222 34 48 41 43 48 55 58 53 47 62 49 81 73 58 57 84 107 145 130 171 141 141 82 158 83 160 127 80 75 129 114 133 108 143 128 50 80 74 74 89 116 125 94 58 29
240 187 137 106 50 42 35 42 56 55 48 63 65 85 81 73 83 116 108 90 115 141 140 252 193 189 132 174 134 120 110 103 132 119 125 136 65 50 61 77 109 70 56 75 112 19 143
218 200 151 99 156 52 25 38 53 56 55 65 73 88 91 122 112 76 82 36 134 112 176 251 227 209 168 242 265 113 112 112 144 114 106 123 50 93 92 74 99 80 23 31 86 115 256
111 174 164 141 196 234 50 28 37 37 48 74 66 87 98 76 127 102 116 149 142 102 211 203 201 110 110 310 272 109 134 104 117 99 146 165 103 87 104 105 101 80 64 54 22 127 243
24 80 158 127 119 136 162 42 30 24 53 70 54 70 72 58 74 120 111 100 93 204 245 270 256 167 185 161 187 179 112 71 50 30 44 62 72 62 77 36 130 100 79 145 -2 128 207
43 59 59 109 103 215 317 67 36 26 57 67 54 63 74 45 67 170 114 133 184 242 203 185 156 174 124 166 113 111 83 65 137 144 118 57 -5 26 36 44 126 72 17 -45 -33 92 67
54 65 25 77 96 244 329 117 38 17 51 72 62 85 19 8 131 161 130 145 183 103 201 251 209 169 140 153 117 75 50 45 12 8 60 -26 -48 -35 -20 -50 -6 15 22 56 121 180 476
77 42 58 64 29 375 453 93 44 20 60 83 71 124 103 46 163 135 157 182 166 111 156 174 193 163 181 109 84 40 12 35 -4 -2 -47 -38 4 -76 -6 -39 3 -48 -105 -25 92 143 352
71 26 60 71 -15 442 541 133 38 28 77 85 178 176 111 110 200 162 155 197 154 78 179 141 126 122 116 125 118 23 -12 -26 14 -3 -42 -35 -27 -43 -31 14 -1 -8 -46 -52 90 189 196
68 35 14 118 -46 11 380 220 20 25 87 153 206 131 51 195 171 206 205 207 102 122 166 122 79 90 61 99 89 16 -22 -1 -12 -46 57 -5 90 -15 11 -14 -44 39 58 217 36 149 325
83 4 -9 186 -92 -4 294 209 145 22 96 176 176 114 110 108 133 209 185 181 187 99 102 72 31 3 73 71 50 -1 42 27 33 11 -8 28 48 -21 -7 -0 11 125 58 158 254 276 308
83 15 16 86 46 120 355 270 209 58 146 211 136 126 93 133 110 143 131 118 202 132 69 49 24 20 -1 30 89 65 71 46 -41 78 -9 3 12 89 88 97 198 56 114 169 239 204 230
64 2 46 64 135 127 354 598 105 77 103 168 145 116 120 141 139 106 129 119 197 126 57 19 -6 11 18 29 54 15 50 -1 -4 40 2 -18 82 67 156 110 120 99 109 164 149 195 188
51 16 33 51 64 72 472 406 70 60 79 187 161 96 90 81 81 60 77 57 61 46 27 45 4 -6 40 47 -2 40 21 13 26 37 -26 24 68 206 190 44 65 38 37 61 79 98 134
73 42 43 70 57 -15 311 421 406 32 120 164 109 115 108 80 41 58 34 41 53 111 -11 1 17 -12 22 36 11 37 6 8 6 -15 7 48 139 359 135 107 36 57 48 41 57 67 51
35 58 34 48 38 -56 291 274 349 38 149 131 154 121 136 60 42 69 30 33 24 58 51 -53 14 9 11 68 11 14 8 -23 -24 -1 29 9 105 204 116 105 138 119 61 42 39 58 57
46 71 40 49 97 -94 124 266 258 41 81 117 108 127 109 72 41 24 4 -8 77 85 79 -56 -27 9 38 50 44 60 131 119 84 54 60 57 50 81 107 72 62 66 66 55 57 63 35
36 56 69 46 103 -77 -0 245 281 248 30 111 104 86 60 50 36 17 24 39 42 6 1 -70 74 101 86 106 66 95 116 96 104 98 114 64 85 96 100 84 116 56 65 70 62 52 36
31 47 82 62 121 40 4 158 348 223 34 86 93 127 77 44 -1 49 49 30 -5 24 70 -8 37 119 114 111 90 64 65 83 69 76 89 87 119 133 131 98 75 71 44 76 110 92 83
19 51 78 68 103 51 59 113 382 284 24 77 51 111 76 30 1 14 3 -4 28 45 48 103 137 94 134 90 104 70 54 56 48 84 126 125 161 109 86 87 111 50 14 52 95 80 97
14 51 74 88 100 58 28 128 293 262 29 62 61 62 87 48 30 30 14 -14 91 45 35 34 85 30 159 189 158 139 42 37 40 45 122 179 140 110 136 48 7 53 86 51 41 68 56
12 38 83 91 65 69 62 189 244 360 46 35 61 82 106 62 43 28 21 -2 40 59 59 62 145 69 156 203 146 169 125 134 84 57 59 117 157 132 90 50 27 87 93 77 59 27 55

GFSGBSN_con_3kmhel_003.txt.gz
Helicity
16 26 25 26 46 36 34 33 35 26 20 23 30 30 34 41 43 41 37 42 35 44 70 88 100 94 118 125 144 197 168 113 87 69 73 86 120 143 175 172 147 118 85 112 75 60 55
24 35 41 28 15 38 32 38 40 35 15 21 32 33 32 49 56 47 39 32 28 24 47 57 81 115 162 91 46 116 174 156 88 27 65 71 141 114 167 178 176 207 144 69 47 44 43
121 40 33 33 32 24 43 38 43 40 36 19 23 40 43 41 61 51 47 38 33 14 21 32 68 99 105 61 54 220 131 95 122 133 129 91 44 149 233 216 163 157 154 108 75 8 59
181 113 75 28 32 33 32 48 47 47 46 39 19 42 49 48 59 65 57 57 50 45 48 43 70 108 90 71 33 48 219 158 109 53 70 96 93 167 183 214 242 229 205 152 76 67 70
169 194 139 116 37 37 28 35 48 53 52 45 43 36 45 46 60 78 84 70 56 57 78 88 99 123 82 49 42 48 118 134 95 82 49 64 128 201 206 215 233 255 249 205 135 102 125
81 189 191 94 70 22 25 33 48 49 50 58 50 47 45 49 70 79 111 106 91 95 97 102 130 135 81 97 63 57 81 83 132 204 211 150 210 200 233 300 274 306 237 178 151 65 92
108 119 160 207 146 33 28 37 44 47 55 61 64 56 53 63 61 113 134 133 135 127 140 138 122 159 122 90 93 82 50 94 105 208 248 166 242 284 180 160 164 174 178 190 98 73 113
50 98 124 161 193 137 78 36 42 46 56 69 57 72 51 65 66 100 122 124 127 133 93 63 62 120 118 244 190 118 105 187 153 121 152 205 198 134 116 96 121 97 90 26 94 147 78
81 81 97 138 204 167 103 53 48 35 58 65 70 87 72 73 85 134 101 110 88 89 104 85 111 153 155 152 200 116 124 110 169 182 166 159 216 95 107 90 104 82 87 51 51 100 115
96 114 94 87 157 205 84 170 71 26 22 40 54 80 94 124 126 108 98 78 92 95 95 128 87 29 91 183 194 101 142 182 215 161 150 123 71 74 106 82 86 79 48 51 64 56 56
70 76 53 87 75 171 87 114 43 32 12 63 76 109 126 131 93 104 75 155 107 71 112 106 108 44 97 144 224 44 136 142 198 249 230 226 152 102 97 33 77 71 43 59 57 -8 45
51 39 46 58 78 94 124 89 115 54 21 66 121 122 106 93 169 80 98 126 79 148 81 151 141 96 119 101 110 164 136 186 178 151 144 73 111 102 72 63 73 80 67 72 50 31 -13
35 27 56 66 49 96 59 94 100 75 85 112 129 113 141 119 121 79 127 145 141 149 129 103 104 117 95 113 78 127 161 168 220 194 155 110 34 89 91 94 71 130 102 80 60 84 -62
8 29 62 17 8 30 101 41 247 62 125 153 142 117 82 98 134 136 122 163 129 81 84 162 140 133 173 147 142 91 99 99 54 85 141 110 87 125 144 107 118 128 97 140 23 -99 -90
4 35 64 -18 -6 126 62 62 198 77 120 137 147 151 116 82 142 101 165 137 67 58 127 143 146 161 167 120 92 72 57 74 78 103 116 67 27 41 85 164 83 69 110 31 34 21 -33
-14 56 51 -6 -15 150 40 33 208 220 101 178 226 162 97 98 90 97 144 95 78 90 128 132 129 113 104 78 77 93 83 69 61 36 31 -57 -103 -121 18 103 35 39 27 47 23 -2 47
-4 27 50 -14 -31 99 -14 38 288 308 98 189 330 179 113 132 140 132 133 85 78 81 127 87 138 120 63 106 85 121 21 12 1 -9 99 -3 -55 24 76 0 9 -45 39 22 -112 -306 220
18 28 73 -14 -23 43 33 32 367 331 178 313 234 223 114 181 125 173 119 92 36 72 78 46 73 59 33 125 105 150 93 37 -2 -12 84 49 11 48 85 -50 -41 -34 19 -81 -295 -95 7
-1 19 53 14 -36 73 -32 57 428 112 136 444 196 194 115 158 137 113 101 48 44 66 78 53 69 -21 12 142 88 162 62 28 59 60 90 58 60 151 -30 -19 6 -31 -34 -60 -155 53 174
-6 2 26 34 -11 62 -4 36 502 436 104 202 206 223 172 85 139 78 57 28 33 86 145 33 4 -31 -26 27 98 31 130 32 43 90 86 -21 8 88 77 -20 -60 -63 -14 -115 -90 11 132
-19 -1 18 57 14 42 -48 116 353 283 69 153 179 190 210 130 76 81 49 37 33 53 70 -19 -20 39 27 16 54 65 73 -20 5 51 99 23 37 88 207 224 52 12 -41 17 87 304 125
-28 -3 22 50 51 43 -6 78 260 382 132 220 174 121 163 62 48 28 18 44 52 11 30 6 -6 -8 -3 5 23 7 46 -5 -27 54 66 69 316 297 174 68 24 20 50 47 63 86 113
-40 -14 39 54 76 45 25 -13 208 531 370 194 170 188 98 69 61 54 49 27 -17 -47 -18 29 -9 19 -3 16 12 -36 -32 11 11 40 126 125 246 250 188 -2 -30 -10 20 12 38 90 94
-43 -26 36 53 70 43 14 -9 141 310 532 244 155 138 107 89 84 23 18 2 11 12 10 -23 -13 23 -16 1 40 34 42 -12 7 39 116 51 122 182 138 95 38 64 51 26 44 45 49
-32 -26 27 53 98 47 32 8 228 252 434 115 108 92 82 53 32 19 17 -4 44 1 -20 7 43 36 52 45 67 20 52 52 91 77 69 74 26 51 61 68 81 70 68 70 61 58 92
-23 -22 15 64 79 70 73 22 237 312 300 201 107 105 70 47 15 31 48 14 2 -34 -43 36 17 127 105 91 56 76 83 65 83 64 53 54 93 58 68 67 68 75 57 58 73 100 116
-8 -12 0 54 81 85 80 19 110 290 329 141 70 98 64 41 45 24 12 0 -11 -6 34 32 -20 104 92 87 72 81 73 72 50 75 75 92 58 29 41 53 64 38 42 43 79 51 95
-2 -16 -6 39 78 77 111 87 143 312 282 123 57 45 63 48 41 28 7 -2 -4 -15 26 29 108 105 154 80 53 125 61 58 71 57 74 103 116 96 50 27 28 31 51 40 25 52 64
-7 -16 11 39 75 95 113 128 105 255 254 223 55 65 70 49 34 21 23 -14 -24 0 32 17 124 46 93 120 94 85 65 68 65 41 67 74 123 128 84 18 1 55 32 50 52 48 53

GFSGBSN_con_3kmhel_006.txt.gz
Helicity
161 191 78 26 25 24 29 45 51 38 23 20 16 25 24 31 39 50 61 59 61 58 63 84 107 105 137 143 171 178 123 134 116 90 59 79 101 133 125 127 114 113 102 121 79 31 46
160 162 149 126 27 30 21 34 45 48 38 18 24 26 28 32 41 56 68 61 55 54 64 71 95 89 111 96 81 158 155 148 111 104 54 78 75 90 122 123 129 194 194 66 84 53 65
124 123 137 157 44 55 47 30 30 47 46 32 32 29 42 35 35 53 67 69 63 56 50 53 56 45 47 33 72 171 189 95 115 63 58 64 51 192 206 146 138 115 99 100 106 88 73
89 109 109 151 151 89 89 42 30 34 43 43 48 47 56 49 37 53 70 77 81 76 70 66 75 54 50 36 69 83 131 133 94 74 67 64 122 138 172 186 201 157 126 110 109 130 100
75 77 77 140 168 177 167 39 38 25 30 43 64 60 69 50 42 53 73 79 85 83 94 103 115 88 49 69 87 76 137 143 115 99 49 37 139 177 194 183 137 136 140 173 142 138 146
58 53 100 109 132 151 146 127 31 34 22 25 69 73 73 57 49 58 83 101 116 122 126 123 145 105 80 78 80 71 136 151 173 172 172 136 194 199 216 200 163 142 142 140 172 195 136
57 64 61 107 119 144 171 209 199 45 34 24 42 76 75 66 57 71 143 145 147 145 152 125 127 133 136 101 79 103 141 199 239 297 267 238 241 194 145 145 149 139 132 122 203 229 107
60 72 64 96 100 139 165 64 225 229 30 35 35 71 75 65 54 91 143 138 106 120 99 62 81 102 135 179 148 135 179 248 232 210 217 248 216 159 99 99 112 127 104 78 66 86 130
55 52 72 96 92 121 146 63 134 97 63 47 34 68 82 76 72 112 121 101 81 87 86 63 113 166 156 167 209 145 182 198 215 150 152 171 164 65 129 116 148 119 110 112 102 74 65
62 49 67 87 108 92 103 164 155 -17 139 55 49 77 107 139 154 140 101 92 81 84 87 35 85 84 71 118 166 127 163 196 248 143 90 153 84 94 106 120 124 111 119 76 74 110 137
59 29 55 55 83 57 59 66 198 43 74 147 36 54 182 194 123 139 74 108 97 86 155 69 79 47 57 89 126 66 116 168 176 202 226 205 133 99 75 77 80 109 71 78 77 100 123
33 16 35 48 57 59 82 57 200 183 66 59 122 109 177 241 148 96 103 128 123 178 144 107 97 83 93 62 120 136 83 71 145 140 165 192 191 151 140 91 81 100 86 99 100 114 197
23 23 19 45 37 63 29 75 166 86 70 53 146 192 182 196 151 113 159 158 203 189 119 89 92 83 97 92 82 100 178 164 238 266 209 208 114 204 153 108 112 106 104 209 199 226 225
19 25 26 38 16 61 7 44 174 90 96 41 -10 223 176 244 178 160 194 226 184 119 113 112 95 124 119 108 103 108 156 138 83 150 169 169 189 137 123 96 156 118 132 241 285 207 139
36 40 24 44 37 -13 8 127 81 46 74 111 63 237 286 156 169 191 205 208 119 95 99 102 119 113 108 80 113 97 96 101 75 165 125 85 93 123 100 176 142 102 127 46 142 96 106
42 55 -2 52 39 -40 38 135 142 37 97 93 28 368 227 69 139 198 206 128 82 69 119 103 78 108 78 89 109 82 93 61 114 104 114 60 99 41 74 75 86 121 114 148 107 73 10
30 35 -13 30 19 -7 -5 173 89 111 165 175 84 554 214 91 224 183 159 101 42 54 110 78 87 110 60 131 118 87 28 7 39 4 76 14 7 -81 -27 -23 -20 75 94 142 54 77 -18
42 28 -18 23 41 10 -4 89 65 61 261 -28 128 274 129 127 227 216 104 94 29 45 61 88 88 79 76 106 57 30 54 29 44 10 98 90 -17 -61 -30 -91 -46 12 11 21 -68 -76 -97
38 6 -27 -12 12 19 8 49 19 149 219 53 263 367 146 145 226 167 79 82 54 32 60 63 52 67 64 67 -1 90 27 36 23 21 48 146 4 32 8 -43 -8 -40 -22 -22 3 -76 -197
32 -18 -26 11 33 33 17 20 36 -20 318 234 432 340 194 165 170 90 53 68 46 25 20 71 36 45 23 35 36 -4 32 0 15 49 68 43 -29 100 71 5 -24 -58 -7 -65 -48 -159 -186
27 -22 -38 3 64 57 21 33 -37 110 416 306 294 288 228 77 127 50 79 48 36 30 50 46 -11 12 7 22 31 51 37 11 -72 0 101 169 145 91 133 113 99 -49 -49 26 -36 -54 -73
15 -29 -35 -10 45 63 56 20 -35 186 482 260 288 211 112 79 67 74 15 21 26 10 56 12 5 -12 29 8 5 -7 41 39 34 115 201 190 285 295 304 115 41 1 32 2 -97 -96 -167
-5 -26 -30 -10 36 77 73 24 4 212 353 133 140 226 182 138 67 42 64 34 18 38 7 5 15 13 1 25 10 -31 -21 -27 -42 55 259 396 415 328 125 21 62 20 116 93 -2 -39 26
-5 -19 -24 -15 36 72 73 62 40 162 328 282 147 198 146 89 77 32 6 -8 19 -6 -15 -11 -40 -3 9 28 14 -27 -14 -48 -56 63 71 138 341 315 136 55 98 68 104 259 252 137 186
0 2 -17 -17 22 61 92 103 87 161 389 281 319 163 126 108 59 50 60 26 11 18 -12 -14 64 105 32 58 40 39 25 42 13 -18 21 91 77 172 93 80 69 34 -8 22 59 23 4
-3 4 -13 -17 21 68 111 132 79 218 406 234 148 182 134 93 47 53 41 32 28 9 -5 -10 -1 103 64 66 62 70 50 43 22 22 11 52 44 35 64 41 21 45 50 37 35 27 35
-1 0 -19 -24 25 72 115 139 75 115 293 339 109 77 117 95 60 48 39 31 10 2 -14 -21 14 70 82 76 89 70 65 46 36 46 45 31 33 -7 16 23 52 36 31 35 56 22 83
-7 -7 -15 -17 31 76 108 153 82 114 301 243 142 125 84 74 50 22 50 28 21 16 -26 1 25 78 129 95 123 84 35 26 40 32 47 106 57 19 3 -6 25 24 36 35 18 27 22
-8 6 -7 -16 29 76 116 185 118 166 303 272 73 107 73 65 48 42 45 28 -6 5 -1 23 43 84 99 88 88 80 50 58 35 47 59 46 77 52 17 20 23 43 48 39 13 21 17

GFSGBSN_con_3kmhel_009.txt.gz
Helicity
120 119 89 123 90 191 132 22 22 18 42 55 38 28 7 13 16 16 28 35 43 48 54 72 99 123 156 120 92 103 146 134 79 79 88 89 128 151 120 93 106 124 80 85 76 48 38
72 121 123 124 73 109 95 141 24 34 28 41 44 45 20 22 23 27 33 40 49 58 66 64 85 115 129 88 67 120 166 214 161 143 111 131 107 122 150 118 105 115 117 66 58 46 26
45 48 78 111 121 97 67 122 208 40 33 26 45 59 52 34 34 28 40 43 51 55 66 58 60 80 82 44 70 101 156 132 159 146 124 86 113 147 162 115 113 86 71 65 66 90 45
52 64 83 77 97 167 85 103 123 129 47 24 30 37 74 52 54 40 45 54 69 82 66 65 75 72 40 56 93 46 92 116 99 83 86 91 82 135 166 206 166 130 92 54 42 109 99
69 76 62 70 105 123 172 138 166 161 146 54 19 25 67 79 65 52 52 63 79 83 82 98 100 84 35 97 88 77 94 131 134 118 99 116 155 174 233 183 151 134 128 102 95 84 125
68 57 59 58 70 109 126 182 172 223 200 193 50 14 32 86 70 52 63 90 112 117 126 149 144 89 64 75 90 83 70 109 161 161 181 157 210 219 241 222 221 167 143 76 49 93 145
73 61 47 49 55 83 135 149 208 133 156 147 142 30 39 70 77 58 150 179 172 146 158 125 93 100 110 100 103 121 109 216 213 242 225 262 280 342 234 195 156 146 123 129 139 124 121
67 58 56 60 65 52 106 115 156 219 132 146 190 66 38 101 99 101 192 178 108 115 78 41 97 77 165 173 131 148 131 223 234 227 269 276 242 261 227 180 146 126 125 112 71 74 101
58 57 58 64 47 48 101 134 119 134 150 127 154 83 46 116 118 188 123 129 90 83 85 79 110 122 118 138 141 134 167 213 209 246 271 225 237 180 203 168 176 157 145 129 99 79 55
42 38 32 35 10 35 78 46 63 69 174 154 133 157 44 154 225 182 122 92 85 84 117 56 95 120 151 246 150 141 121 182 224 198 159 165 148 124 159 167 169 121 130 89 94 101 109
42 21 28 43 -4 21 55 72 62 83 111 195 3 191 67 258 308 257 127 129 97 111 157 91 132 96 78 109 121 78 103 168 191 228 265 260 159 139 136 109 109 155 92 93 93 130 127
46 39 47 30 18 33 18 35 90 93 82 120 2 188 165 347 317 148 133 170 151 229 164 102 114 116 113 63 125 148 106 65 171 166 179 194 144 185 182 99 116 163 105 79 118 124 179
42 36 49 15 30 10 -4 35 75 74 139 64 72 88 70 400 311 212 195 240 261 223 143 117 120 121 101 115 89 122 124 143 194 244 245 202 123 231 194 177 131 132 152 276 237 299 290
36 36 64 28 2 42 5 -5 19 164 117 51 47 -65 250 365 278 180 262 325 245 128 159 114 99 134 108 118 112 122 151 167 175 282 251 207 219 144 226 198 231 172 181 301 348 292 156
36 54 49 32 -8 26 10 -14 95 142 105 35 27 -223 -8 186 204 197 344 294 165 141 112 120 140 128 95 101 140 95 123 150 173 157 152 159 166 170 112 145 262 191 142 126 146 162 168
31 33 43 32 14 21 28 12 54 98 108 109 -31 -136 -77 150 221 213 284 185 139 123 113 115 103 59 72 91 97 114 117 71 100 187 160 117 113 62 81 144 92 111 71 134 180 144 45
30 31 29 25 -14 30 28 20 10 49 128 119 66 -185 29 235 302 264 237 185 97 77 91 98 59 71 82 102 107 117 61 17 66 43 133 31 -0 -27 49 74 140 168 81 123 113 126 100
25 26 20 8 -14 49 74 47 2 31 56 72 6 -66 145 248 194 199 199 109 64 72 79 85 70 45 87 89 111 96 18 -20 11 109 110 65 23 36 90 71 66 50 80 108 118 123 10
17 20 20 -8 -21 34 103 59 14 9 51 185 66 68 297 138 327 206 104 76 85 67 69 68 36 48 73 77 41 32 17 42 102 144 124 136 136 112 80 74 78 17 36 48 -2 24 -93
14 12 16 -10 -25 35 98 37 15 3 134 228 41 128 279 166 219 155 87 62 63 56 30 9 32 69 36 -2 -19 -21 -14 -22 33 52 70 45 46 177 174 54 3 5 -40 -20 -35 -92 -73
16 5 10 -15 -18 47 110 58 22 -0 227 195 106 144 201 89 110 82 93 30 46 49 17 15 25 -9 -3 -6 -12 2 9 -1 -17 50 75 54 190 237 200 172 62 19 -28 5 -8 54 -74
25 7 3 -24 -8 50 104 101 41 29 443 175 71 227 194 118 70 64 53 28 31 24 23 35 25 -10 -28 14 -4 -41 -0 32 59 76 105 60 236 342 465 475 216 20 -10 -63 35 23 12
23 -5 6 -11 -12 42 89 96 92 47 291 132 311 296 230 90 147 66 39 37 24 13 8 29 -3 -5 -12 -1 34 -38 -45 -34 -15 129 251 223 238 337 365 97 33 -8 -32 -39 7 48 -5
13 9 5 -17 -17 37 82 110 123 68 202 184 378 267 197 149 44 62 48 39 11 -5 14 25 6 -23 11 29 21 -39 -38 -51 -30 90 199 199 240 263 160 36 44 68 -13 19 62 5 32
12 6 -2 -18 -18 42 81 111 151 120 192 164 130 309 136 59 77 37 47 28 4 -2 -7 22 4 55 86 39 26 -10 14 13 18 57 219 170 163 175 178 137 73 74 146 116 60 114 55
18 11 -16 -14 -14 48 77 141 174 169 236 258 172 106 173 80 50 61 30 66 21 23 28 21 52 96 96 66 39 17 14 4 -3 31 -1 30 30 31 98 60 49 62 123 151 123 72 51
21 16 -14 -3 -10 39 85 118 175 171 226 348 274 208 163 78 88 117 70 44 39 45 11 20 -4 10 84 76 67 45 49 32 34 17 5 27 4 29 35 40 65 36 -17 17 -23 39 17
17 19 -14 -6 -1 35 89 122 149 149 212 346 242 167 131 110 91 48 55 61 80 49 -2 -13 -23 6 58 116 88 49 34 20 45 26 28 36 26 -0 21 14 20 16 -8 -11 7 10 27
25 11 -15 11 11 29 77 111 122 92 258 351 193 79 102 112 68 68 37 45 55 30 23 9 6 40 140 149 74 49 31 45 49 63 49 33 36 7 9 13 12 44 29 33 22 29 -0

GFSGBSN_con_3kmhel_012.txt.gz
Helicity
50 56 88 112 103 100 70 -6 78 146 170 10 18 26 40 1 -7 17 26 37 45 46 41 43 57 77 107 97 75 70 82 71 21 90 103 81 102 118 108 117 160 159 122 113 85 57 45
54 48 42 65 115 126 102 87 29 61 99 75 28 22 40 45 9 19 27 44 44 48 51 48 56 72 97 85 60 101 156 154 86 89 94 99 80 88 100 99 132 168 146 111 92 53 31
38 42 47 56 43 83 125 151 130 90 113 172 68 29 20 45 20 1 32 47 40 39 43 50 51 64 71 41 78 79 176 169 146 98 94 95 110 116 137 77 103 103 102 99 89 74 65
60 55 59 66 70 44 73 129 141 124 157 93 156 75 31 27 60 15 36 45 56 66 46 44 56 62 35 38 51 57 97 126 120 100 99 74 76 101 146 174 179 120 103 105 92 88 95
70 74 72 72 78 101 69 75 121 140 189 212 112 159 74 33 73 46 38 41 84 78 78 64 86 54 21 69 68 67 95 89 122 120 89 105 120 111 141 170 154 142 161 130 124 143 118
89 79 68 63 71 94 107 78 93 126 145 232 161 119 151 65 68 98 56 52 84 119 142 136 100 58 61 52 80 120 98 146 133 142 140 133 129 155 201 210 188 170 171 136 90 113 177
83 64 50 59 51 54 46 64 72 100 136 138 172 109 134 124 39 122 168 166 180 145 153 108 77 108 87 74 130 119 109 163 157 186 156 175 182 201 157 162 170 164 160 138 134 154 96
41 35 40 49 36 31 23 47 76 79 111 107 112 207 106 131 43 175 220 189 141 102 75 33 81 66 96 139 124 129 96 162 187 172 220 214 150 159 197 168 160 155 138 132 108 92 97
68 71 40 37 38 32 11 19 69 56 51 58 99 103 101 125 44 303 172 143 123 95 84 78 82 92 123 110 111 95 121 185 168 203 193 172 192 130 201 232 203 196 182 160 108 113 111
67 54 45 52 35 32 2 16 8 44 71 51 96 208 127 110 155 307 247 172 138 87 123 54 83 98 148 182 78 117 148 186 214 150 166 117 156 184 206 227 203 141 158 117 112 116 75
50 42 58 56 43 42 23 9 35 59 42 81 62 171 84 123 39 397 224 197 100 128 174 79 118 131 106 171 180 110 149 200 195 177 217 198 173 139 167 167 234 251 112 126 123 157 137
43 38 29 62 44 41 -1 -3 7 41 44 96 86 105 19 223 110 345 228 157 172 252 183 89 93 95 116 94 135 120 93 126 179 140 165 184 183 198 203 185 169 212 174 141 165 151 146
51 29 29 45 41 36 -3 27 -35 8 60 121 71 54 -129 114 182 351 230 309 327 234 157 91 110 98 86 116 104 106 111 144 169 174 186 171 146 250 219 199 158 168 184 248 221 243 224
43 36 35 38 32 32 4 -35 -31 -32 63 60 60 -16 -54 -89 208 287 281 299 270 139 188 83 119 153 125 114 98 89 127 140 122 209 202 173 155 150 184 166 157 162 227 269 270 245 126
30 30 32 31 25 23 -14 -6 9 5 69 88 85 -40 -47 -42 79 308 335 332 189 149 156 161 130 138 94 87 114 106 101 147 167 240 208 181 207 228 141 150 101 172 199 136 197 171 172
18 14 23 21 24 19 -12 68 19 7 69 38 -6 -45 -41 -89 187 220 314 236 208 193 157 128 128 113 131 91 112 104 110 89 75 161 150 166 136 154 96 84 -15 125 134 157 315 235 200
-1 17 20 14 18 17 -2 73 56 17 5 99 -30 13 -115 -65 177 258 230 213 219 172 107 110 119 126 92 85 108 114 118 64 49 62 141 220 158 166 155 225 228 153 64 139 170 140 176
7 19 19 6 10 1 6 75 56 15 -21 45 21 32 -39 65 138 132 199 199 188 152 126 117 103 81 56 89 79 110 68 -33 76 140 112 153 116 139 175 102 53 115 143 126 215 202 164
17 24 19 3 14 -16 29 84 51 20 -33 99 53 72 -27 88 134 114 189 190 182 135 81 69 57 57 69 91 87 13 -8 -24 115 172 101 163 141 119 123 178 205 248 109 118 99 94 -80
20 26 7 -3 17 -8 41 88 64 52 -37 15 86 47 147 98 209 109 99 126 124 103 87 72 61 61 74 39 -30 -28 -24 -18 102 127 118 131 183 223 246 246 271 89 192 228 -15 -48 28
19 22 -0 -0 -6 -7 25 56 78 74 17 61 52 88 146 133 105 163 147 56 57 66 46 22 28 17 37 -5 -21 26 11 -35 62 76 130 207 249 255 340 321 283 241 92 58 161 90 14
21 15 10 -2 -5 2 25 71 103 51 251 37 57 25 108 99 100 91 98 47 43 41 24 15 14 16 -14 -2 5 -16 4 11 52 104 212 160 265 276 509 523 407 333 246 111 45 83 58
28 23 24 -18 -4 2 39 76 69 80 207 63 84 45 104 29 111 86 66 35 28 20 18 5 2 8 -1 2 11 1 -17 -20 -32 61 214 194 233 308 362 108 81 166 222 223 93 68 112
26 22 20 -17 -7 6 47 69 106 137 153 75 85 221 96 52 -3 31 34 9 27 27 26 34 -2 5 -2 28 -11 -26 -34 6 -11 54 182 199 260 255 307 126 184 86 15 146 227 96 87
13 19 21 -16 19 13 39 69 115 161 133 96 183 172 119 47 2 43 20 69 25 19 5 -0 -14 4 49 25 -17 -34 -23 -36 -3 101 212 244 159 133 146 202 213 237 73 -36 108 47 106
15 11 12 -18 3 19 50 73 97 163 164 114 193 198 153 114 14 86 58 45 45 25 8 2 17 43 53 4 -10 2 29 -15 -1 8 1 91 71 37 78 118 83 152 90 84 84 211 247
3 13 8 -16 16 33 49 87 134 155 157 165 57 146 195 85 99 81 42 38 56 28 18 15 9 24 47 44 26 30 37 14 -1 10 23 21 19 87 101 68 81 74 87 85 115 128 68
24 10 8 -7 18 31 69 93 113 151 183 101 183 156 192 136 85 82 93 65 88 73 21 5 -2 -13 25 34 80 95 40 22 32 45 15 16 17 7 13 22 37 -6 -3 22 87 57 8
39 20 8 -2 2 23 44 93 101 125 174 126 166 226 149 86 65 73 58 77 51 28 48 46 3 -27 -9 29 65 57 37 31 40 55 49 16 13 -8 19 6 -0 12 -6 31 35 34 -0

GFSGBSN_con_3kmhel_015.txt.gz
Helicity
35 37 40 39 49 51 86 130 116 72 -29 42 126 116 17 16 26 5 -17 21 42 50 55 63 76 87 100 87 52 36 33 45 61 126 89 83 93 87 74 81 132 121 84 86 83 96 93
30 33 43 51 50 36 44 60 116 137 92 75 146 107 115 46 19 52 -9 7 38 46 59 60 75 76 89 71 51 52 81 83 79 81 95 97 67 84 93 91 108 112 93 93 78 40 79
40 56 63 62 74 71 81 84 70 103 132 147 214 189 115 102 31 45 24 -9 29 41 50 57 67 75 68 49 51 63 128 109 91 80 90 90 94 101 83 87 100 100 84 64 58 67 75
51 79 70 72 76 80 67 79 81 61 103 115 178 255 85 154 63 48 60 2 19 48 43 46 62 73 39 46 37 23 69 108 106 101 102 89 97 98 97 95 110 79 63 67 94 110 66
56 66 69 69 64 70 65 60 57 78 106 128 144 238 146 123 140 45 86 32 31 66 77 48 95 59 47 54 46 36 71 83 96 105 111 95 96 93 113 107 99 103 105 81 90 74 102
13 47 41 44 35 37 38 46 36 22 82 94 123 172 176 178 141 83 110 104 76 127 126 130 92 57 64 59 64 76 109 102 107 128 131 116 114 112 125 124 110 76 92 91 89 86 102
53 86 71 75 43 42 27 31 31 33 65 107 106 109 127 194 147 119 187 275 174 137 148 100 56 111 95 76 81 77 102 161 150 153 126 136 113 105 94 116 113 108 89 76 96 99 55
75 77 52 51 59 39 22 19 31 32 50 28 44 60 80 187 101 196 335 327 183 55 64 31 88 62 79 83 91 100 94 114 127 113 140 133 80 69 138 109 83 78 67 65 85 105 93
55 54 64 68 68 42 41 35 40 30 19 31 40 59 87 181 120 96 272 257 232 181 96 96 73 84 100 90 105 76 93 136 123 139 118 142 132 133 78 137 121 105 99 93 83 82 87
73 70 76 71 59 27 46 34 40 25 26 53 45 43 102 164 122 17 204 301 174 129 118 68 90 82 134 183 93 108 110 126 134 87 133 70 95 123 153 143 126 74 146 111 99 107 90
88 90 89 71 41 37 48 36 27 18 -4 24 63 111 58 123 98 45 263 200 170 119 126 83 126 119 110 153 129 109 170 208 167 156 172 110 90 101 78 87 199 167 124 142 139 139 156
110 94 76 61 38 35 42 30 7 -7 -58 -58 106 94 49 47 32 18 287 287 273 250 159 90 88 110 140 157 176 162 121 146 139 120 103 114 140 153 123 122 127 212 191 121 174 169 202
99 92 88 40 30 30 33 28 11 -11 -24 -16 114 79 32 35 34 70 294 299 352 238 157 108 111 92 81 117 140 117 118 119 122 141 110 98 96 181 204 176 193 272 246 243 201 271 314
81 90 39 31 26 28 20 -22 -1 30 -3 23 20 75 9 19 32 270 319 376 315 186 241 109 125 124 130 117 104 104 109 92 60 137 138 111 113 114 98 99 136 269 289 355 254 209 150
90 52 24 29 26 23 13 -28 41 42 -2 8 77 17 16 45 -72 265 326 376 212 124 188 173 123 163 115 105 119 100 76 87 99 157 128 116 137 108 62 93 119 207 262 119 234 157 172
75 32 30 32 22 16 3 -18 54 77 25 -28 12 3 11 9 50 337 280 324 226 165 147 130 137 103 95 72 79 45 58 60 94 137 117 167 110 95 141 168 175 206 136 281 299 285 246
70 36 31 32 4 5 -12 -4 69 55 22 -13 -16 -0 12 3 98 252 183 218 216 142 115 152 138 95 80 80 80 66 59 84 57 72 113 151 104 126 166 153 178 220 214 213 225 292 326
81 35 34 20 3 18 -17 21 69 60 42 -49 98 52 -18 15 167 222 167 226 225 177 198 142 122 120 91 78 57 62 60 57 66 143 92 112 120 144 148 202 186 244 210 224 299 343 257
61 33 23 12 13 9 -8 21 42 55 50 -45 127 41 -64 56 165 272 189 247 175 131 119 92 98 97 75 47 24 42 37 -9 131 147 73 149 108 53 32 121 206 326 308 273 303 195 199
59 36 16 13 7 8 -8 40 47 54 40 -11 148 76 57 73 201 175 179 208 172 127 91 82 72 69 56 33 11 17 -45 33 88 64 119 140 188 217 209 256 311 437 413 305 222 195 161
59 34 24 22 -12 -11 8 59 41 48 155 46 86 47 73 38 112 120 111 120 137 106 86 54 45 42 28 25 1 -13 -31 4 85 64 107 221 210 232 319 384 392 394 460 400 367 237 263
75 34 23 23 -10 -11 22 53 69 37 334 40 81 42 62 51 75 61 7 24 81 70 61 49 30 8 19 34 14 -23 -43 -34 23 73 184 214 208 189 334 347 360 336 332 359 356 348 277
81 40 20 18 -7 3 40 59 55 74 164 60 105 47 92 75 71 58 42 28 42 34 43 32 29 27 13 22 -11 -21 -21 2 20 54 184 176 190 250 420 298 275 115 82 242 307 322 161
71 56 25 13 -12 -1 21 59 57 103 130 76 88 56 75 100 102 63 28 54 29 35 42 20 23 7 12 -9 -6 -19 -23 46 86 72 159 213 222 217 337 238 173 149 33 129 213 159 214
69 63 28 12 -11 11 32 40 65 83 147 73 67 18 64 42 55 -10 -25 -25 37 41 20 4 -7 5 10 3 -23 -24 -42 20 32 75 121 241 189 142 183 249 255 219 121 27 90 166 273
57 69 35 20 -3 20 22 49 69 84 159 78 121 49 74 33 40 10 31 36 36 24 13 12 3 1 -1 -7 -18 -3 44 22 17 -8 12 35 102 84 82 120 194 214 139 104 109 136 38
61 73 52 18 1 21 36 58 68 75 138 124 138 114 74 55 48 23 36 52 48 46 10 15 7 12 20 -0 -0 21 48 9 14 -11 -31 -23 26 64 90 102 114 110 105 119 184 205 142
65 68 65 24 -9 16 35 75 93 97 139 90 150 130 152 89 62 98 65 50 93 66 21 3 4 15 27 15 25 33 27 14 19 29 -20 -18 -10 -2 7 32 44 45 44 77 141 113 52
70 57 73 42 11 22 35 49 87 108 92 92 98 221 214 97 49 57 55 52 63 40 65 38 20 15 -20 -20 -10 4 12 32 43 71 47 38 -4 -0 15 12 24 41 88 107 101 90 23

GFSGBSN_con_3kmhel_018.txt.gz
Helicity
32 35 42 39 40 30 38 55 58 84 114 116 109 51 118 84 84 35 46 17 3 19 42 58 71 80 94 95 90 55 83 91 54 46 53 73 86 98 102 113 86 75 64 66 55 56 49
38 42 53 53 45 47 46 39 49 64 63 113 111 125 192 150 102 67 37 41 9 19 44 59 68 73 86 64 69 59 37 45 53 44 56 62 80 80 75 68 71 101 83 67 61 38 42
48 35 38 49 47 52 51 54 37 33 21 52 106 113 205 247 119 117 39 58 21 19 40 61 69 74 73 69 62 73 96 72 57 28 46 102 83 63 71 67 85 95 66 60 37 35 25
20 -6 20 20 42 29 40 35 26 26 14 11 91 126 152 284 209 147 108 52 21 28 38 48 71 73 65 71 39 68 89 95 93 83 61 67 86 104 91 85 46 59 57 63 45 54 43
26 57 68 43 31 31 7 24 34 38 41 52 53 116 129 165 227 235 175 41 61 44 74 54 75 75 81 67 65 52 47 70 83 107 114 95 90 109 73 57 55 37 67 38 53 45 68
69 63 60 56 25 51 27 35 25 31 22 53 59 105 145 139 130 228 219 52 113 123 121 131 101 86 59 88 82 79 87 77 110 94 112 95 93 74 50 63 80 57 33 36 43 40 49
58 71 68 60 59 95 80 42 28 38 32 36 45 16 89 118 134 200 220 232 289 224 149 155 67 134 63 118 63 112 104 114 111 59 62 61 74 51 22 27 39 80 63 46 42 54 35
67 66 81 79 86 88 59 36 27 53 40 24 25 1 43 91 150 136 102 274 202 86 84 83 90 75 105 75 94 76 74 104 102 50 73 71 37 17 41 28 27 25 31 37 37 32 46
85 93 102 88 83 65 45 40 29 33 35 18 17 36 66 66 147 -22 96 135 282 102 92 82 72 108 87 70 78 42 28 78 46 64 24 46 58 15 2 12 19 17 31 41 47 78 69
86 85 94 87 77 39 36 37 32 21 14 13 3 24 66 90 48 87 25 119 180 241 97 39 88 60 75 104 69 63 48 88 93 37 47 18 32 83 79 56 41 48 62 37 38 43 40
78 107 93 51 23 35 31 30 30 20 7 1 -44 -54 128 141 54 116 32 103 146 113 86 56 152 103 92 95 73 130 102 121 65 79 88 70 48 28 45 34 35 81 81 69 66 56 72
74 92 32 17 26 32 30 26 19 -7 23 -3 -27 2 76 54 -5 65 105 158 306 280 139 89 154 130 147 128 138 125 120 143 88 73 72 93 140 100 74 74 48 147 100 63 68 87 127
70 66 40 29 32 34 30 18 -2 24 29 8 11 -9 63 30 30 48 82 352 298 299 100 102 99 106 105 159 143 119 102 111 102 110 74 58 34 97 124 95 129 100 156 154 121 148 145
88 75 40 35 35 30 16 11 -4 49 47 22 31 100 32 9 32 57 123 270 174 220 171 82 81 65 112 84 108 79 84 81 57 108 122 92 85 38 64 63 160 69 77 188 169 159 178
89 70 38 38 24 12 13 18 16 63 52 14 -7 21 22 18 32 77 158 201 180 159 125 88 135 132 154 94 126 104 63 72 53 69 86 81 82 83 73 95 53 144 168 62 126 108 193
88 56 39 29 23 17 18 9 32 67 62 40 -81 21 14 9 32 91 222 179 266 164 118 77 124 95 75 71 106 79 67 60 43 35 40 89 81 84 128 115 97 105 202 239 283 287 215
79 56 36 22 24 24 17 6 27 57 45 -38 91 29 11 -3 83 174 183 223 256 104 107 144 88 72 89 67 69 57 45 54 13 27 30 98 102 108 140 121 87 144 213 292 312 389 298
77 61 26 30 25 23 22 31 31 43 28 -79 165 44 -19 27 108 163 234 272 183 77 105 94 75 83 50 35 37 23 11 30 39 80 76 42 102 27 94 64 69 83 143 228 348 388 483
70 82 30 28 23 7 1 33 28 49 31 55 155 44 -9 133 67 201 188 264 226 145 119 92 86 90 63 45 48 5 12 43 68 65 60 83 8 16 4 45 59 135 154 288 444 291 258
67 79 38 22 16 4 -13 39 32 51 109 47 81 89 62 83 75 94 107 152 123 115 95 93 67 64 54 36 41 -2 3 31 9 45 83 92 65 128 56 34 75 162 212 266 363 372 336
51 87 57 28 11 6 16 55 44 70 195 38 65 101 104 85 72 79 97 114 74 72 56 66 54 36 7 21 11 16 -0 18 25 37 57 99 95 147 193 190 119 178 270 239 310 468 255
78 74 71 30 7 -15 35 61 65 61 196 82 94 85 90 113 74 94 89 57 50 54 38 42 31 -5 23 24 19 7 1 -23 -22 6 103 113 96 59 255 203 198 413 350 213 179 306 293
61 89 63 30 15 -7 65 59 74 64 93 121 114 103 100 148 91 54 56 38 33 34 40 50 35 24 20 43 35 15 -2 1 5 2 73 68 112 127 208 137 229 80 73 87 128 188 197
51 71 87 43 24 8 64 77 67 75 40 82 87 77 99 53 52 1 -2 25 25 18 40 40 19 35 49 44 16 10 5 29 28 49 114 135 159 170 288 225 102 126 120 64 61 124 165
56 63 84 72 28 3 43 50 81 68 71 29 37 46 95 7 51 34 28 42 39 51 22 20 14 25 36 11 7 12 -3 -18 -20 -3 76 160 150 166 199 262 182 166 116 72 47 43 72
51 66 70 77 42 5 44 68 83 76 85 45 34 69 83 85 13 21 19 9 56 30 18 4 22 22 1 -0 10 18 13 4 -1 4 -1 3 56 83 63 121 99 144 145 122 90 62 94
58 66 71 78 62 2 35 77 88 90 108 58 25 72 72 59 47 22 -14 -21 34 39 36 21 17 16 26 8 21 26 21 16 15 7 -1 3 17 52 80 67 79 114 130 122 76 125 174
59 70 67 76 68 26 32 67 113 115 120 65 93 38 69 63 51 22 11 47 65 48 48 11 4 6 12 -3 20 16 12 1 14 28 1 -2 4 3 15 25 13 62 53 28 107 98 87
61 65 77 76 79 36 -6 72 96 118 122 70 56 105 105 49 58 80 59 64 54 12 15 22 30 14 4 -7 -22 -13 -10 -13 15 45 13 4 -16 12 11 15 31 36 71 105 97 97 -11

GFSGBSN_con_3kmhel_021.txt.gz
Helicity
42 40 14 31 33 35 31 27 26 11 14 20 48 93 97 157 169 167 127 61 32 25 22 30 48 68 82 81 90 42 33 62 54 54 34 47 76 81 118 119 124 99 83 82 93 86 52
42 29 21 21 21 39 28 33 36 22 19 17 10 70 113 101 171 164 152 136 41 32 21 32 55 79 81 84 126 83 56 64 66 31 33 44 125 110 165 174 127 137 118 111 63 55 35
35 8 45 40 32 17 33 38 37 40 42 41 40 25 88 123 162 225 183 166 38 44 29 43 55 67 89 66 79 55 18 45 86 42 40 79 86 123 80 111 101 109 61 58 32 24 25
24 44 61 63 44 31 62 57 57 42 22 18 28 34 45 132 174 206 220 229 75 75 42 43 62 71 104 110 73 49 65 52 30 80 87 81 97 126 152 145 75 78 55 70 40 61 48
65 71 60 57 57 71 95 51 66 38 22 17 15 27 55 95 143 169 205 282 234 80 49 57 83 88 85 52 69 48 57 64 76 66 72 56 69 79 76 65 81 46 94 38 82 10 74
68 56 73 86 88 71 69 45 62 36 35 23 19 27 36 67 124 144 151 247 158 92 49 127 182 100 66 81 85 87 63 73 84 119 175 154 137 88 49 68 98 72 40 89 80 54 19
65 78 97 98 89 82 51 57 48 35 36 32 34 25 37 48 56 116 24 174 80 213 169 231 62 189 67 115 93 97 62 58 83 88 147 132 129 71 26 32 62 110 135 93 78 58 43
83 73 93 102 72 49 28 35 45 28 30 22 25 13 29 36 43 105 28 131 339 292 213 150 118 105 107 82 111 113 71 110 88 85 110 148 62 16 54 67 49 53 53 50 42 38 54
81 78 94 73 23 20 30 30 31 20 16 20 6 13 32 39 43 52 -16 26 174 165 199 89 96 60 78 90 93 53 47 83 44 51 55 64 52 33 27 29 37 30 38 43 48 80 49
66 63 60 54 30 31 32 27 27 22 11 8 8 -34 -6 31 40 43 2 -195 90 59 218 157 96 109 105 102 107 43 24 93 115 45 46 42 31 33 16 16 19 33 49 56 65 67 30
61 80 101 41 28 34 30 26 16 6 5 3 22 -0 20 -4 14 44 57 23 63 128 192 67 154 91 93 108 71 72 44 116 61 61 95 59 46 15 27 17 40 46 124 101 101 90 103
46 85 67 34 35 35 23 12 3 9 12 29 9 3 6 38 2 56 -3 5 198 150 132 165 162 142 130 108 95 105 114 136 140 89 45 81 82 70 25 51 25 138 78 47 43 101 117
47 84 67 39 30 25 21 15 10 12 44 39 20 10 26 -9 18 16 43 126 148 223 65 107 135 131 119 155 92 69 95 121 97 95 46 26 39 61 85 67 80 94 124 116 74 110 155
50 81 63 38 23 28 26 19 5 36 75 58 38 8 27 -8 22 28 126 77 280 89 127 60 86 88 161 124 80 82 61 62 48 68 64 42 38 26 38 45 102 69 102 169 107 126 128
47 80 55 38 39 31 27 9 15 39 48 12 -26 35 8 8 66 59 133 28 125 76 105 74 66 106 127 47 88 61 36 55 39 56 75 60 80 66 74 68 57 134 132 29 154 115 170
41 84 63 31 28 26 1 -4 26 17 22 -14 42 30 37 19 21 119 126 58 143 114 48 40 98 91 93 50 61 50 55 26 52 10 26 85 76 60 97 118 101 117 175 173 183 183 128
42 89 66 35 24 20 -4 -6 35 32 20 32 30 17 14 32 59 126 97 101 59 47 110 89 31 60 43 36 53 42 36 75 -0 19 2 47 72 88 124 65 77 118 117 189 175 203 256
46 81 70 36 20 17 -9 23 38 45 47 28 41 14 1 34 128 155 100 159 82 93 187 91 28 60 25 23 79 62 65 93 9 15 21 39 68 58 57 34 54 52 82 62 201 217 288
69 47 72 51 15 4 -20 38 43 69 67 46 21 95 80 137 112 82 166 195 106 117 95 50 54 49 40 55 88 55 27 49 24 25 34 78 1 30 -8 24 7 47 30 76 212 159 286
65 57 68 59 7 -10 -7 43 37 78 52 11 64 89 76 127 142 32 170 77 111 108 70 44 48 38 30 -9 76 22 34 30 15 25 133 48 1 -38 -45 -33 57 131 137 137 176 248 230
62 57 65 52 1 -8 25 37 46 88 75 55 75 120 109 133 91 34 128 134 55 46 38 50 46 57 60 59 32 25 23 30 26 27 42 27 3 -6 78 72 46 53 86 146 156 194 193
49 55 78 64 -0 -14 23 28 50 89 75 41 68 143 114 84 93 4 75 74 49 66 54 28 26 38 37 36 42 18 13 8 -9 19 11 34 40 19 135 111 54 200 138 94 64 87 130
45 62 78 65 -3 -32 10 26 29 57 62 2 66 121 78 53 48 51 38 27 13 16 23 42 40 23 41 52 54 38 23 31 33 23 -15 25 44 32 35 58 117 57 18 53 75 96 129
41 56 76 56 21 -39 11 39 30 49 55 43 32 71 105 45 27 36 36 31 20 16 22 26 39 43 55 60 45 17 5 3 -2 14 25 43 80 57 156 138 23 89 88 68 63 26 16
45 53 69 69 52 -6 36 43 38 65 97 29 35 45 98 78 53 26 28 36 24 29 34 28 31 43 36 32 23 32 12 8 -1 12 16 97 62 62 63 95 137 61 81 99 56 67 17
49 52 65 67 55 29 7 61 71 86 107 49 17 15 71 110 66 35 18 19 33 31 17 15 23 26 10 27 34 34 23 23 -13 -2 -8 -40 58 33 40 47 25 16 23 90 62 53 -8
52 53 72 73 69 47 -0 35 75 74 99 72 5 22 99 68 79 37 31 -1 26 32 43 32 17 19 28 23 47 49 37 14 9 6 -13 -5 15 37 26 28 47 73 50 54 44 42 52
34 58 65 81 73 65 31 -25 82 90 100 103 30 8 53 82 92 74 29 -0 25 33 36 31 9 7 20 26 30 31 32 34 25 8 3 -6 7 5 11 9 5 31 18 7 39 37 13
27 48 62 75 69 77 46 12 -63 98 124 109 56 17 33 58 67 77 55 55 61 55 23 10 44 23 18 12 12 10 34 39 29 3 30 24 -8 29 -1 11 23 12 39 21 33 29 3

GFSGBSN_con_3kmhel_024.txt.gz
Helicity
34 37 31 40 37 41 42 54 59 49 39 35 52 67 53 76 101 150 176 160 161 47 42 24 32 52 83 80 90 35 43 77 37 31 18 63 90 103 115 132 101 95 97 97 128 157 163
21 27 41 64 54 49 31 60 77 76 89 52 56 62 51 75 93 136 194 176 167 118 30 32 33 65 96 90 84 31 25 11 22 19 8 22 107 96 154 143 121 90 104 94 153 140 107
41 44 48 69 50 65 68 98 96 64 44 27 21 36 39 39 100 121 177 175 154 288 49 62 36 61 84 60 104 79 70 55 64 34 31 2 97 172 252 237 252 193 125 91 98 86 90
54 64 52 61 73 99 72 108 75 38 56 48 29 19 35 32 39 95 149 163 164 242 51 32 43 72 103 80 101 55 60 34 65 70 14 76 113 136 192 196 130 91 69 91 42 21 52
49 58 75 68 84 86 84 81 36 42 34 47 38 23 4 27 23 28 110 144 155 195 137 88 119 124 78 63 84 48 52 42 40 67 72 99 108 147 187 142 107 67 107 78 74 58 63
57 77 76 92 80 66 47 19 23 32 36 37 32 24 7 25 29 23 51 144 102 204 73 148 185 120 88 72 88 48 66 95 82 59 92 81 146 127 148 132 110 102 102 114 132 98 63
81 94 63 63 53 53 21 27 29 32 29 24 23 14 11 22 41 46 15 49 122 73 148 261 159 184 56 193 106 101 79 96 84 89 111 89 159 139 30 30 55 166 199 192 165 165 115
72 66 49 85 46 33 31 33 29 31 18 15 14 2 -2 2 14 27 16 92 102 218 162 162 105 169 104 49 110 99 65 159 131 106 120 131 110 61 85 117 129 118 98 80 62 62 63
63 44 70 73 32 31 35 32 28 20 4 1 4 15 -24 -12 18 31 6 105 -100 279 231 141 174 85 78 91 91 89 83 133 108 100 138 88 94 50 71 87 91 99 84 75 78 72 31
63 43 81 61 44 35 31 26 21 12 12 7 7 11 -21 -4 -3 12 33 16 -195 145 198 177 189 122 85 165 110 67 72 161 141 73 80 73 85 76 63 66 57 74 75 86 89 72 39
74 59 72 56 38 31 27 30 14 2 -11 8 23 23 19 126 60 10 37 -7 -85 162 242 128 203 79 99 133 143 83 41 164 101 98 133 63 49 37 64 52 52 48 94 106 101 87 54
58 62 67 47 35 33 32 36 23 17 36 39 35 23 -11 -0 9 61 49 12 -33 275 233 271 223 109 167 126 177 151 123 164 162 117 57 62 113 74 41 52 85 132 92 40 44 55 46
47 66 72 50 30 25 26 3 9 18 37 35 17 22 40 -13 22 18 17 16 167 190 75 180 214 127 140 158 171 126 140 127 116 124 76 57 12 38 90 78 90 116 92 57 1 43 60
41 60 85 45 23 19 12 -16 -48 -30 8 30 -12 29 49 42 75 82 65 63 210 -16 46 97 132 158 160 138 106 96 82 76 67 92 34 46 24 87 44 106 95 57 89 82 80 91 123
50 32 84 43 25 7 -3 -8 -41 -29 24 28 36 44 32 38 16 85 97 30 45 55 48 95 104 250 157 109 94 99 75 62 42 68 66 36 48 54 24 37 27 101 85 121 174 127 176
53 37 80 54 21 7 -9 -8 -26 -1 20 56 48 14 28 30 45 71 68 -77 244 66 79 31 157 125 102 86 75 71 59 12 38 38 34 84 54 54 80 60 58 98 102 192 220 166 143
48 34 81 63 16 10 -2 -21 -20 -13 26 79 35 14 42 68 62 88 -103 24 153 -13 11 98 37 80 49 96 70 65 19 32 10 37 23 74 85 89 131 56 99 119 111 169 236 246 227
43 49 71 63 11 6 -1 -38 -12 7 105 35 24 -20 68 107 116 60 -68 86 64 130 98 44 37 35 48 67 78 46 53 119 9 37 28 59 86 60 65 39 31 86 120 104 202 166 260
36 37 64 61 11 4 -10 -41 -13 55 20 33 74 61 48 134 57 6 126 106 92 150 127 67 45 50 13 12 106 111 77 51 61 30 51 91 49 49 63 38 30 77 77 123 140 119 251
38 37 74 51 7 -0 -14 -36 -2 80 40 45 76 154 196 155 50 54 122 55 74 121 97 69 10 2 22 55 66 44 60 41 38 74 119 71 60 15 -64 -6 73 60 74 105 137 273 269
33 27 72 65 9 -9 -19 -41 -18 67 87 45 34 155 125 89 79 151 187 40 38 28 39 52 65 27 8 45 51 31 33 42 30 54 65 71 15 6 -3 6 -13 28 63 82 114 180 261
37 22 54 67 23 -3 -10 -34 -19 66 98 74 40 65 102 118 58 63 67 65 44 37 52 47 36 52 80 70 74 27 21 13 22 30 38 35 10 6 79 97 41 114 120 123 126 135 180
35 27 38 61 52 5 -4 -24 -28 64 85 48 88 64 50 44 46 33 25 14 -0 3 18 46 51 49 76 81 61 45 53 61 53 48 -3 35 23 29 16 22 34 40 52 96 109 128 178
21 35 36 41 59 32 -18 -5 32 41 76 71 44 35 43 6 -1 28 34 37 3 25 12 24 51 52 45 49 52 20 15 15 13 42 75 16 45 31 64 50 4 35 111 154 188 138 95
8 28 39 38 51 56 15 -22 25 51 63 25 57 38 55 71 47 44 52 36 42 38 47 28 37 32 33 46 57 42 32 22 -1 -7 37 57 65 19 21 53 93 7 52 145 135 97 84
8 14 31 43 34 54 52 -2 39 59 56 24 16 26 47 54 49 93 43 36 37 20 22 17 19 23 21 32 47 53 50 29 4 11 20 29 16 30 31 34 5 11 62 104 108 80 76
9 9 25 44 42 40 50 44 -16 64 91 57 34 36 63 59 85 126 51 21 58 35 42 40 21 18 28 34 50 56 58 50 21 -12 2 -2 2 4 7 18 16 13 56 69 56 72 39
7 11 21 32 35 40 46 53 30 -8 96 96 67 33 60 68 78 76 135 73 64 31 37 39 28 20 29 28 34 50 44 40 29 27 -11 -9 -4 10 28 22 5 22 -7 35 60 37 27
2 6 13 25 26 21 38 50 62 39 30 98 65 89 37 87 115 113 108 143 78 89 60 34 39 21 22 24 27 32 35 44 42 32 32 13 9 16 40 -27 -14 -9 63 51 84 60 8

GFSGBSN_con_3kmhel_027.txt.gz
Helicity
24 43 52 59 71 46 39 52 67 82 66 70 58 59 43 73 60 67 130 132 167 171 167 32 56 51 92 103 83 83 66 8 29 59 47 57 136 162 153 123 134 129 119 112 115 103 87
25 61 62 69 70 81 102 89 77 82 65 28 39 35 33 31 34 40 89 108 182 211 161 54 76 70 114 95 63 70 21 94 62 48 35 46 127 102 111 105 143 130 126 166 136 105 114
48 43 63 100 84 101 82 78 82 55 48 13 27 55 39 43 29 45 68 108 143 237 148 166 52 77 119 63 122 57 51 53 15 54 44 -14 82 148 171 178 192 174 183 159 107 74 75
48 66 107 99 86 67 85 91 41 16 24 29 40 38 8 22 16 24 19 37 146 172 120 216 63 102 109 68 102 101 86 56 48 56 36 83 81 113 166 193 185 167 110 81 66 86 88
74 78 84 61 64 77 76 47 40 39 35 36 35 31 14 20 24 31 21 21 116 130 89 171 117 137 92 96 88 74 55 64 48 63 60 79 119 120 153 154 167 135 105 67 130 64 107
58 77 60 62 89 76 41 30 37 37 33 33 29 23 16 17 25 25 30 43 103 127 70 51 206 133 88 97 109 84 70 73 71 59 124 112 129 184 172 193 141 84 117 131 124 146 96
79 67 46 86 106 94 38 32 34 27 17 15 13 8 3 3 3 14 16 -13 80 71 47 302 233 272 77 47 121 71 63 88 87 106 151 91 188 120 88 49 83 94 139 151 141 187 147
68 77 51 97 90 59 31 31 33 24 14 7 -0 13 -2 -2 6 15 -7 6 73 72 102 79 106 182 160 122 127 97 135 158 138 137 129 181 143 85 54 64 64 105 85 75 44 102 106
64 86 74 83 84 34 29 28 34 18 -0 -8 7 16 2 30 23 4 -15 41 -1 -89 182 90 118 73 120 121 123 78 138 154 113 126 152 130 109 52 98 102 71 90 79 67 61 28 50
77 60 77 82 55 19 19 13 8 5 -11 5 13 15 9 -15 105 9 18 15 43 -82 252 30 136 154 114 125 136 86 110 156 152 135 127 135 117 108 78 94 78 69 84 91 88 66 69
65 59 73 94 42 11 2 -15 -30 -40 -37 -27 -9 18 -1 -5 130 -7 17 31 -21 -15 197 121 166 98 90 164 131 72 120 179 138 153 157 79 99 87 90 75 79 54 76 64 58 59 26
69 66 70 78 29 3 -22 -32 -25 -59 -19 -21 -11 28 13 27 17 51 19 -9 -20 156 213 171 272 171 188 81 164 126 173 175 141 114 91 138 118 93 54 80 99 85 65 54 45 50 92
73 63 72 68 29 2 -25 -32 -36 -28 -4 -3 -4 38 48 30 19 34 33 18 196 84 277 246 299 169 177 187 150 159 163 180 133 167 132 81 81 67 82 90 109 103 90 72 75 100 79
64 57 72 69 26 3 -20 -23 -28 -18 -5 -6 39 42 65 51 51 45 29 40 202 147 201 184 224 172 201 152 159 135 144 124 149 150 120 68 64 71 52 81 50 99 72 74 63 70 54
53 73 45 50 10 7 -7 -14 -26 3 -0 61 81 44 64 55 32 69 58 -20 92 99 112 187 203 187 158 137 125 135 107 87 97 108 63 50 44 67 33 87 121 84 59 112 125 95 132
58 63 49 31 1 11 -9 -18 -1 5 106 75 21 66 89 72 34 61 36 139 149 69 70 136 231 134 109 96 108 95 76 29 45 35 62 77 37 37 54 54 56 71 72 132 156 63 83
46 44 50 34 2 2 -14 -3 -1 13 79 31 30 67 96 99 70 62 5 156 51 -76 55 123 106 105 84 121 70 86 26 40 42 22 20 77 51 56 66 37 74 114 101 131 155 183 115
42 51 50 18 -7 -11 -30 -17 -38 6 46 34 59 153 119 81 5 -50 121 114 58 123 74 19 27 89 68 97 46 72 48 41 -24 76 45 58 37 33 3 17 62 116 114 185 139 88 173
44 36 33 10 -13 -18 -40 -24 -18 25 37 63 147 190 95 72 75 104 152 115 184 84 24 37 48 57 59 134 59 76 83 81 4 34 29 63 27 29 41 70 76 88 70 60 88 173 206
35 39 21 27 4 -6 -23 -28 7 59 37 86 40 -15 67 99 63 89 125 142 83 105 89 50 -8 -17 3 74 90 29 92 82 72 56 38 62 34 13 -5 48 85 -14 43 130 208 254 296
35 39 19 22 -6 -15 -36 -39 50 105 37 58 24 47 27 68 145 127 79 110 68 57 103 41 32 -7 39 96 45 45 67 75 81 80 73 63 31 14 -16 -33 -34 57 89 114 202 213 271
28 36 20 15 24 -12 -25 -30 59 124 62 10 -20 -1 32 74 20 26 2 42 11 12 31 62 43 64 76 63 49 35 32 31 23 38 65 59 20 23 17 13 3 24 78 91 114 145 213
15 29 17 11 24 3 -14 -29 18 55 45 -11 39 28 -13 -7 3 -1 -20 -32 -16 -7 7 26 60 52 77 83 62 47 52 47 36 46 52 42 19 -8 16 14 1 21 26 72 113 153 180
2 15 21 8 10 21 -9 -14 -9 46 51 -6 16 7 -7 12 29 27 20 4 -4 8 -11 -0 44 45 41 36 33 36 32 28 43 29 86 40 36 20 22 40 23 -5 88 125 181 153 143
6 -0 12 10 7 8 19 -12 1 23 65 7 14 39 52 33 52 34 40 36 44 48 32 24 37 24 10 48 56 39 29 30 5 27 74 68 42 12 35 36 48 7 10 81 115 77 87
23 7 6 7 9 4 5 13 -12 2 81 24 26 21 61 95 78 83 66 66 52 35 32 30 15 12 20 53 63 47 37 37 30 36 18 91 74 23 42 28 23 5 2 57 90 30 100
30 23 3 16 7 18 16 15 10 -7 13 43 24 44 53 21 111 119 144 97 55 50 52 36 19 31 30 50 59 55 65 57 37 11 23 26 31 31 20 14 21 33 10 71 36 48 53
23 27 12 13 11 8 23 27 18 25 7 36 13 55 65 54 41 94 103 99 88 65 64 24 51 32 38 45 41 49 62 65 50 33 19 16 11 13 19 20 -1 -14 34 10 47 49 38
18 37 27 16 12 8 7 12 28 37 46 42 39 60 63 44 41 75 69 51 30 74 46 47 45 34 16 37 36 42 45 56 46 41 49 23 25 11 20 12 -12 20 11 35 57 46 43

GFSGBSN_con_3kmhel_030.txt.gz
Helicity
63 59 51 77 98 98 68 83 101 117 94 39 34 42 46 64 56 41 23 24 82 157 210 187 178 87 125 109 78 74 77 11 49 111 105 120 175 194 193 150 157 152 162 131 89 91 100
57 54 102 97 76 57 70 93 106 82 54 15 32 43 47 34 60 49 32 19 70 104 159 156 71 85 172 90 56 96 52 48 47 84 91 116 123 112 137 143 156 149 102 116 93 92 107
49 84 98 73 44 86 103 88 61 44 46 38 44 48 29 14 22 33 22 20 46 115 149 174 199 83 105 59 128 83 60 79 66 65 78 43 93 158 143 172 131 155 158 179 129 86 96
81 85 74 56 84 109 113 75 35 33 40 37 41 34 16 16 16 27 33 24 17 69 156 168 103 116 136 42 117 177 81 72 52 70 59 35 66 126 138 185 185 163 165 136 92 84 83
75 82 69 50 98 111 72 34 25 26 31 23 20 18 16 12 12 23 23 16 28 55 172 144 29 139 107 96 70 57 98 82 67 67 77 119 96 121 148 180 213 214 151 115 137 71 93
77 68 75 75 112 95 29 28 14 25 19 13 9 9 20 15 5 8 19 45 53 78 115 78 112 181 105 115 68 73 66 92 83 102 130 107 136 141 169 209 179 117 128 123 121 156 111
69 68 66 90 114 59 14 2 24 6 10 -22 -30 2 11 24 17 -30 -6 0 23 83 80 209 102 188 84 73 108 69 92 81 95 115 144 106 83 133 106 70 143 151 160 167 129 110 86
75 78 48 99 101 36 3 -2 4 -15 -28 -61 -46 -16 12 18 41 39 -13 5 33 101 65 154 119 263 55 98 107 47 79 99 98 125 145 179 98 102 73 75 124 118 105 98 75 76 54
71 74 53 103 81 13 -4 -27 -23 -33 -50 -57 -31 -26 -4 -3 13 35 -27 9 14 89 -15 151 141 218 132 106 111 102 81 114 118 123 125 92 56 106 108 128 99 100 95 104 104 29 -29
63 80 74 103 55 17 -10 -26 -33 -21 -40 -19 -15 4 21 -8 11 64 -13 18 29 90 225 135 121 192 171 69 153 147 121 128 129 113 93 85 83 62 100 107 84 104 63 36 54 61 73
64 77 85 103 40 31 13 -3 -31 -22 -15 18 -4 4 0 -8 89 32 2 -15 -14 104 252 155 102 148 158 159 125 71 183 130 141 177 137 105 99 105 107 94 107 88 86 51 37 45 27
55 83 73 90 31 31 17 20 10 -11 3 -1 -4 18 42 13 -2 16 4 -11 125 133 231 144 142 142 153 132 204 164 187 166 134 155 172 127 110 115 85 123 111 67 86 72 42 34 73
40 77 77 56 29 31 19 15 7 -3 4 33 52 56 32 34 50 46 39 115 159 347 203 167 216 168 139 181 165 153 161 154 125 145 121 132 130 116 108 143 143 109 96 102 105 99 69
36 57 72 39 13 21 18 16 6 30 98 81 43 50 75 89 27 53 96 96 259 243 194 108 150 188 190 153 143 111 126 136 134 125 158 105 84 52 71 76 45 79 66 56 60 55 44
35 53 78 24 10 19 11 11 5 51 69 37 26 83 87 104 53 66 115 138 263 297 285 244 225 226 179 163 136 111 132 79 87 84 46 94 94 64 52 93 70 46 63 68 65 38 54
36 48 74 13 4 3 3 20 46 77 43 20 66 52 93 113 57 60 124 228 183 237 146 248 208 150 148 124 138 114 79 56 40 59 70 49 75 52 58 75 86 75 66 93 92 52 46
41 43 53 7 -4 -8 10 43 37 39 30 41 87 110 141 84 35 84 209 223 185 103 226 168 72 134 109 132 102 74 30 64 32 45 60 89 49 77 47 41 65 83 77 96 95 100 51
44 43 40 16 -1 -20 1 -3 49 41 68 61 75 117 97 36 145 163 148 88 95 142 114 94 42 58 90 97 67 61 27 55 7 31 35 78 40 40 50 54 47 73 51 135 102 58 106
38 43 25 15 -29 -33 -20 28 61 68 52 76 97 121 114 65 108 134 213 175 187 99 39 39 45 70 104 64 40 56 51 59 -7 36 65 56 51 59 53 35 71 49 74 98 73 36 112
31 44 20 6 -56 -45 -18 68 58 95 78 45 49 55 116 82 83 63 86 92 -7 64 45 27 31 41 69 70 57 63 82 88 62 34 34 54 23 8 6 8 45 38 -6 20 77 137 157
24 44 26 -9 -24 -38 -33 -1 81 104 107 14 24 31 57 69 26 42 78 29 2 17 34 -7 -26 -62 18 57 53 66 67 92 90 63 55 45 18 6 -3 -10 -15 -28 1 38 189 287 267
17 35 36 -2 3 25 26 10 12 124 65 -41 -20 16 29 67 54 39 12 -13 6 22 40 39 -20 9 18 47 58 41 47 52 37 55 72 66 20 17 13 16 -14 27 49 84 127 132 253
21 16 37 13 8 8 62 82 38 45 -7 -15 -11 1 7 49 21 -2 -12 -23 -12 10 -5 32 17 41 71 47 72 61 33 7 22 78 120 62 31 12 15 12 -3 25 16 60 68 113 166
8 11 22 17 9 12 6 38 83 74 -3 -10 -21 -12 -11 2 19 9 5 -7 -3 5 -15 3 28 47 35 41 32 59 72 64 65 36 57 61 60 26 12 3 28 14 -2 41 115 102 135
3 22 12 22 12 13 6 1 11 65 88 -11 -17 -10 7 20 18 62 67 37 35 34 26 25 34 24 13 39 69 53 62 60 37 27 47 71 56 12 14 16 42 22 6 -12 8 44 52
28 22 17 17 22 15 9 6 -2 9 55 46 -8 -10 -2 16 33 16 58 75 77 59 55 40 24 28 44 64 79 50 28 30 43 37 46 72 40 25 14 20 42 32 18 23 49 -4 42
62 29 27 18 15 14 20 10 2 8 13 36 32 44 16 5 8 73 40 74 91 81 63 51 33 36 48 65 65 56 57 57 36 22 38 43 26 11 20 33 43 42 22 44 6 -15 85
90 28 40 22 17 7 17 8 11 5 13 36 49 66 64 44 -40 51 99 63 59 73 78 49 78 55 65 64 57 54 57 73 61 44 36 48 19 20 33 37 27 31 19 -3 11 27 52
90 41 31 29 26 18 22 22 15 33 20 39 41 65 86 73 34 87 55 73 43 35 43 67 72 59 49 71 51 50 49 61 57 49 68 42 42 5 11 14 44 25 -5 9 19 28 25

GFSGBSN_con_3kmhel_033.txt.gz
Helicity
45 45 67 72 68 60 92 104 108 104 41 23 23 42 41 45 35 64 68 51 32 54 136 152 150 209 125 150 94 29 130 39 25 74 84 148 212 255 207 179 219 180 197 128 78 71 52
37 57 58 57 71 90 105 114 93 49 33 25 17 38 37 28 35 46 34 29 27 28 116 135 160 147 77 96 43 56 44 59 73 135 142 139 163 195 170 160 158 131 98 101 108 83 70
59 43 58 65 72 101 129 92 49 33 26 19 8 22 25 17 15 25 25 21 24 24 78 117 185 150 47 54 73 107 55 15 101 119 155 122 124 189 160 173 123 152 124 137 99 82 93
55 44 53 85 99 107 112 38 17 30 17 18 11 15 12 1 -1 13 15 16 17 33 52 125 172 85 55 35 77 164 88 79 83 72 85 73 116 160 175 176 190 176 176 147 140 102 94
41 52 69 78 97 101 60 20 13 14 13 7 -8 -19 -14 10 16 10 -7 1 23 40 53 126 88 133 55 57 51 100 120 76 75 68 78 90 105 141 162 190 217 213 167 148 141 81 114
38 55 70 72 91 98 42 16 10 12 1 -6 -45 -33 -28 -8 -4 2 21 13 59 21 41 71 82 148 45 76 63 79 114 98 111 99 141 139 128 148 177 211 192 184 124 125 126 150 122
49 59 83 70 103 83 30 8 1 -11 -12 -5 -35 -27 -34 -3 -16 37 15 22 42 16 84 136 172 187 145 79 125 85 133 139 119 138 156 111 140 139 129 111 105 134 145 137 131 122 96
55 75 90 62 90 77 43 21 14 -6 -8 -29 -15 -2 -4 -3 -13 25 60 -34 19 27 150 180 201 73 187 85 87 94 85 112 116 114 117 156 64 103 83 121 158 193 161 122 95 77 73
70 69 82 65 77 73 51 29 16 -0 -6 -24 13 -4 -10 -1 -27 74 26 -20 27 25 218 132 286 96 92 82 132 124 123 110 105 117 97 105 64 62 98 104 94 124 98 96 89 98 31
60 79 76 70 80 77 40 21 16 5 4 -3 12 6 -2 -11 21 68 -17 23 16 99 183 191 159 95 137 64 163 128 116 104 118 117 106 106 80 92 84 73 97 116 69 58 78 80 65
51 67 71 67 89 59 30 24 16 19 27 40 37 27 38 -8 15 -1 9 24 51 149 312 144 134 171 106 145 123 124 119 109 121 150 109 83 58 72 57 92 98 75 56 50 34 36 43
46 69 74 97 55 38 31 27 40 31 31 28 20 21 17 14 24 31 29 75 108 159 243 148 106 193 179 150 220 182 158 154 139 157 133 80 73 50 64 113 85 68 95 88 64 41 84
33 49 78 65 39 18 9 45 36 38 15 27 36 33 38 64 73 70 69 153 81 230 165 107 151 152 152 149 182 180 215 177 116 118 129 148 136 117 113 175 169 116 102 104 119 136 73
38 42 79 56 37 -0 13 39 11 10 7 18 72 60 32 65 56 107 154 49 265 297 175 152 195 196 217 174 160 164 150 159 155 121 169 96 92 91 89 76 57 106 79 90 101 97 80
43 43 66 48 35 1 -18 -9 15 9 -4 -10 39 73 93 115 116 111 133 275 337 297 399 181 201 223 229 168 158 116 143 93 82 89 78 97 103 97 83 80 82 68 80 77 41 -0 28
30 35 44 24 20 -20 -25 -15 34 23 -3 -56 43 85 121 91 43 101 175 160 216 159 179 159 178 107 125 105 107 91 80 72 70 49 55 42 81 73 83 95 122 59 50 78 100 42 44
25 26 14 9 -9 -32 -34 -6 32 3 -26 4 63 44 131 75 118 78 169 170 195 211 168 85 84 111 107 107 66 70 48 51 50 68 86 64 50 68 52 34 58 95 89 88 75 63 30
16 39 6 -2 -37 -63 -51 -29 51 34 -6 -9 83 43 83 88 38 93 149 153 114 133 100 95 58 111 82 77 66 50 24 52 31 29 36 61 24 41 40 52 35 63 40 72 66 37 76
-1 30 8 -4 -24 -72 -63 -12 61 50 -38 47 50 112 117 53 68 91 106 128 113 82 65 31 37 43 70 63 55 58 23 21 15 34 15 27 46 47 48 39 66 39 52 81 84 72 79
-0 18 18 6 12 -7 51 5 73 90 -16 19 32 -0 65 52 69 64 59 70 62 50 40 37 41 72 90 60 45 30 48 61 15 20 31 47 12 13 21 24 36 43 47 40 130 85 75
8 17 28 12 7 18 63 72 65 112 -5 3 -2 15 24 35 66 77 70 53 40 20 32 11 34 12 54 45 48 41 60 70 75 46 72 46 -2 1 8 7 19 -4 -18 -11 51 105 77
11 6 25 17 11 24 25 69 93 127 54 -56 -5 -1 21 41 66 55 30 -14 -24 24 30 -12 -64 7 30 49 33 39 57 63 43 55 47 49 16 22 25 28 6 11 7 23 77 113 221
-0 -0 1 15 11 24 23 37 73 121 70 -24 -5 -1 -0 18 24 -5 -3 21 -32 3 25 24 -12 11 32 35 39 39 54 53 29 58 94 52 29 17 27 52 23 31 74 67 62 74 94
31 -9 4 -1 8 11 27 30 38 80 107 -36 -27 11 4 -10 -11 15 16 -9 -12 -14 2 15 2 27 10 24 34 72 84 77 50 55 73 65 90 36 37 37 7 21 8 1 102 75 138
41 27 29 2 10 5 29 25 31 33 77 54 14 1 23 14 -8 3 13 36 37 24 25 17 29 43 35 31 71 66 75 64 41 39 52 60 62 40 33 11 20 25 16 14 -0 34 -28
50 41 43 17 9 2 26 35 30 28 44 34 41 52 36 14 47 68 12 4 46 60 56 42 57 58 68 86 95 60 41 47 40 48 76 86 69 35 5 12 36 51 42 6 34 26 -18
41 58 70 69 15 9 26 28 33 26 32 24 32 38 60 43 43 91 90 69 58 63 60 67 59 67 68 84 80 68 73 57 41 33 45 63 35 14 1 26 38 26 23 14 23 2 7
59 60 71 109 35 3 17 24 25 23 28 49 27 37 55 74 17 86 111 120 135 81 64 68 91 69 94 87 76 69 69 70 66 50 36 55 33 41 25 34 31 36 64 13 7 22 5
52 69 80 113 99 -1 -1 9 4 7 4 49 40 45 57 86 72 69 73 48 69 102 103 94 66 41 59 96 81 81 77 58 64 67 83 46 50 12 9 16 19 48 47 31 9 12 2

GFSGBSN_con_3kmhel_036.txt.gz
Helicity
33 67 53 58 61 29 90 115 119 52 37 6 15 26 20 25 39 57 43 38 57 48 26 50 108 116 126 79 59 30 129 94 47 92 91 165 177 240 198 185 211 163 150 148 130 139 75
54 62 48 42 78 59 88 74 70 50 19 21 13 14 22 18 24 37 20 20 19 25 34 38 85 110 147 54 25 -2 35 75 94 110 102 151 174 211 172 137 172 97 129 117 115 61 41
52 51 51 54 72 77 82 53 35 33 22 29 11 13 10 2 -5 3 6 21 26 30 30 29 73 142 161 90 36 92 50 64 116 104 145 135 154 197 123 163 116 160 119 117 66 48 54
51 54 62 68 65 86 66 47 30 38 30 15 13 -2 -20 -18 -12 1 -2 -19 38 26 21 31 83 196 94 96 72 142 111 91 91 150 122 124 136 185 162 152 174 154 124 115 103 83 81
61 51 71 70 65 73 53 85 50 28 24 10 5 -5 -25 -21 -8 -6 18 -4 -6 31 39 39 93 182 125 66 53 108 73 41 83 87 87 110 131 154 170 170 207 203 129 148 137 62 96
61 55 81 63 48 49 59 62 36 29 35 -19 -17 1 -10 -14 14 -5 42 -1 7 9 37 24 115 181 103 42 124 107 33 64 109 92 171 145 150 171 174 181 195 190 181 128 112 119 107
77 54 70 69 30 38 67 58 55 39 19 -21 -9 -28 -1 2 -5 70 46 25 39 22 48 121 151 188 99 106 153 84 51 97 119 115 131 133 195 134 141 166 169 120 123 115 122 108 95
70 63 79 53 22 47 81 62 35 29 36 9 0 2 5 -9 -23 -27 87 40 -28 15 131 149 225 91 118 68 80 68 114 113 112 104 307 128 124 102 105 108 122 135 127 119 113 92 64
69 69 82 45 24 44 63 39 21 7 21 49 49 36 16 2 -21 41 67 -11 -5 6 186 113 103 117 112 109 120 124 124 132 130 136 71 70 93 73 109 117 140 159 117 87 74 84 29
49 55 61 49 32 37 47 30 3 1 11 27 43 49 36 25 29 2 -4 8 10 81 195 158 127 106 110 69 226 124 138 108 137 123 85 127 103 106 92 111 137 97 90 100 115 107 65
60 53 59 45 20 40 34 24 -12 -24 -27 17 49 46 45 34 21 1 22 26 54 150 226 147 33 99 154 99 74 125 142 125 107 107 85 67 44 93 72 103 109 99 82 88 91 97 79
47 49 62 38 10 24 48 22 -4 -37 -33 -19 7 26 75 54 57 65 63 59 36 217 144 130 92 148 156 167 191 149 149 132 129 186 102 87 68 76 80 101 96 55 101 74 50 48 94
35 43 51 23 11 9 24 9 3 -34 -34 4 45 8 79 91 180 128 102 -6 291 229 194 124 91 73 109 136 149 160 147 150 99 102 164 94 82 69 63 88 100 80 87 88 108 129 67
21 32 40 18 -1 -18 -1 17 12 -46 -35 7 56 85 116 159 104 69 51 170 292 257 130 132 197 167 146 143 155 146 130 169 138 79 100 73 60 79 81 76 50 99 79 74 85 94 73
7 18 29 12 13 -22 -8 11 7 -17 -30 -26 60 107 87 89 47 94 149 281 231 210 227 108 179 174 166 139 148 154 155 101 83 88 56 65 86 93 74 71 86 76 91 84 59 24 57
7 4 17 7 6 -13 -17 -6 3 3 1 18 72 69 98 128 116 158 148 183 126 166 144 76 102 66 77 81 95 78 109 92 81 96 81 55 86 87 79 80 117 72 59 97 115 70 99
14 -14 10 6 2 1 -19 -11 23 12 33 60 67 85 159 103 107 77 70 101 86 95 77 32 32 34 60 64 61 68 77 72 84 79 82 56 64 84 76 55 52 95 83 96 72 66 42
16 -16 -3 17 9 25 29 -4 32 22 40 61 86 63 97 46 70 100 89 21 67 91 86 47 45 81 62 65 64 68 35 47 74 54 65 67 49 68 74 41 37 47 29 61 59 44 54
28 6 -2 21 21 36 54 34 26 59 -5 24 60 88 85 52 73 109 62 61 61 58 51 37 33 40 48 51 41 20 39 36 19 68 30 36 53 61 50 44 56 32 51 68 79 75 44
24 13 3 4 35 29 43 61 61 64 9 -5 30 52 46 24 51 44 36 43 32 28 21 25 45 40 59 56 43 18 26 52 22 47 60 53 28 16 4 16 22 36 44 79 92 75 68
22 18 14 12 19 39 37 45 76 97 22 -4 -4 24 38 34 53 63 57 53 1 31 39 40 37 35 47 37 32 39 53 66 70 44 90 44 6 7 14 11 20 11 13 26 74 102 44
61 24 15 17 36 21 38 31 57 114 36 -9 2 -2 15 26 54 41 37 -18 -30 4 1 -3 11 27 26 16 14 15 50 60 45 70 68 78 9 7 18 21 3 11 -5 1 23 45 116
59 44 32 20 17 45 17 28 33 83 64 16 -4 -2 5 8 10 6 -6 2 -17 -1 -3 -1 -18 16 33 41 41 38 64 63 28 57 63 42 26 14 19 30 25 18 21 49 70 101 110
76 63 49 38 23 29 17 27 20 44 47 21 58 -1 -6 -1 3 29 21 9 0 -10 -7 11 31 18 2 4 28 61 66 95 42 56 59 64 75 23 23 36 29 16 37 28 46 65 68
79 65 50 50 34 24 20 28 25 32 49 23 50 63 62 -20 -30 -2 21 27 44 33 23 22 27 25 33 49 60 44 48 55 43 47 58 80 72 29 27 14 20 20 31 36 30 32 23
70 61 50 45 39 22 46 18 28 37 34 15 16 33 38 30 15 51 64 68 40 36 60 50 69 74 71 62 75 47 26 30 42 54 103 99 75 54 24 23 23 37 65 36 23 57 44
47 40 39 28 57 24 61 14 29 36 36 21 16 21 32 29 38 57 55 78 105 99 81 60 86 95 97 75 70 55 62 65 45 41 56 86 69 56 31 30 31 17 38 49 43 23 19
60 42 43 26 40 53 54 21 19 31 33 16 13 16 33 47 58 64 63 93 123 116 120 101 131 112 126 99 76 58 56 56 87 73 46 44 36 54 53 36 24 33 85 31 20 7 7
60 51 42 41 28 64 67 70 5 10 14 14 30 24 37 47 54 45 47 37 46 57 168 148 164 122 95 141 109 85 72 67 73 78 106 56 52 41 29 19 27 23 41 35 50 3 4

GFSGBSN_con_3kmhel_039.txt.gz
Helicity
47 39 49 65 64 71 63 43 50 52 46 47 32 35 22 19 25 33 31 42 57 65 56 71 68 31 48 129 100 65 177 180 32 74 83 147 175 196 190 200 248 238 162 170 127 133 99
49 47 74 81 78 69 42 40 47 46 35 39 42 23 23 20 9 4 5 19 30 40 50 59 57 45 60 156 61 -0 86 174 52 75 77 143 152 222 170 148 184 109 166 118 106 93 88
60 57 76 87 74 64 44 54 51 38 38 42 27 7 15 1 3 1 7 16 9 22 23 32 44 25 68 203 150 55 49 104 48 51 87 159 113 188 145 148 144 117 143 124 71 77 70
59 68 68 74 66 43 37 62 47 27 30 23 20 -7 11 -0 3 3 4 6 15 -3 11 36 42 42 68 117 97 71 48 56 46 68 91 153 137 179 157 137 181 180 154 123 97 59 64
71 81 62 75 45 36 46 52 45 36 17 20 2 -13 -7 -2 -4 23 -2 18 16 2 5 28 33 66 174 39 51 38 37 66 83 94 93 121 114 188 201 169 194 191 110 139 164 58 77
69 65 64 65 46 38 57 37 50 6 7 33 31 5 -19 -8 -2 39 36 -11 -0 36 34 35 50 127 165 80 71 48 17 56 86 64 81 99 117 167 183 188 178 191 172 137 111 89 83
74 48 62 62 35 35 51 53 20 -2 33 31 24 22 -3 -12 -21 -8 26 46 22 17 36 18 108 198 106 84 166 105 42 66 103 150 183 112 177 139 161 171 111 113 134 118 110 105 75
50 29 55 71 26 29 45 15 32 8 7 6 -9 -0 58 30 2 1 62 36 -19 10 51 87 148 112 171 141 125 144 77 116 118 93 164 164 114 104 123 139 131 127 139 131 142 113 64
59 27 47 58 10 13 32 26 27 15 4 4 1 -0 23 33 21 31 41 -1 18 15 135 55 79 130 132 107 56 115 79 56 188 199 92 151 110 94 109 150 165 176 140 134 120 111 50
42 21 44 32 14 13 34 14 24 27 22 20 8 19 12 56 13 22 12 36 37 55 175 15 139 72 116 112 197 134 57 108 64 66 401 172 138 85 101 87 125 151 116 119 105 102 104
29 10 34 23 -0 -0 15 10 22 24 24 22 42 54 52 11 119 99 119 57 18 113 187 133 115 137 70 55 161 139 108 125 69 64 55 101 89 71 108 97 104 130 90 111 118 114 103
16 6 25 26 9 -9 -10 15 16 18 13 33 90 59 67 73 103 46 32 14 90 208 186 104 146 78 110 53 164 134 157 131 124 76 115 84 158 85 93 141 166 72 138 167 148 119 113
17 4 16 23 15 -5 -11 19 19 4 6 30 83 101 92 111 125 18 51 167 282 239 127 103 130 88 78 120 118 119 166 135 93 107 92 85 167 141 136 177 160 145 149 214 201 178 120
19 -2 6 13 19 -0 -12 14 16 18 8 31 61 82 63 47 62 76 107 169 131 126 114 133 121 81 118 133 124 150 132 98 131 50 158 69 56 36 27 53 62 67 100 118 172 141 117
28 14 3 8 12 13 -16 12 26 17 18 27 56 34 88 125 119 131 115 132 81 81 73 80 136 131 136 117 92 138 98 97 84 74 40 84 90 60 60 55 68 56 79 79 61 61 79
42 22 5 7 12 13 9 24 28 28 12 21 88 36 83 91 70 74 49 13 47 62 89 47 51 53 49 75 109 101 90 69 70 83 55 39 84 92 62 88 114 77 69 97 104 76 91
57 25 8 16 13 17 60 55 39 36 28 40 84 67 95 58 52 16 75 51 92 61 29 28 46 34 29 25 47 90 70 55 62 65 66 47 48 75 65 57 58 93 89 117 97 95 97
60 25 24 24 25 30 59 99 64 38 35 15 27 71 73 39 12 111 68 43 74 79 53 23 17 31 36 40 61 53 49 34 66 64 68 61 42 48 74 68 48 55 45 72 67 53 66
60 20 26 32 38 46 37 67 103 72 19 -10 30 50 41 31 24 36 44 60 51 44 45 30 20 27 29 37 31 65 51 67 48 65 38 40 58 78 84 67 71 49 56 67 80 67 37
73 41 6 17 30 41 51 48 80 106 40 -43 -1 57 33 7 9 7 10 17 5 -3 2 9 24 33 47 56 53 34 55 71 17 75 69 72 54 32 21 29 32 39 49 68 69 63 56
94 71 13 8 33 31 38 31 66 102 78 4 17 28 1 6 1 1 12 16 -7 -20 -12 2 39 18 22 30 25 34 48 52 62 45 81 57 31 29 26 21 33 40 31 42 67 90 41
102 80 34 50 44 19 18 9 45 99 63 37 37 -4 17 3 -11 -14 3 -19 -20 -6 -8 -19 11 19 25 21 3 2 46 55 40 71 76 98 32 23 27 25 6 23 11 14 15 35 54
94 97 77 50 45 18 1 6 28 71 23 44 59 51 -6 -16 13 7 2 -6 -11 -12 -4 -16 -17 9 33 43 43 25 60 48 44 52 72 61 44 26 28 29 24 18 17 31 77 87 71
110 92 70 44 59 31 13 29 21 35 15 -17 43 71 54 -20 -12 -2 15 26 14 -3 -6 2 9 6 1 17 38 65 81 81 47 58 55 50 62 34 32 33 32 24 35 39 106 57 84
108 70 57 35 77 41 39 38 34 34 30 1 5 61 90 -0 18 -21 33 5 -6 29 32 20 16 29 35 47 52 42 42 32 44 47 45 50 62 29 28 24 23 18 32 50 55 76 51
55 51 36 44 33 44 25 46 56 36 11 -3 2 13 42 68 46 77 72 57 49 50 23 40 69 73 82 69 60 47 35 32 38 50 105 89 67 46 31 31 33 28 73 89 79 66 42
45 41 45 46 35 29 27 49 61 31 10 -12 -8 9 24 49 53 60 55 74 87 87 75 74 84 89 110 100 88 61 45 62 51 44 48 74 70 64 49 42 34 18 53 82 48 50 33
45 51 41 47 44 25 47 32 39 33 13 -2 -2 -10 1 31 57 75 72 74 109 106 113 102 132 142 165 139 108 81 72 54 77 61 56 49 47 74 69 44 27 48 117 35 52 61 30
68 70 58 59 58 30 26 16 1 19 23 23 23 -3 20 10 35 31 52 16 20 52 151 171 179 119 110 175 156 137 106 93 92 66 112 69 64 45 27 22 23 16 75 41 6 49 26

GFSGBSN_con_3kmhel_042.txt.gz
Helicity
63 59 46 56 93 62 52 39 46 38 24 16 30 38 34 24 20 17 4 12 15 33 49 63 73 84 46 55 151 78 163 101 31 53 73 89 98 116 119 143 142 152 105 129 99 76 86
70 54 52 67 74 46 34 28 41 47 16 21 25 27 26 9 8 -1 -3 -2 -6 -3 17 31 55 74 53 130 143 75 67 164 66 55 73 83 105 122 133 127 120 127 172 73 83 78 75
56 54 65 57 57 34 21 48 47 35 -4 5 19 42 14 -4 7 1 1 -16 20 14 13 31 32 56 63 126 122 10 99 143 74 64 57 78 104 123 151 143 175 136 106 118 87 79 66
42 48 64 52 42 19 34 39 25 9 29 34 33 30 16 -13 13 2 15 2 28 24 -1 18 26 45 38 94 191 77 50 114 78 43 15 76 60 106 110 133 114 114 140 97 78 59 105
46 45 54 47 25 29 30 27 -14 11 31 43 32 27 68 3 -3 1 32 22 -3 35 -3 11 19 23 76 60 126 97 86 104 41 17 24 67 39 92 153 96 131 98 81 82 71 61 69
42 41 53 43 13 2 4 9 6 22 33 44 32 22 54 27 -3 11 24 48 33 35 29 15 22 34 117 114 79 108 85 97 48 48 90 86 108 111 97 110 120 89 94 105 89 95 91
35 42 38 37 20 2 11 11 -5 18 24 38 13 -20 11 91 1 24 17 31 20 -11 10 41 44 118 110 79 71 105 58 152 69 134 218 73 195 124 74 75 174 77 51 78 94 78 95
30 34 38 37 26 16 -14 -15 11 21 41 40 28 3 -8 36 35 55 28 7 -0 22 56 62 2 153 217 153 16 46 8 68 193 137 99 109 72 101 80 88 103 39 60 89 114 91 99
33 28 37 34 14 -4 -19 -3 10 -4 27 45 36 30 17 5 32 40 21 1 28 59 29 -43 80 177 141 99 -7 106 37 157 -11 -0 33 96 87 81 73 96 91 109 82 105 125 89 72
25 24 36 32 16 7 -11 3 7 -11 26 65 64 84 79 107 85 62 58 56 77 101 183 112 123 87 82 119 62 64 -28 73 280 146 87 136 142 50 50 72 81 115 159 133 122 105 111
34 19 30 25 17 -0 -13 -7 -2 -7 7 42 68 69 54 -3 66 52 50 64 72 79 306 89 188 122 109 160 56 51 33 39 131 182 180 190 115 49 46 36 60 124 91 115 126 105 111
39 24 35 19 10 2 2 -14 -1 -9 -2 -11 -25 13 61 60 68 117 79 76 87 246 196 219 187 125 137 150 131 106 22 63 95 133 268 199 181 163 174 189 94 47 148 164 124 122 106
38 28 30 15 8 -4 9 6 11 3 9 11 9 48 60 34 111 129 102 136 276 231 176 227 156 115 77 121 219 143 58 68 45 99 102 175 193 144 213 240 236 134 113 193 174 163 167
55 34 21 18 5 -6 7 28 26 -6 -5 10 30 32 82 64 79 68 94 122 121 152 128 138 101 28 136 104 107 95 33 88 62 40 79 131 156 109 127 126 114 170 180 250 209 168 151
63 43 13 20 8 1 31 44 44 29 6 15 52 4 63 81 56 45 39 63 132 149 87 55 17 41 108 94 90 72 87 65 71 80 60 43 127 89 77 72 130 147 154 134 164 173 184
68 49 14 16 13 16 20 35 67 56 30 2 60 29 43 38 15 36 44 42 48 75 72 55 64 54 41 36 49 59 30 43 58 69 49 58 75 50 44 64 64 85 71 97 100 116 146
88 53 20 18 13 15 27 36 52 93 61 14 35 20 45 39 14 23 64 39 54 26 31 49 33 34 32 57 62 63 60 32 48 71 45 38 57 74 46 44 53 79 75 99 107 103 104
72 64 21 12 -5 14 10 32 53 70 108 -37 -8 2 30 41 18 51 29 37 63 45 46 32 23 25 39 55 61 77 58 60 49 54 54 60 47 63 74 68 70 75 74 75 99 74 81
95 84 32 6 -2 13 21 16 45 69 57 -21 15 8 -3 17 21 33 15 27 33 30 33 25 18 28 26 27 38 48 54 58 41 81 44 40 50 71 68 56 62 45 49 65 82 85 64
113 88 42 10 3 15 16 17 28 86 50 -2 23 12 -3 -7 -1 8 11 3 2 -5 1 11 13 14 19 34 45 33 42 67 46 60 75 64 57 48 45 64 66 63 41 38 62 56 54
113 109 88 54 52 19 5 11 37 102 51 4 42 14 5 9 4 2 -3 9 -8 -17 6 19 19 16 25 31 38 24 49 67 62 49 76 77 59 52 33 36 33 46 37 23 53 62 45
112 121 109 83 50 29 10 5 25 106 53 16 55 48 36 27 20 3 -10 -6 -11 -3 -0 24 27 41 33 30 35 22 39 47 39 48 56 68 33 45 18 29 19 18 19 14 9 4 9
135 105 95 73 44 53 31 16 34 88 66 4 51 58 65 17 3 10 21 8 -3 -17 -10 -33 -1 7 26 46 39 34 23 42 33 34 52 61 48 31 29 33 25 -0 26 25 45 51 24
114 85 61 39 40 48 34 22 24 70 73 18 23 65 90 6 -11 -6 13 20 27 15 1 -14 -10 -3 9 22 49 63 87 64 50 52 33 46 59 57 45 42 20 39 36 25 1 13 20
60 21 32 51 48 38 34 19 21 52 71 37 30 40 78 59 76 38 -3 13 16 15 24 20 9 16 33 32 38 37 36 39 54 56 26 35 46 45 46 34 42 20 20 33 27 47 26
38 21 31 44 29 34 35 34 21 37 42 23 30 20 52 69 74 96 99 106 48 23 41 37 53 70 51 57 41 30 29 41 32 35 77 52 43 39 37 42 39 48 60 49 44 63 96
27 24 35 37 19 41 33 56 19 10 27 7 15 19 33 62 51 65 88 103 126 129 111 106 90 86 89 65 54 50 43 63 49 47 54 71 64 31 37 42 33 29 52 61 52 73 116
26 53 51 56 34 46 29 30 52 22 19 15 20 -14 8 40 60 53 53 55 100 118 133 133 125 135 145 83 66 84 60 73 79 64 55 52 57 71 57 50 38 60 94 47 75 70 66
58 66 68 51 26 15 12 18 24 38 30 5 -19 -19 -27 6 67 37 56 37 39 68 118 150 189 136 135 121 149 130 108 101 105 67 98 64 75 73 47 54 52 12 48 66 62 53 67

GFSGBSN_con_3kmhel_045.txt.gz
Helicity
34 55 56 53 45 38 25 26 41 33 9 6 17 38 26 30 12 0 -5 -17 -5 0 26 42 51 54 34 55 219 74 173 7 93 45 86 115 71 94 97 77 129 107 139 132 248 69 73
31 53 53 48 41 39 16 13 21 14 7 29 32 28 46 26 -4 -9 -11 -17 -19 -27 13 27 28 32 36 68 95 8 230 82 68 63 60 85 90 66 121 96 122 92 171 133 135 74 61
19 50 63 54 45 27 19 26 6 1 9 37 52 35 35 32 -2 5 -7 -3 -14 9 -29 6 18 9 46 47 60 21 110 289 36 35 46 64 95 82 178 112 120 245 151 104 77 60 46
28 44 54 53 33 15 -8 19 5 7 25 41 40 31 24 78 -1 3 -11 -9 -1 13 33 13 11 24 28 20 91 -11 36 213 136 30 48 98 118 65 189 144 103 150 156 102 86 54 76
29 42 46 59 21 24 24 -18 -28 -9 29 59 44 28 18 36 -1 -19 -4 7 20 12 28 24 -14 25 100 9 82 53 37 113 92 100 90 83 138 113 141 111 92 132 108 97 74 22 55
28 37 56 43 25 19 8 -50 -65 -31 12 68 67 29 15 49 21 7 12 3 27 25 15 11 11 65 67 63 77 51 42 123 57 95 114 137 144 151 130 131 129 91 105 80 76 72 73
36 44 47 28 19 10 3 -31 -51 -32 12 50 56 40 25 71 32 25 20 24 16 -4 -15 38 33 53 98 80 64 -17 10 90 51 82 165 118 202 132 124 75 108 85 60 168 79 81 53
47 41 46 26 20 11 10 -13 -32 -43 -7 36 44 67 67 71 54 24 15 10 -16 27 49 26 52 90 141 153 74 4 63 109 131 156 112 174 138 88 59 75 118 205 112 140 122 85 81
47 42 48 22 15 7 6 -4 -13 -14 -7 18 31 50 96 95 105 47 20 1 12 27 82 55 47 153 174 117 72 27 66 75 141 90 106 143 103 125 102 119 141 120 101 114 130 71 76
51 40 45 21 10 4 -3 5 -1 -1 -9 -4 25 42 56 101 139 83 44 3 6 34 142 99 117 106 123 111 115 24 72 97 217 93 96 97 134 43 86 81 89 104 177 151 143 54 81
54 43 46 26 7 -1 -3 9 11 22 7 0 40 21 65 50 100 11 -12 7 26 65 200 38 117 72 61 115 25 30 27 49 309 262 174 119 69 89 88 59 40 146 95 118 138 162 177
66 42 46 19 -1 1 0 13 8 16 16 21 43 19 24 86 54 53 49 62 83 212 197 131 131 70 67 63 70 -56 29 90 196 253 172 219 217 184 168 137 71 68 108 114 122 145 91
81 51 45 12 3 -5 12 33 8 7 20 34 19 32 36 42 72 106 91 121 223 197 150 200 118 68 58 59 54 16 46 167 102 86 140 256 282 175 227 189 149 88 77 151 144 129 125
60 53 54 18 17 -16 3 54 48 11 20 33 24 29 82 31 40 36 35 94 125 159 110 137 69 36 73 62 68 65 -37 15 59 120 257 127 123 139 300 196 113 80 54 208 138 121 99
61 57 54 26 13 10 3 52 69 55 27 41 40 91 40 12 19 -4 56 73 89 125 101 38 -2 15 44 24 27 24 36 19 7 64 122 155 148 86 154 186 158 170 135 176 211 167 140
70 57 54 40 7 6 13 14 58 73 69 28 1 37 34 11 23 17 35 35 76 37 21 46 52 72 4 26 28 21 19 28 33 30 53 80 133 57 71 119 205 181 113 171 181 166 136
76 52 59 29 11 -5 26 7 31 68 89 10 41 27 44 31 17 28 24 19 18 46 38 38 27 38 26 21 38 41 20 12 39 51 41 60 68 80 37 58 54 107 136 123 155 164 189
77 58 60 35 8 -1 17 28 14 54 78 -19 35 18 -28 13 7 8 18 -6 24 36 47 34 17 29 17 33 39 34 31 45 37 50 66 60 69 98 67 26 69 103 87 42 84 65 95
71 72 69 51 46 19 7 31 18 44 57 10 1 18 -14 -14 14 35 5 -11 13 16 26 28 23 25 17 23 32 50 54 64 65 54 56 42 41 73 71 43 30 29 34 71 95 120 68
81 86 85 77 53 39 20 21 34 57 82 -9 21 3 19 -1 8 15 10 0 -8 -7 3 6 6 7 3 15 43 28 36 56 59 68 88 73 46 70 79 86 65 70 42 42 79 88 64
85 91 102 78 65 55 28 22 43 86 113 -2 48 33 13 -1 8 0 0 12 -9 -9 1 3 6 9 9 18 18 22 41 58 50 46 47 66 50 63 57 58 55 57 57 38 59 60 83
105 96 90 65 48 57 29 22 49 113 146 25 73 71 56 8 17 6 4 -2 4 8 9 28 23 34 25 28 30 30 17 25 33 40 28 47 48 58 38 25 24 34 27 26 16 20 10
93 87 53 52 54 40 22 16 35 87 88 51 55 48 73 49 43 -10 34 22 6 -1 4 -2 20 24 29 57 64 52 41 32 62 34 29 45 54 50 44 34 26 4 10 25 29 37 32
79 47 57 44 43 32 26 9 35 57 79 44 52 55 96 85 62 61 63 56 28 22 19 8 4 0 15 15 30 64 72 60 49 48 43 45 51 60 52 39 20 37 47 44 21 29 13
78 50 55 34 34 40 47 18 28 57 68 44 56 65 79 96 103 63 60 59 35 13 -3 25 24 19 20 19 23 29 25 29 38 35 28 27 42 46 55 41 41 19 35 37 28 32 17
64 40 47 19 39 44 53 45 36 48 59 40 48 37 54 90 91 94 86 75 61 -20 32 52 58 56 41 29 27 28 27 34 34 27 40 30 25 44 46 42 40 52 32 42 34 42 50
55 35 36 27 35 49 31 35 54 30 34 43 40 31 31 64 71 84 101 107 125 117 91 93 87 89 77 13 -21 2 36 53 37 43 44 47 47 35 39 44 37 27 44 54 64 79 131
35 46 45 25 35 21 12 20 26 30 38 23 26 6 18 47 83 54 67 77 89 91 111 117 96 113 113 -33 30 35 -26 32 44 43 50 45 57 57 50 56 34 64 78 80 79 74 93
13 43 38 15 19 4 2 -2 15 31 50 22 14 15 -15 -37 39 55 85 75 69 70 85 112 181 153 141 110 112 109 66 103 9 -14 65 71 79 69 64 56 57 16 53 104 77 58 52

GFSGBSN_con_3kmhel_048.txt.gz
Helicity
36 32 49 40 34 25 30 6 -9 -14 15 18 52 55 36 55 51 2 -3 -3 -17 -13 9 22 39 39 36 64 113 121 85 -21 55 33 94 140 90 128 145 111 177 130 143 64 125 43 106
44 35 37 41 32 22 14 -9 -42 -27 1 25 28 46 30 26 33 -5 -16 -16 -7 -3 -0 7 8 29 35 50 107 53 114 108 70 24 56 102 92 86 131 102 128 128 177 277 144 103 109
47 51 38 42 35 15 14 -9 -32 -27 18 26 40 35 -1 9 14 -7 -19 -29 4 -7 -9 -4 3 -3 23 16 79 96 99 224 66 28 33 64 114 102 163 168 82 157 203 242 242 159 56
47 54 38 41 38 9 3 -11 -15 2 27 38 39 17 -4 12 29 -6 -15 -23 -13 11 23 -7 1 10 64 54 65 196 34 265 184 43 31 42 154 103 164 178 146 171 200 163 137 100 90
53 48 49 40 34 12 16 -5 14 27 23 44 44 31 9 45 17 -6 4 -14 -0 3 30 11 -4 -7 70 25 31 95 21 206 137 45 50 83 175 220 107 156 163 136 162 168 120 133 150
62 51 49 42 29 13 13 4 20 38 45 43 63 50 11 73 28 4 6 4 -1 33 12 26 18 40 62 59 42 21 83 238 104 34 136 118 154 235 185 155 132 85 94 93 99 116 112
71 53 50 38 22 11 12 9 17 58 56 34 61 61 36 63 55 30 23 27 15 16 -0 6 46 67 173 133 44 -28 124 188 90 113 159 158 195 123 122 102 94 43 66 115 41 125 103
81 57 53 31 13 8 7 10 15 48 60 29 40 45 48 50 30 21 59 57 28 40 65 38 39 36 114 122 79 80 67 125 103 189 149 169 73 100 108 134 155 153 107 69 179 156 126
87 69 49 36 14 6 -1 5 6 30 58 29 36 28 30 50 41 -3 -5 41 30 44 71 42 53 94 79 69 59 36 52 92 88 96 92 142 103 103 82 111 168 157 161 145 180 172 155
80 76 55 37 17 3 -1 -6 -1 23 46 52 23 27 12 -4 59 37 128 17 38 65 125 99 102 80 82 58 66 93 129 100 202 83 100 120 91 81 122 76 119 186 117 137 187 157 121
80 68 47 35 13 2 -2 -4 -7 19 35 56 37 36 25 -1 30 128 112 72 48 6 148 71 105 126 69 36 25 124 132 97 226 137 164 143 101 133 120 89 119 150 196 225 232 168 243
85 54 47 32 14 3 4 1 -0 2 36 46 37 38 35 47 65 89 89 63 103 219 76 60 23 76 100 65 77 52 75 83 149 186 197 181 178 112 127 154 135 169 270 179 152 161 142
82 54 53 30 20 -0 -4 9 6 -2 44 55 28 43 70 22 1 76 56 49 191 121 96 102 142 72 32 50 32 34 25 73 128 167 138 120 203 188 99 142 146 165 184 212 187 176 127
68 65 54 34 19 5 -4 -12 -3 25 52 70 34 47 95 61 26 24 24 63 83 105 70 62 66 34 43 53 32 20 -37 124 85 159 128 91 138 193 236 229 143 127 136 218 178 116 113
44 63 47 50 24 -9 -24 -11 -5 21 59 70 45 82 64 105 100 19 75 42 7 39 46 19 30 9 -6 -2 17 31 -15 43 41 121 113 100 167 149 135 221 268 208 155 134 190 137 129
47 50 66 47 33 10 -13 3 -12 14 79 62 33 51 59 124 75 -23 23 7 5 -5 7 38 34 24 21 16 35 19 8 13 -0 41 94 93 158 99 104 237 259 197 199 144 163 145 116
57 51 59 51 35 39 11 -28 22 24 77 60 23 23 43 54 45 -28 -13 6 -39 9 5 2 22 3 7 18 18 14 15 9 24 20 59 53 73 102 92 137 122 123 163 129 190 164 154
49 60 63 60 52 37 16 -14 12 39 44 15 19 12 47 23 23 16 10 -3 -18 -4 -6 6 19 57 18 19 28 26 30 26 38 33 47 65 74 107 73 53 72 105 129 177 133 124 147
56 59 54 64 52 33 18 7 7 58 52 37 27 20 23 2 14 37 29 24 19 -8 -14 -2 5 8 10 22 36 64 52 43 56 51 61 32 58 102 92 43 22 57 44 135 123 115 69
62 47 52 52 53 31 26 8 15 82 46 26 39 47 28 15 16 17 13 16 22 19 9 7 6 -5 -3 15 39 31 41 49 75 65 68 80 69 77 100 89 69 65 44 47 110 117 78
89 64 60 53 61 40 38 14 11 95 98 25 57 69 54 38 34 17 15 31 11 1 6 23 16 3 -4 16 15 14 61 45 45 48 46 75 61 69 67 58 65 71 66 69 95 98 103
87 73 51 68 61 49 40 20 14 58 139 44 70 69 77 47 33 15 24 7 21 20 22 20 30 26 34 40 41 37 30 17 26 49 38 60 48 65 54 46 49 45 56 50 57 65 57
71 60 79 83 70 51 45 28 17 47 57 77 56 40 66 75 78 68 74 54 36 15 14 6 47 22 23 83 90 74 63 47 53 38 31 44 58 59 49 79 41 14 41 81 100 106 75
75 85 82 86 65 47 41 45 25 43 57 30 64 54 79 124 120 136 73 68 79 48 36 20 23 22 21 13 20 40 55 79 66 53 52 50 63 63 53 59 38 17 45 49 84 66 78
88 75 76 64 54 51 45 53 57 44 54 32 49 70 83 99 133 167 148 90 84 51 36 43 38 28 8 13 20 23 25 27 25 40 32 34 76 44 40 35 23 14 45 40 41 37 37
68 63 50 31 35 43 41 37 30 26 24 26 44 39 45 95 106 106 113 105 112 125 58 38 46 54 41 26 30 31 22 4 37 30 29 34 49 56 57 39 32 34 23 39 54 38 42
50 40 35 33 29 29 23 23 28 26 26 7 38 34 27 51 76 102 94 135 137 146 91 61 46 65 71 -30 -29 18 43 42 34 35 44 55 56 54 43 49 24 34 25 43 60 36 110
41 25 38 33 26 21 6 17 21 21 23 11 41 34 32 36 29 47 67 98 131 152 145 151 86 76 93 44 22 10 -45 -20 34 53 67 55 60 70 69 65 34 86 83 67 61 75 86
34 30 41 28 27 21 21 22 57 45 31 42 39 51 50 20 35 34 58 67 82 97 108 154 155 144 160 104 105 91 75 70 72 33 115 23 75 78 65 44 36 25 45 100 87 54 60

GFSGBSN_con_3kmhel_054.txt.gz
Helicity
48 47 41 44 30 33 21 25 18 22 18 32 40 44 51 30 39 41 17 17 -8 -0 2 -0 7 26 32 12 57 124 255 258 71 60 29 148 199 199 230 220 198 210 65 133 134 114 65
53 52 50 49 40 35 21 27 25 36 37 34 36 42 86 58 59 44 18 -7 -3 2 -0 -22 -9 24 27 42 46 97 239 155 73 6 52 110 146 186 196 194 168 116 160 154 145 107 79
60 51 57 49 41 16 28 30 27 43 44 37 25 28 79 60 39 32 -9 -2 5 11 -1 -10 -24 -14 30 49 21 139 341 196 174 97 106 92 121 150 193 172 169 89 169 149 108 79 85
68 63 72 47 36 25 7 29 27 34 44 32 21 26 54 33 8 26 -1 -9 -1 9 31 13 -15 6 53 90 25 119 171 195 165 111 75 64 96 102 182 146 178 158 167 161 133 81 81
76 72 75 45 27 27 13 11 33 38 42 34 37 21 13 32 -0 16 18 -4 -2 11 26 8 -3 7 93 94 27 216 126 159 170 147 79 110 117 112 198 195 267 242 186 166 132 91 160
77 76 58 50 34 28 19 15 18 24 49 45 36 14 15 1 -9 2 1 13 24 8 17 28 8 60 85 108 89 82 115 123 153 137 121 154 172 153 173 205 207 175 204 191 173 139 180
76 73 58 53 39 22 26 18 21 19 27 47 32 35 15 13 -15 -50 7 35 40 32 34 57 61 105 125 125 51 30 30 220 144 102 145 117 179 98 142 153 197 235 210 177 165 175 138
78 70 58 53 38 27 18 16 20 28 23 34 38 31 28 26 1 -19 30 61 76 55 49 71 145 95 92 75 54 -4 41 216 124 230 239 189 84 129 159 200 130 118 129 130 124 108 95
79 71 61 62 39 26 20 16 17 18 28 25 33 31 23 41 44 37 37 49 49 66 72 84 77 81 60 52 40 49 103 96 58 217 107 99 83 116 103 108 131 153 128 123 144 162 151
76 69 64 54 32 29 19 15 26 20 25 16 31 25 25 43 114 92 65 38 35 47 94 67 53 54 67 82 42 8 144 97 216 234 172 178 75 75 73 78 95 140 110 139 102 130 122
74 67 66 49 40 30 18 19 19 19 16 13 17 19 49 70 71 119 71 39 45 20 72 88 43 85 86 54 72 75 83 111 234 219 163 128 117 77 70 60 88 104 120 141 173 199 144
74 67 71 58 41 23 17 17 2 3 10 9 7 16 65 81 59 58 51 23 32 58 65 159 143 59 73 55 91 110 141 156 257 209 182 198 207 170 80 84 109 107 169 254 242 214 150
74 65 57 47 47 37 25 10 10 -4 -10 3 10 12 71 65 53 63 36 21 43 -1 42 78 85 75 30 77 91 99 81 148 88 81 116 157 181 133 104 121 144 147 232 224 193 197 82
70 61 45 47 38 41 32 -0 12 5 -7 1 8 43 44 26 28 29 15 31 41 -9 -8 39 50 89 51 87 109 46 76 94 99 78 116 93 89 68 86 117 111 166 241 187 144 134 109
67 56 50 38 33 35 32 7 -3 7 12 -10 9 46 31 11 18 4 13 8 56 51 34 39 35 58 32 1 19 39 69 46 41 36 70 92 84 108 118 106 116 157 121 151 138 108 99
75 53 51 46 36 30 27 8 -4 1 23 -8 47 45 19 40 33 16 14 3 5 -4 10 40 46 42 -0 5 5 -4 11 43 54 54 83 60 87 69 81 111 129 158 224 183 235 149 79
75 65 62 49 32 25 19 9 -9 -5 12 7 58 66 25 41 17 31 38 15 -10 -55 -39 8 27 24 22 22 16 -1 18 40 23 36 44 69 75 80 81 93 85 122 164 226 291 230 137
78 75 65 38 30 29 25 10 -15 -8 21 49 73 93 24 32 13 42 50 20 12 -3 -9 -24 -16 24 28 30 29 32 33 31 3 34 67 57 73 72 111 67 77 111 120 218 209 233 226
87 76 54 29 28 29 19 -1 -10 -14 3 69 97 98 23 21 18 20 38 36 29 22 9 10 7 24 39 43 29 37 32 45 54 23 28 42 87 116 101 113 130 100 154 162 259 287 231
93 74 41 32 29 25 7 -5 -0 2 5 68 85 107 72 30 22 23 50 47 46 42 35 28 22 34 50 50 49 41 40 45 48 49 52 65 59 52 43 37 72 110 114 138 175 145 156
95 65 47 31 25 20 -2 -1 7 13 30 59 62 86 64 52 19 11 35 45 51 39 41 41 46 25 44 29 34 38 56 60 75 77 71 65 41 72 52 54 60 59 81 95 140 141 95
81 62 48 29 15 11 -2 1 15 52 34 77 96 76 69 55 24 14 55 37 42 49 37 55 53 69 42 29 16 20 48 37 45 71 77 92 50 57 56 60 58 50 50 81 113 77 25
75 60 45 17 17 15 4 6 20 43 25 39 35 43 92 106 102 63 100 95 68 54 38 27 54 87 83 55 54 45 37 29 32 43 62 69 62 64 27 77 68 7 45 100 120 136 120
84 58 37 26 19 12 15 22 33 43 36 -2 35 46 70 68 150 102 109 109 94 82 55 44 33 40 59 77 58 62 77 63 52 47 60 65 80 74 39 79 47 41 65 76 97 102 121
87 35 37 33 28 32 6 12 27 35 53 40 41 52 62 49 94 67 95 87 88 79 65 46 41 35 40 52 53 50 62 70 50 49 59 65 63 64 65 49 -15 -4 48 54 51 17 54
59 29 42 37 47 26 16 11 17 48 61 50 47 45 61 48 69 49 52 101 96 112 121 96 84 77 61 53 39 25 22 27 37 39 87 69 68 82 43 30 17 42 85 56 24 25 45
27 41 40 34 24 21 18 26 34 48 62 60 49 78 84 55 58 60 54 70 108 138 126 122 131 121 96 85 69 54 51 42 43 38 48 69 72 67 30 31 31 21 17 31 52 20 39
31 34 30 34 28 26 20 22 28 26 46 69 48 52 87 81 67 87 70 69 82 106 142 169 150 130 129 115 95 70 64 55 63 49 50 55 50 52 50 46 31 18 49 40 19 21 28
32 21 23 41 38 27 22 22 29 33 59 43 66 52 67 72 75 59 55 38 41 70 112 114 210 159 151 124 108 84 63 57 48 19 90 63 75 39 55 27 20 9 15 16 37 28 24

GFSGBSN_con_3kmhel_057.txt.gz
Helicity
56 63 61 50 36 19 16 7 17 21 37 39 46 36 68 68 63 47 42 22 -1 2 -6 -14 -1 11 34 49 58 38 364 159 171 101 91 149 207 166 166 198 221 104 52 91 169 79 47
59 58 68 49 39 26 7 7 11 13 37 43 46 42 64 61 51 29 4 -2 -6 6 24 -26 -9 4 23 48 22 25 177 170 77 44 77 119 143 166 177 160 198 147 66 148 98 85 110
64 60 62 50 33 30 23 10 17 11 30 44 41 44 49 62 35 14 -2 4 6 9 19 25 14 1 15 85 10 -13 235 221 1 67 35 91 123 180 200 197 210 195 176 161 153 125 115
68 60 56 48 39 26 31 22 17 16 29 41 47 31 28 58 51 26 4 -2 5 14 36 15 15 15 16 5 -43 22 356 207 82 52 71 72 115 178 217 189 217 203 154 133 86 102 136
74 68 59 52 41 25 29 22 24 23 14 48 49 35 15 31 44 18 7 -7 2 1 10 0 8 -13 48 -5 -41 115 379 195 179 102 72 39 103 171 233 153 281 209 131 117 92 45 113
81 77 65 62 42 39 33 23 24 26 28 25 47 38 11 13 19 12 -10 -15 6 0 25 27 19 36 38 46 21 47 160 164 192 83 75 82 137 161 195 155 167 228 193 164 155 107 138
81 89 75 68 41 34 42 30 20 21 25 34 37 46 20 3 -1 14 13 20 11 27 50 34 58 62 89 69 43 72 217 198 212 183 151 125 172 103 146 161 144 152 170 172 183 145 166
86 86 82 72 40 37 36 35 13 14 22 26 30 34 30 8 13 -13 40 50 7 11 15 76 81 79 68 60 100 74 157 148 186 103 148 139 72 111 115 129 110 104 123 109 141 129 101
95 79 82 70 57 40 34 29 20 16 18 34 18 25 45 18 26 39 58 71 26 26 12 33 50 38 51 49 43 74 115 83 54 93 64 134 70 82 122 165 137 117 131 133 89 149 158
103 77 76 73 55 46 34 32 23 9 6 10 5 5 43 49 60 70 55 27 8 27 36 1 46 17 33 6 52 -55 13 99 121 143 103 186 141 93 107 113 122 119 83 99 99 153 110
108 78 74 60 48 36 38 25 19 4 -14 -14 -25 -3 38 86 68 79 59 32 5 15 6 67 75 64 61 36 23 47 93 111 108 199 225 221 112 105 100 87 114 126 108 87 104 123 112
112 79 74 60 47 34 33 25 16 -7 -12 -26 -28 -8 48 76 40 30 58 45 18 36 -5 12 40 69 35 38 23 49 123 155 324 356 270 229 201 169 114 114 85 56 112 156 155 146 106
112 77 73 54 40 29 27 23 15 -4 -13 -30 -46 -3 56 55 26 41 39 46 64 68 8 32 -5 38 -3 23 54 44 90 273 305 318 240 225 216 149 135 126 122 98 129 158 153 145 67
105 81 74 56 38 32 32 26 9 0 -12 -21 -26 49 29 27 20 36 19 47 51 43 23 18 16 -14 37 62 47 34 90 132 271 131 191 106 92 115 157 103 62 109 99 125 99 85 60
112 86 78 69 44 28 24 19 7 -3 2 -20 13 46 34 15 32 26 34 23 54 40 8 10 -15 -26 2 20 41 58 34 67 75 94 65 69 74 137 141 147 127 105 132 123 132 132 132
117 84 79 67 41 16 19 19 -6 -9 -2 -10 62 80 38 8 26 24 27 11 38 17 -3 -15 -2 -22 -9 26 35 47 60 40 58 46 72 69 76 93 82 94 114 124 183 199 212 140 102
117 91 84 62 32 21 28 10 -25 -13 -10 14 69 116 45 0 1 -7 25 15 30 -9 -22 -2 0 -13 -30 -16 51 25 -1 58 72 70 79 75 98 101 99 103 110 146 162 153 136 206 97
114 98 85 59 29 14 25 0 -29 -22 -22 51 80 118 57 11 13 16 26 44 31 22 3 9 -11 30 3 3 -18 15 25 60 39 118 90 109 89 90 79 108 102 74 88 110 142 176 188
106 108 77 56 23 13 18 5 -16 -27 -16 58 78 112 68 32 62 22 14 24 42 44 28 28 27 28 46 33 31 32 41 59 35 59 80 85 70 118 87 71 85 92 101 107 145 205 170
107 99 81 54 26 19 14 9 -6 -17 4 62 86 127 109 91 66 18 23 5 26 55 49 39 39 36 45 50 79 47 55 38 35 26 1 42 61 54 67 68 112 141 128 80 127 133 188
106 92 85 50 32 14 11 18 29 19 12 55 62 85 69 121 75 30 8 0 -3 48 58 50 47 44 54 47 56 51 64 63 78 70 80 64 40 54 42 45 62 56 64 87 86 175 154
95 88 72 53 30 19 14 33 65 75 30 48 93 71 53 100 69 60 30 -1 -14 39 48 50 48 70 42 42 30 34 50 57 75 104 95 91 39 38 65 89 61 50 49 60 69 46 8
97 82 72 46 33 30 47 60 58 82 25 26 18 30 48 73 88 78 72 11 -15 44 48 49 54 64 58 52 51 44 46 52 42 61 103 93 59 47 5 34 46 38 46 134 162 151 120
89 68 74 37 42 35 55 54 46 46 32 9 0 29 54 69 88 107 73 25 -25 43 52 76 66 66 83 79 65 67 89 81 63 72 77 82 103 79 19 37 23 23 77 56 47 37 144
68 68 63 45 45 40 55 59 52 34 26 14 7 24 42 66 56 80 75 43 -6 59 55 54 61 57 80 84 71 54 70 67 63 58 65 76 85 75 56 37 -8 -20 40 41 21 22 42
57 63 53 42 38 43 54 64 55 33 25 32 15 30 44 77 43 77 78 75 51 36 110 84 70 81 68 50 55 16 17 31 53 66 100 100 113 99 66 24 20 25 60 53 41 17 26
53 57 44 37 37 46 50 52 45 26 15 37 28 39 49 54 66 89 82 60 31 102 107 104 131 115 80 67 54 36 27 29 28 31 51 81 100 89 66 43 29 27 24 19 64 33 42
56 53 36 29 35 42 58 52 41 35 39 47 32 43 57 66 70 72 58 35 19 75 107 148 121 104 124 94 63 58 43 47 53 55 52 61 56 66 66 54 34 24 42 46 19 22 15
52 37 24 30 38 40 42 41 44 54 55 57 56 42 49 64 69 43 41 15 11 36 74 137 142 150 222 125 108 82 81 70 59 59 89 59 56 32 52 30 17 16 20 16 22 32 26

GFSGBSN_con_3kmhel_060.txt.gz
Helicity
50 63 58 53 32 24 24 21 23 28 34 31 52 48 41 58 72 50 19 4 -8 0 11 -5 -1 -2 29 57 59 49 134 195 140 89 105 150 158 213 220 195 215 223 153 122 127 128 83
56 69 62 63 38 18 27 27 24 31 37 26 34 34 29 51 54 49 18 1 -9 -3 22 19 3 7 15 35 41 46 40 195 138 93 80 146 136 159 192 163 181 145 242 149 179 202 188
59 71 66 72 54 27 21 29 24 23 33 36 31 21 27 36 49 51 37 14 5 -6 -3 -3 9 17 9 15 24 18 55 83 122 257 43 110 182 152 194 185 193 172 215 166 74 89 114
68 80 78 76 65 31 30 23 30 28 28 22 31 19 13 26 39 41 34 16 10 3 -6 11 5 40 -25 -23 -46 11 54 145 118 105 68 74 152 149 196 169 272 186 183 144 89 119 120
75 82 87 80 62 36 41 35 28 29 34 42 25 20 6 9 11 25 23 9 4 4 7 4 5 -9 15 -26 -56 17 216 182 93 86 67 91 149 147 187 181 258 200 156 195 113 40 126
86 92 96 83 65 36 39 49 23 22 19 29 28 13 6 1 -8 5 13 9 25 24 39 25 50 42 35 38 9 45 281 187 128 115 171 148 199 167 198 202 148 190 194 223 163 58 109
104 101 98 89 69 53 43 32 32 23 13 23 33 25 0 -1 -8 -21 12 41 27 28 51 83 104 68 19 -3 -2 208 137 190 125 41 222 243 283 163 198 191 119 190 172 128 126 62 144
123 102 100 88 82 53 46 41 40 35 22 20 36 30 9 5 3 -15 39 73 53 52 29 72 41 46 39 18 41 162 204 126 126 88 54 235 154 211 139 152 151 154 162 111 116 105 86
138 102 96 88 83 54 48 37 40 41 20 7 18 15 8 19 13 36 62 75 44 55 45 55 35 10 9 13 44 118 126 100 53 100 61 151 94 101 129 142 140 149 123 124 85 128 124
133 103 90 78 67 63 52 48 41 29 23 23 2 14 13 34 47 58 63 59 13 19 59 16 39 52 14 22 69 105 133 103 48 119 125 109 94 97 130 143 111 102 85 115 89 118 105
132 98 81 79 61 64 46 43 43 31 23 18 -11 4 10 72 69 58 53 57 22 18 9 37 61 52 97 80 111 43 85 79 54 102 106 71 92 115 130 109 106 103 110 114 101 118 126
136 95 75 75 59 50 45 39 34 24 17 9 -15 -1 33 67 64 32 54 37 37 40 47 -25 77 44 60 64 30 24 67 74 94 50 130 140 178 145 122 139 114 45 129 150 104 106 62
136 102 80 77 60 48 42 36 28 16 1 -3 -9 10 60 50 39 60 40 58 43 74 10 3 -9 20 27 40 39 51 72 145 104 118 153 150 164 197 162 142 125 137 150 159 125 125 69
139 107 89 84 70 52 39 27 29 8 -4 7 21 84 40 25 37 54 34 43 52 34 51 19 -15 14 -16 14 -29 110 98 176 167 164 351 131 109 164 210 134 97 124 126 131 115 85 42
146 118 97 96 78 56 35 24 26 7 -2 21 76 79 57 15 31 34 33 25 54 40 14 16 -11 38 23 -4 -7 -22 135 291 260 235 133 115 119 172 162 172 148 124 107 107 94 85 71
141 131 102 97 79 55 30 21 17 10 8 51 92 102 74 14 25 21 24 11 30 24 -2 -21 -6 7 -20 -24 -8 -12 17 131 97 140 115 89 71 141 122 133 194 124 154 137 153 62 42
146 131 105 92 77 49 26 16 14 7 16 81 87 119 59 34 28 20 24 16 27 29 16 -35 -46 -11 -7 3 13 38 27 61 57 63 62 78 80 99 133 97 115 168 166 192 147 144 112
153 136 100 96 75 48 20 15 8 1 19 85 88 125 66 52 67 15 23 31 35 24 22 24 34 19 1 20 29 41 33 45 27 57 72 80 80 65 112 101 102 79 110 148 158 151 146
153 135 103 98 73 40 18 11 0 -7 17 68 143 119 67 57 122 70 9 34 14 12 34 33 46 48 64 50 38 39 41 63 45 99 76 79 106 134 109 100 86 90 98 131 173 142 84
155 136 107 96 78 35 28 9 1 7 41 60 164 220 89 73 61 43 28 14 17 19 56 41 55 56 66 68 60 26 36 48 38 76 110 133 100 96 73 78 91 93 81 106 131 30 58
164 138 98 91 78 48 40 25 22 34 38 48 140 160 102 137 80 41 28 14 3 -11 65 57 60 48 55 64 75 40 45 59 71 32 74 62 70 75 80 82 71 91 93 110 143 110 87
155 128 96 93 91 72 62 46 57 25 44 77 178 175 64 66 58 63 43 45 -15 -3 13 72 58 63 43 47 45 29 61 71 56 80 71 81 64 68 67 72 47 44 36 60 58 53 42
146 128 105 96 97 93 87 79 63 55 45 93 58 49 82 69 67 88 64 31 17 1 30 68 61 64 52 58 47 40 31 43 38 85 102 94 99 83 33 68 56 48 90 153 167 149 124
141 124 111 99 97 100 85 77 77 73 78 54 59 71 104 158 133 86 50 39 30 5 -8 59 70 75 82 78 55 75 94 76 71 78 92 99 121 100 43 48 50 41 60 59 55 53 105
128 130 112 97 101 104 79 68 56 60 65 29 40 70 85 171 71 69 53 46 48 19 -5 44 58 54 72 89 92 83 95 78 65 58 67 81 97 81 65 54 30 35 37 57 46 41 35
129 114 106 107 95 85 82 70 48 59 56 36 45 35 63 121 101 49 49 28 18 20 -23 60 53 72 58 66 74 57 48 51 58 76 101 93 95 96 85 58 20 25 39 26 43 43 64
131 113 108 98 85 69 56 57 44 45 56 49 50 42 71 116 64 57 75 54 3 9 16 48 108 105 91 75 59 48 53 42 37 27 42 78 93 88 81 59 31 26 20 21 65 38 41
129 108 97 86 69 67 58 50 51 61 65 58 51 56 99 113 75 55 33 24 -8 10 40 32 97 111 128 89 58 46 46 36 44 48 31 40 42 47 59 42 37 19 24 35 24 33 24
118 88 80 71 54 49 40 45 60 71 54 46 65 47 44 75 71 51 38 28 21 12 8 20 92 131 156 123 119 84 69 61 50 52 59 51 40 25 35 24 6 21 3 12 32 29 16

GFSGBSN_con_3kmhel_063.txt.gz
Helicity
36 45 61 67 58 38 29 30 33 20 30 45 32 43 52 37 40 52 31 26 21 18 22 23 23 8 5 33 64 42 107 67 75 122 163 160 174 228 274 233 261 184 138 170 181 91 133
42 49 71 70 61 49 40 34 30 25 20 36 41 35 42 29 38 47 41 24 26 31 28 26 36 18 8 19 35 52 50 68 74 91 126 168 157 208 245 212 243 183 179 194 133 126 154
63 58 77 80 66 64 39 39 43 29 28 35 39 35 40 25 26 36 42 30 17 21 24 28 24 36 31 -24 17 47 53 68 36 50 102 156 161 171 234 194 231 169 219 203 170 123 101
83 66 83 96 64 68 50 45 49 40 33 36 47 47 35 25 23 20 28 24 17 21 12 28 44 44 4 -20 1 20 53 62 52 42 101 44 190 145 222 198 264 192 183 126 139 95 100
102 97 93 99 75 69 64 45 48 40 49 26 50 45 36 26 5 1 16 8 8 33 30 29 44 29 49 7 10 12 29 73 91 47 96 52 174 158 178 183 254 213 153 178 119 92 95
146 116 102 91 81 73 68 51 51 56 56 39 32 45 34 37 7 -13 -14 -5 27 40 47 27 34 42 78 77 30 21 109 120 127 71 50 105 179 159 184 178 160 200 196 159 141 135 111
159 116 116 92 82 73 71 57 53 58 52 50 26 42 34 28 27 4 3 36 48 46 72 66 77 54 79 82 62 255 138 153 82 128 98 63 187 179 173 181 136 191 173 135 128 86 120
154 121 121 103 85 77 62 65 49 48 56 50 39 28 30 25 51 32 44 71 74 70 36 92 91 28 68 90 93 144 213 141 114 44 92 152 178 168 110 139 136 148 157 161 155 85 85
139 113 123 108 87 70 65 68 59 48 51 51 39 22 21 20 64 76 73 58 34 40 87 31 54 53 12 31 88 133 170 190 60 41 106 152 173 154 142 188 177 160 130 134 95 119 93
154 120 126 103 88 68 63 57 55 52 46 46 36 21 18 35 88 76 83 61 36 24 47 34 34 60 45 33 106 140 102 128 109 54 84 126 186 144 142 150 164 143 109 119 111 144 95
148 131 137 101 85 73 71 63 58 48 42 41 26 15 24 57 88 82 70 62 37 20 -23 13 50 85 66 43 69 142 94 3 153 38 142 199 147 172 162 118 106 118 94 127 136 144 125
147 149 143 103 75 68 69 63 53 51 36 28 22 23 48 78 60 56 70 45 23 39 18 -17 40 47 22 28 44 66 77 52 45 171 125 119 153 146 141 163 108 53 160 197 149 125 38
167 167 145 109 74 69 66 58 52 48 27 15 19 57 82 58 53 61 58 55 76 73 1 2 1 30 8 11 46 62 58 39 70 61 108 101 158 142 163 165 176 148 170 194 146 115 36
192 179 148 121 81 70 63 53 41 28 17 11 53 112 79 57 35 50 41 39 71 50 54 5 -9 -3 18 -18 61 63 64 62 66 81 148 102 91 120 158 121 101 165 143 128 85 75 42
208 182 158 125 86 75 61 48 34 19 14 17 95 89 85 49 36 26 40 39 41 38 22 3 10 15 20 -8 2 86 77 83 89 108 76 112 92 146 135 126 126 117 129 136 97 82 41
224 198 163 122 87 80 63 47 25 13 10 41 73 96 83 40 31 28 31 23 24 22 23 -9 2 -41 -41 4 -29 71 84 111 139 153 93 88 97 167 126 175 198 117 129 131 140 61 41
226 199 161 114 94 80 68 44 21 9 8 69 69 146 70 45 58 36 87 21 16 24 31 23 18 -13 -20 9 29 12 46 103 121 138 86 107 92 120 128 106 108 167 158 167 112 95 21
182 191 152 107 96 85 75 42 12 10 32 64 79 183 76 55 133 93 75 18 27 19 13 21 29 55 13 11 20 44 11 91 55 35 69 79 53 71 102 125 117 119 97 119 97 84 143
193 185 145 120 92 93 80 34 10 4 29 71 199 180 80 55 191 147 31 9 25 20 4 10 31 36 45 36 51 47 45 66 31 65 43 43 62 43 69 77 121 111 103 109 138 154 134
213 177 145 128 97 97 93 47 15 5 57 72 179 219 133 89 74 100 83 50 17 8 1 21 43 48 64 59 46 47 44 59 32 84 95 87 84 57 36 56 102 125 85 66 87 137 125
221 166 142 129 101 100 102 72 35 42 58 58 163 173 136 179 141 87 46 66 36 -1 1 37 43 58 59 57 60 35 34 49 65 59 96 109 97 110 103 109 92 79 77 51 53 61 134
163 190 145 146 117 113 110 99 71 58 72 107 199 168 116 131 108 147 111 101 42 5 4 2 46 65 52 53 51 15 40 33 32 61 60 68 83 98 110 88 81 76 66 68 34 31 19
179 151 172 170 108 114 123 127 104 79 63 146 79 73 128 131 138 187 139 85 55 8 5 10 53 79 84 75 62 49 29 32 13 42 79 58 64 67 53 49 30 15 23 110 156 147 118
181 177 188 155 105 126 123 139 125 105 67 84 64 96 135 160 157 178 99 47 47 15 25 -4 39 60 83 81 73 81 93 77 65 76 69 69 79 68 20 45 37 22 46 47 39 47 104
158 161 148 130 107 124 118 121 121 109 78 68 48 89 115 169 153 133 88 69 23 11 4 -14 7 47 70 87 117 117 116 84 73 58 59 74 93 76 68 74 35 18 30 31 27 57 42
158 151 134 126 105 121 121 91 88 70 62 46 50 49 84 158 129 88 83 68 87 36 24 -11 5 58 48 62 77 65 62 53 57 82 96 98 101 93 77 66 50 19 26 24 36 68 59
179 176 119 116 114 113 99 76 79 67 52 48 64 60 95 141 95 77 81 72 41 28 17 3 -38 -20 81 68 62 58 63 59 67 51 48 92 102 85 71 58 35 36 25 35 69 49 42
158 169 105 115 111 103 93 83 81 72 51 45 55 77 83 118 105 62 29 35 29 -3 12 -0 -2 -37 45 68 65 41 45 40 57 51 39 46 50 54 75 67 47 31 41 43 39 42 23
132 128 120 112 108 101 75 74 85 64 47 31 42 29 61 76 88 46 36 4 -7 -8 -3 6 29 5 20 98 114 84 71 65 55 49 54 55 37 33 27 20 17 29 28 21 13 10 13

GFSGBSN_con_3kmhel_066.txt.gz
Helicity
23 31 54 57 61 63 55 56 59 45 31 25 29 44 55 71 55 50 69 62 52 39 27 23 21 18 -18 2 35 40 76 86 4 115 214 138 121 188 178 165 98 250 163 215 123 101 132
34 60 68 75 73 67 57 66 68 51 41 26 30 41 50 56 46 47 58 56 50 40 22 27 24 13 18 -3 25 50 44 5 5 137 262 186 168 206 171 125 110 93 140 71 126 88 130
52 66 94 68 67 72 69 76 62 47 43 34 34 42 52 43 26 35 44 38 34 30 21 9 22 16 8 -3 20 42 28 18 5 91 300 219 273 203 179 116 191 109 91 69 139 66 93
69 90 113 115 70 77 79 82 77 52 62 49 34 40 51 28 17 16 21 21 19 19 27 11 10 14 -2 -24 12 26 41 34 39 -14 85 187 205 207 215 169 181 116 69 59 52 51 116
104 105 127 117 87 81 92 77 70 61 63 57 37 37 40 32 4 -4 -10 0 -8 25 44 45 32 17 42 -42 -28 15 35 59 36 49 -11 178 240 200 220 121 149 132 63 76 46 69 88
147 119 146 129 100 87 89 91 83 58 72 62 36 42 27 29 11 -3 -16 -7 19 34 62 44 56 49 76 8 -11 7 55 63 13 57 31 90 191 160 144 134 159 111 119 86 58 102 81
175 147 102 119 102 86 96 94 91 70 73 55 36 41 25 27 5 16 18 44 72 77 54 29 38 79 103 244 53 -7 63 99 82 116 98 108 157 105 141 101 177 76 133 97 92 62 60
175 164 95 124 94 83 96 105 94 68 73 59 36 28 21 20 7 37 37 103 78 56 82 67 50 68 83 79 59 14 86 118 114 176 15 56 115 108 112 125 102 71 68 68 91 61 48
195 169 156 140 90 86 94 102 89 68 70 57 32 23 21 23 38 57 51 86 62 36 61 93 58 46 10 35 99 181 137 44 86 96 127 135 112 72 93 121 91 88 64 64 71 92 76
205 177 139 108 93 97 97 102 87 71 61 43 30 13 13 31 58 62 55 68 41 10 15 45 46 11 51 117 142 130 201 161 132 48 86 72 68 108 95 110 62 91 95 83 81 74 66
216 175 151 122 103 111 95 104 87 66 58 36 23 5 17 36 60 51 53 53 28 14 40 -4 21 44 53 56 94 74 77 89 48 51 112 89 67 90 53 93 137 130 69 59 83 82 78
212 173 143 106 104 113 94 99 78 63 50 24 13 8 35 73 52 36 57 41 26 40 61 1 17 50 55 29 85 56 49 85 167 128 111 77 136 126 120 79 103 60 109 148 112 90 37
197 177 158 114 105 110 94 90 74 60 38 19 9 47 75 54 55 54 47 46 43 34 19 17 17 27 39 33 63 68 100 105 60 73 95 93 154 196 173 112 81 85 73 147 99 84 61
214 171 176 135 115 111 94 87 72 63 42 28 50 99 75 51 35 45 34 31 48 33 51 -21 -3 3 35 48 58 6 73 76 88 148 120 100 137 115 95 132 126 87 92 131 97 85 34
235 194 171 157 132 118 100 89 74 65 54 48 95 88 87 50 35 17 24 89 43 4 16 -3 -21 6 9 45 62 38 29 15 23 67 94 99 85 128 131 126 128 111 111 149 106 76 48
254 215 174 162 149 124 108 88 77 63 50 82 92 94 95 41 26 31 58 113 15 -1 -30 0 -23 -20 0 27 64 65 22 24 32 64 82 54 75 115 115 137 110 111 86 83 108 32 25
299 236 194 167 169 126 108 90 80 64 64 103 122 133 90 42 41 60 148 110 15 17 -2 -26 -33 -47 -21 17 64 79 56 54 90 67 68 67 63 76 90 80 53 78 93 110 102 98 79
307 296 178 144 158 130 99 89 78 76 111 124 153 158 91 66 111 88 124 81 10 19 12 -13 14 41 -8 16 33 56 59 90 111 122 64 71 69 87 98 117 135 70 43 44 53 32 77
318 221 210 143 154 131 90 88 81 75 83 155 168 178 72 51 183 170 79 48 12 16 3 -4 -1 35 53 23 45 39 47 43 75 104 94 77 85 86 79 73 89 81 60 69 103 127 46
311 231 181 139 155 123 86 87 86 65 88 128 151 160 133 86 72 120 123 110 95 3 -2 -3 8 31 44 49 72 48 36 50 49 59 60 69 60 50 25 53 48 63 73 62 71 91 78
298 185 162 143 155 120 90 84 99 83 116 104 137 144 136 162 134 103 85 103 118 60 -2 -5 -7 14 33 47 56 52 57 57 56 54 80 85 61 75 72 69 44 44 18 52 89 95 93
232 235 183 165 152 113 91 101 120 104 126 110 133 145 137 131 118 133 108 136 126 70 7 -3 -8 4 42 44 57 30 42 33 29 35 74 84 84 90 79 82 61 49 39 47 22 33 39
275 228 200 140 119 111 113 115 124 111 91 116 97 78 108 132 118 138 130 151 136 40 5 -22 -21 -10 20 66 64 60 35 40 33 36 63 54 83 84 85 95 66 42 34 47 71 60 46
310 236 216 128 128 129 122 145 123 90 61 81 74 92 115 140 106 111 91 107 119 58 33 -12 -22 -23 61 80 79 77 71 69 63 83 70 58 69 83 77 50 42 62 50 58 32 36 19
323 239 174 112 141 124 138 147 134 114 74 61 75 69 104 137 111 111 90 94 69 44 21 -1 -27 -36 67 72 79 66 74 58 65 71 61 66 69 79 77 72 80 44 38 32 38 64 39
303 176 145 131 123 133 142 136 124 135 100 85 79 41 79 135 112 74 63 67 114 96 32 -1 -43 -42 -8 46 76 68 73 74 51 58 91 69 71 73 78 91 99 84 51 32 28 67 77
284 204 224 114 109 131 135 117 102 78 68 63 74 52 83 141 102 70 61 71 64 86 29 -4 -39 -47 -35 -10 -1 47 58 79 63 59 55 95 102 63 64 72 75 44 40 39 56 122 81
290 248 210 134 102 114 131 108 98 84 77 54 78 50 66 104 119 58 34 44 54 65 60 -14 0 -72 -35 -9 -7 13 42 48 53 65 65 61 69 73 73 69 64 68 89 75 88 71 48
345 250 145 149 71 105 120 116 88 63 70 46 62 55 87 71 97 53 58 29 18 16 25 1 -4 -32 -64 -18 37 40 59 47 51 60 49 47 58 49 29 52 63 59 68 50 42 41 29

GFSGBSN_con_3kmhel_069.txt.gz
Helicity
92 89 65 65 72 59 77 73 86 65 50 48 51 46 39 36 35 41 34 46 46 51 40 22 -1 -13 3 12 10 25 35 29 33 9 123 180 128 142 132 82 73 197 118 135 96 118 202
87 124 112 79 87 77 77 78 76 74 60 52 46 54 47 39 24 28 27 36 28 28 28 10 -5 -11 -2 3 39 33 36 3 -52 34 103 157 147 140 117 65 94 165 243 207 54 89 132
109 134 124 98 95 89 88 91 72 73 67 60 47 51 42 35 25 12 13 21 14 15 16 11 2 -3 -4 -6 29 40 50 -1 -30 52 147 139 250 215 187 87 94 9 202 264 252 76 215
146 130 132 108 105 83 101 100 75 73 73 69 46 42 46 29 19 4 -6 -5 3 15 25 31 26 11 -6 -37 -34 8 49 -16 -56 48 162 197 258 330 172 131 126 56 78 141 134 73 151
214 112 120 139 105 71 105 95 79 82 70 72 52 40 41 21 14 3 -6 -15 -17 1 56 38 36 24 26 -35 -51 41 25 20 -58 -50 79 213 173 270 274 119 151 93 78 69 73 200 136
216 141 146 168 108 88 120 95 86 82 81 69 49 42 43 10 3 1 2 -3 -1 41 83 51 40 39 99 137 -41 36 34 45 22 34 112 280 205 213 145 137 111 115 64 5 7 14 104
88 138 175 172 119 117 121 102 88 83 80 66 51 47 36 9 3 4 20 47 79 95 84 44 27 32 28 98 -34 23 28 35 28 77 150 142 138 166 116 88 77 74 60 5 -20 -14 8
126 160 190 159 131 110 115 95 93 86 83 72 53 45 36 11 9 19 41 64 49 44 62 78 45 42 21 78 -26 81 66 64 15 75 60 248 107 59 107 158 222 64 85 89 100 39 31
27 175 190 170 141 113 132 92 90 92 90 71 46 46 27 14 10 53 60 53 29 7 37 97 36 13 30 -3 -9 57 104 43 46 54 41 194 106 67 148 147 184 144 119 100 46 71 4
32 179 186 191 156 92 117 89 92 91 92 71 45 42 24 21 40 62 58 56 20 -3 41 65 45 6 44 50 68 128 128 85 101 -14 27 118 88 78 76 125 81 77 70 120 105 31 67
46 159 209 209 146 119 117 91 97 90 86 58 38 33 31 44 38 53 62 44 9 12 80 50 11 -22 43 27 117 88 129 108 84 53 66 30 64 49 51 108 108 125 107 96 95 82 153
24 144 221 190 154 123 120 102 102 89 83 57 32 28 59 68 39 37 52 36 14 42 72 34 -1 -43 -13 47 70 68 55 38 71 74 74 100 122 94 85 124 160 45 74 94 94 108 67
34 83 236 171 156 133 129 118 104 89 88 69 33 60 72 58 58 53 45 37 49 33 18 30 19 -11 -60 25 92 32 63 75 77 50 91 52 90 78 142 96 90 72 51 125 127 117 112
37 73 249 186 158 147 143 117 109 92 98 81 77 78 70 44 31 35 34 28 102 46 22 5 13 -11 -42 46 40 50 44 60 89 67 78 63 71 54 137 68 84 90 62 133 84 62 55
19 105 232 188 158 154 146 122 115 90 107 94 86 86 94 55 25 10 37 107 101 26 15 25 11 -16 -60 15 33 17 103 65 35 59 59 65 133 132 125 162 133 81 116 162 193 145 134
20 90 237 201 169 156 151 134 119 96 103 98 103 111 106 58 24 22 69 66 26 -5 -15 -3 -4 -14 -41 2 28 39 56 36 81 63 76 40 67 126 96 166 119 132 81 81 129 76 20
266 79 210 207 194 152 126 134 120 102 94 82 104 121 91 53 23 59 128 51 16 -3 -13 -27 -32 -18 -12 35 41 46 37 41 26 56 87 31 33 66 90 83 39 87 99 103 98 92 130
445 82 269 248 220 183 111 124 122 112 113 112 122 117 90 52 86 89 127 44 -17 2 -16 -23 -30 -23 -5 16 56 51 47 62 91 60 57 68 55 56 35 80 116 109 42 29 46 37 57
598 113 275 351 206 176 96 111 122 120 88 124 127 141 55 45 121 126 78 49 5 -10 -14 -24 -22 -5 40 27 42 46 38 45 77 100 40 46 37 61 40 22 32 61 42 51 19 88 78
494 173 331 312 196 152 91 99 111 98 66 110 112 99 121 70 25 78 120 110 95 -24 -26 -27 -32 -26 16 43 63 39 33 36 85 78 115 97 57 64 55 72 46 56 32 21 39 98 59
681 154 332 270 191 112 85 86 97 81 79 96 95 93 113 113 92 75 75 98 126 77 -19 -18 -20 -18 -21 9 65 61 56 35 29 49 51 77 59 80 94 67 60 44 17 4 10 14 30
520 200 340 265 159 68 91 88 66 94 134 78 105 102 113 119 91 112 91 107 97 88 42 9 -16 -26 -27 -15 107 45 40 34 42 30 45 74 61 75 63 56 47 35 22 5 -36 -25 -5
294 313 359 224 155 68 95 92 53 124 136 75 93 75 67 117 129 118 111 101 70 28 12 -5 -11 -21 -20 -10 85 87 75 59 44 18 16 42 62 84 67 60 45 24 3 11 29 13 39
45 318 337 233 184 62 84 77 63 98 81 78 83 95 81 84 108 99 96 78 51 15 48 5 -18 -9 -57 39 61 41 63 58 58 70 41 46 53 86 81 73 60 74 67 97 61 46 58
464 93 317 243 170 118 70 72 78 80 73 53 62 74 75 101 103 86 85 87 41 9 9 7 -15 -36 -37 -9 -6 4 65 53 52 61 53 52 63 79 83 58 91 31 62 71 67 72 85
420 200 474 236 151 95 46 90 97 89 84 51 55 50 65 107 107 77 87 54 65 44 41 -9 -32 -28 -14 -14 -18 -26 -36 53 59 55 69 63 64 72 76 97 85 145 75 70 62 90 107
115 320 407 196 148 94 40 117 119 116 86 67 78 73 95 122 89 83 57 69 30 5 38 3 2 -14 -46 -30 -30 -28 -39 91 35 59 57 86 76 47 51 84 99 100 71 46 97 188 130
185 401 340 185 158 91 61 90 106 96 99 87 126 137 142 123 135 64 26 33 19 24 34 -8 28 -18 -26 -38 -32 -28 -36 -27 48 93 44 43 72 76 85 99 79 83 95 99 151 110 108
90 438 313 205 140 127 76 77 83 84 77 104 144 159 195 142 110 98 92 64 22 6 43 26 17 21 8 -13 -39 -11 -20 -28 -25 3 79 87 109 123 94 122 98 96 120 94 94 88 68

GFSGBSN_con_3kmhel_072.txt.gz
Helicity
102 119 109 91 95 88 65 40 61 85 64 56 55 48 65 55 36 28 33 30 30 37 36 27 17 14 -3 17 33 13 5 6 23 80 27 141 162 136 215 87 76 139 124 108 322 36 68
70 125 161 108 87 95 94 45 65 93 73 70 64 58 65 50 40 24 18 26 24 27 29 19 10 8 18 22 14 36 23 -3 -12 32 71 206 170 146 141 143 78 100 137 145 120 297 357
58 87 157 142 105 113 100 62 83 98 75 81 74 61 61 48 46 15 12 1 1 21 20 17 21 30 27 29 5 12 -3 19 -28 -31 74 111 154 201 173 160 32 63 274 128 248 275 346
59 84 187 193 145 128 112 74 98 98 90 82 89 67 58 49 35 15 15 -1 -10 -0 10 22 24 24 38 70 8 -11 29 3 -11 -78 60 234 92 165 186 168 47 -97 -79 153 131 116 314
47 51 64 178 165 161 112 78 83 106 98 88 91 59 57 49 21 6 13 -0 -2 9 18 47 45 49 37 57 4 30 15 29 -43 18 39 260 133 171 230 148 77 74 79 190 130 88 102
64 63 101 128 174 160 121 90 97 113 106 96 95 65 58 32 15 3 8 9 22 18 56 47 58 35 82 144 158 5 32 15 52 2 56 122 130 204 179 141 152 77 50 142 184 102 115
94 90 100 132 197 177 143 104 84 105 105 98 102 66 53 30 14 13 19 44 86 63 64 70 34 29 34 45 29 28 41 -1 24 118 128 75 122 172 118 109 136 91 121 75 81 49 -15
78 101 93 122 223 170 160 108 85 91 104 99 100 54 47 19 7 1 37 68 87 46 25 96 48 70 37 19 -1 35 26 60 81 159 93 131 82 241 95 136 172 24 -75 70 297 52 22
79 76 98 81 237 189 158 110 93 92 97 99 86 56 46 14 13 30 32 49 35 5 39 101 67 51 43 11 2 30 48 62 137 133 112 105 86 112 233 162 148 103 89 88 67 74 -5
69 88 91 78 190 214 176 128 107 99 95 99 77 54 37 23 48 49 51 62 25 1 49 57 48 59 53 38 22 69 38 85 54 101 216 118 107 168 125 183 190 103 61 54 -25 15 58
52 81 97 105 127 232 179 140 103 98 89 98 61 57 32 48 27 66 49 37 14 20 140 48 37 14 41 52 52 81 58 58 46 154 180 91 111 86 80 241 213 218 194 179 130 62 134
85 69 154 97 91 266 175 153 84 104 80 95 61 38 48 66 45 39 33 21 20 60 100 22 -4 7 14 20 26 65 56 35 11 103 158 131 87 121 172 208 183 140 187 176 160 213 120
41 20 143 224 137 205 193 132 110 119 78 98 57 53 84 50 57 47 33 37 99 102 5 24 2 -18 -54 -17 61 49 20 45 51 40 113 84 130 72 148 139 134 84 114 152 145 165 160
176 -48 45 248 171 197 178 144 127 119 88 100 81 88 81 41 27 33 32 58 206 68 22 -9 -6 -21 -65 -42 77 59 18 38 67 49 64 65 52 82 132 147 125 110 77 128 140 92 101
113 -4 -15 219 151 176 149 131 140 122 104 98 101 85 93 51 23 20 73 164 157 29 22 21 19 -18 -64 -69 94 85 92 61 32 74 24 37 44 58 117 110 142 128 119 88 173 155 138
116 62 -37 187 99 166 166 146 124 112 111 103 117 121 118 44 20 26 108 120 63 -5 -0 22 -0 -17 -58 -47 76 85 79 71 56 34 60 20 70 79 55 98 83 130 94 125 189 145 115
90 84 -191 106 26 202 167 182 167 91 90 76 108 122 98 45 19 58 139 103 32 5 -10 -23 -9 -28 -47 -36 19 46 49 73 96 86 89 35 26 65 94 89 62 100 115 125 105 119 145
38 51 -51 66 322 241 206 249 137 80 97 126 109 114 98 48 81 66 107 65 -10 16 -14 -26 -16 -5 -20 -30 37 35 27 41 77 79 89 85 49 39 67 115 81 89 72 77 106 96 104
-29 -67 79 228 102 287 261 299 136 56 99 147 119 127 72 49 89 92 39 32 13 9 -20 -18 -19 -19 -13 -1 2 52 57 83 95 92 100 75 46 82 66 47 48 60 40 46 55 92 78
-116 13 68 389 71 296 211 298 94 23 8 149 109 76 74 73 22 64 80 65 84 -20 -40 -36 -35 -29 -10 -23 49 40 50 52 62 145 128 123 44 56 51 52 37 56 72 70 87 115 73
-159 -24 115 436 42 290 247 233 76 15 -7 120 69 66 68 67 59 65 44 30 93 60 -39 -41 -27 -27 -17 -42 -23 53 53 28 61 87 116 137 98 50 52 70 69 62 45 36 53 64 100
-43 73 28 295 39 271 208 172 76 17 56 106 94 85 76 53 74 93 78 55 91 55 12 -1 -26 -19 -23 -40 -29 -0 53 41 36 49 60 48 65 80 79 55 54 51 45 37 9 22 35
28 101 215 200 88 252 190 129 -11 42 116 94 95 94 56 77 85 80 86 75 79 46 -27 -35 -26 -32 -18 -33 -31 101 104 61 40 41 40 54 68 57 72 73 54 32 25 41 50 42 38
55 119 331 489 80 247 262 59 46 22 64 104 106 107 59 47 56 37 55 56 91 37 17 -38 -51 -28 -49 -28 -13 14 70 82 72 83 47 52 82 83 67 61 68 38 77 95 75 55 54
43 142 422 405 293 80 199 80 -0 -10 41 116 93 95 67 48 56 77 74 75 73 38 3 -26 -46 -50 -39 -21 -27 -37 -54 -35 55 60 67 72 89 90 94 76 58 57 41 56 58 59 103
32 116 36 266 320 143 105 57 -55 27 71 113 87 97 109 98 91 44 65 67 79 96 28 -43 -43 -31 -29 -9 -6 8 -20 -47 -67 52 90 81 83 94 82 98 82 60 58 57 74 134 146
-39 276 502 -18 122 177 105 22 7 22 44 80 67 118 126 85 94 150 48 45 7 37 32 -19 -27 -35 -41 -8 12 38 -21 -34 -48 -74 -12 98 101 84 77 90 104 92 73 64 111 130 161
71 460 390 118 231 149 138 85 25 41 56 108 95 146 139 101 150 157 139 34 21 37 50 -15 2 -31 -22 40 21 13 4 -18 -20 -48 -54 -41 50 97 102 100 82 114 120 111 149 172 155
33 511 453 51 140 138 145 84 53 31 60 102 173 205 229 135 101 133 137 134 109 49 37 16 -15 -1 -20 40 3 2 23 11 -16 -7 -13 -25 67 88 110 103 125 153 143 151 144 114 85

GFSGBSN_con_3kmhel_075.txt.gz
Helicity
40 57 98 140 169 120 77 66 80 79 90 77 61 72 69 64 58 51 36 34 40 30 26 27 31 21 42 108 70 95 4 -9 -13 -3 34 103 195 152 134 147 123 139 68 120 173 310 187
52 51 70 117 218 170 127 94 97 89 90 100 67 77 79 63 53 56 33 22 11 26 25 25 35 32 73 87 79 64 -26 2 -5 18 110 65 150 186 121 146 143 90 111 139 138 206 310
47 61 69 72 215 248 134 90 94 96 86 103 69 80 79 70 57 50 25 17 -3 2 7 19 36 50 72 41 49 27 -44 -15 -0 -10 27 87 157 202 110 168 88 75 117 72 3 218 342
-0 31 58 59 72 239 138 103 109 94 94 101 81 88 70 72 58 38 14 4 -11 -2 10 10 42 45 64 37 67 97 80 -22 5 3 9 65 64 204 99 307 184 70 71 84 194 155 377
-14 -12 16 50 60 194 125 109 98 95 102 103 84 87 70 76 49 30 10 5 -9 -0 18 34 47 86 40 90 133 43 29 3 -16 -27 48 46 64 105 148 229 196 197 -8 8 31 37 121
98 4 -11 3 57 115 147 150 118 117 116 116 91 92 85 69 48 27 8 -11 15 2 26 53 45 50 113 117 105 9 13 40 1 23 29 83 77 42 -32 222 143 114 33 73 155 147 242
49 78 59 4 3 135 165 199 127 126 123 124 90 97 82 59 45 28 41 52 84 75 36 88 87 74 109 55 8 59 38 18 36 46 35 136 77 61 78 134 50 111 74 -40 -21 66 138
11 23 52 57 12 2 195 200 138 150 113 117 91 96 77 64 33 25 52 80 80 60 36 34 37 74 59 58 41 28 27 67 47 97 130 102 46 136 128 132 53 64 77 101 -17 45 4
47 48 -43 8 73 -3 124 194 161 157 134 87 87 93 77 55 30 50 72 48 43 15 53 62 64 59 52 85 52 88 74 76 130 79 143 52 42 236 106 144 47 80 15 162 106 99 85
-35 -23 49 15 6 88 25 167 199 156 121 82 77 91 72 54 64 71 72 58 25 8 88 59 54 35 40 69 109 89 50 148 98 119 107 48 183 178 93 20 135 25 29 -28 128 161 156
-31 -46 -13 121 8 18 169 199 218 156 128 95 74 93 70 73 75 89 56 36 13 9 184 41 20 44 72 65 52 102 38 101 120 112 85 160 133 155 176 212 65 173 65 28 -34 -20 107
101 75 93 107 113 -63 92 46 176 161 105 88 87 94 66 111 68 52 41 15 12 93 131 35 8 8 -10 86 71 59 47 71 204 114 55 76 162 155 200 266 112 131 215 206 160 80 102
41 96 180 173 178 2 -62 48 219 127 131 81 87 77 83 93 104 60 39 41 129 196 6 49 41 8 -33 -11 45 39 129 120 110 73 98 108 121 160 175 231 209 185 187 155 121 69 82
60 87 140 106 226 147 -47 162 242 122 168 88 73 93 75 94 67 50 46 99 217 94 30 -4 34 -2 -53 -26 56 119 93 63 53 100 117 103 111 146 221 235 192 147 128 92 84 91 130
66 27 70 94 369 75 -8 158 254 190 168 101 80 100 115 88 72 34 80 195 150 49 11 42 26 1 -76 -51 40 91 78 55 46 35 45 39 57 79 67 153 170 150 156 134 129 125 121
45 12 -18 58 128 153 36 82 264 215 169 100 92 106 128 109 74 43 110 147 83 -24 -7 -17 21 -27 -112 -64 -76 41 41 44 35 56 38 19 55 54 70 99 103 138 129 158 195 126 130
48 30 -16 10 92 57 126 174 264 210 191 47 100 89 85 112 94 73 152 123 76 -33 -20 10 -17 -29 -44 -67 -62 -74 55 69 58 59 75 21 41 62 77 77 80 113 115 128 116 112 98
27 25 15 -18 -117 38 55 193 59 179 131 95 125 86 82 113 133 70 122 76 14 -8 -42 -32 -30 -57 -62 -60 -59 -22 4 87 59 53 86 59 42 67 63 64 73 59 83 89 77 108 121
46 15 -0 -53 -125 90 40 165 211 154 168 245 154 120 82 84 82 104 60 54 29 39 -28 -39 -43 -55 -63 -69 -101 20 45 77 58 87 88 55 44 68 52 69 70 40 36 57 85 104 84
38 19 -15 -70 -15 141 417 188 215 157 130 193 142 87 72 24 6 65 102 92 105 -27 -37 -42 -48 -54 -40 -57 -12 13 88 82 102 133 133 90 45 30 18 21 40 41 36 35 78 92 67
4 13 9 -83 55 67 352 163 174 78 62 187 130 53 30 14 -2 23 25 48 117 105 -32 -51 -52 -37 -23 -52 -42 -34 65 71 83 89 119 91 81 48 43 49 47 31 30 61 109 70 83
-31 3 17 -47 160 44 107 73 142 150 141 110 113 59 51 17 41 35 10 63 99 83 66 25 -22 -18 -34 -20 -18 -21 19 28 37 62 94 92 85 83 70 43 47 24 37 41 20 57 46
-23 -11 13 34 251 358 -49 219 90 191 192 169 105 84 43 50 80 84 1 52 61 84 8 -27 -14 -0 -17 -22 -10 3 2 -3 54 55 60 70 88 94 62 80 58 34 39 48 54 77 60
-20 -24 1 90 220 467 110 222 138 259 96 165 109 87 64 48 83 7 18 18 44 34 70 24 -30 -18 -29 -49 -19 -6 -21 7 53 37 43 70 90 98 74 97 77 40 61 60 56 69 66
2 -14 -19 87 167 348 272 43 22 -15 -57 112 109 83 50 63 45 15 51 48 74 17 18 -0 -35 -44 -36 -38 -17 -27 -30 -41 -44 50 109 70 87 78 96 79 74 56 46 52 64 92 109
-2 4 6 93 94 225 224 28 16 3 -17 31 73 89 62 80 75 120 88 49 90 75 21 -22 -44 -47 -57 -39 -17 124 108 -11 -39 -38 56 97 83 93 85 86 70 65 55 55 88 139 172
7 15 37 192 296 24 -21 11 44 21 3 26 79 99 78 82 151 155 84 61 27 2 15 -15 -17 -37 -61 7 57 81 120 -17 33 -15 -45 -21 -26 -29 9 32 68 66 66 90 93 60 128
25 20 120 320 94 -100 83 35 74 57 27 45 78 101 59 70 174 164 148 116 94 16 44 -6 1 -30 -35 24 28 33 40 31 46 -16 -31 -20 -18 -17 -33 -31 -54 108 126 92 92 148 131
39 54 209 329 312 61 82 78 122 84 73 73 53 103 114 103 115 116 143 160 130 124 19 -16 -23 22 -19 1 -22 -5 25 28 65 99 -8 6 11 -1 2 -13 96 151 137 165 160 121 121

GFSGBSN_con_3kmhel_078.txt.gz
Helicity
2 -9 10 32 61 89 241 231 99 70 88 79 66 69 70 56 62 55 58 56 31 37 35 30 29 50 77 120 97 73 18 -21 -21 -22 -53 -11 264 97 157 135 85 82 116 111 272 313 200
83 49 18 -3 14 21 116 302 141 94 111 111 86 82 103 80 70 59 54 44 31 32 17 37 31 67 101 94 97 64 18 -29 -14 -35 -3 -11 95 162 134 130 95 61 90 114 98 229 219
30 50 67 7 -13 -18 1 198 207 107 103 119 60 110 130 77 61 62 42 25 22 25 10 23 24 85 96 74 78 66 38 -9 -14 -26 69 46 118 170 223 128 131 112 244 132 117 75 214
131 75 51 75 56 -14 2 152 213 84 118 101 97 115 135 84 70 54 27 25 17 24 13 27 30 97 80 30 43 96 27 -1 -5 -5 21 71 1 161 165 192 168 150 317 169 129 36 373
127 147 114 62 74 51 -9 57 177 152 163 105 121 103 152 106 66 57 22 4 1 6 8 36 50 115 62 116 92 83 61 24 -3 6 56 124 23 132 120 206 157 150 154 127 66 116 90
65 129 129 74 39 48 52 -8 122 226 178 129 102 116 129 121 59 48 16 -9 8 26 15 45 44 63 107 86 76 28 -20 15 25 30 118 127 38 15 -25 192 79 93 71 117 47 133 -24
-33 -58 117 98 47 41 44 12 -68 188 210 203 92 126 115 102 67 49 55 65 124 92 53 50 60 77 76 61 69 53 19 29 25 24 75 101 46 50 -61 211 293 88 82 -9 33 97 45
-13 -12 -66 42 150 72 13 49 -116 -12 220 226 99 108 72 96 64 58 74 101 99 63 62 21 15 71 77 58 26 23 30 54 16 41 69 74 7 35 11 43 102 94 73 35 -19 -47 80
36 28 12 -25 0 126 145 -12 -47 -122 232 198 115 84 94 110 69 97 79 63 61 40 55 23 49 39 60 86 81 80 62 41 88 46 92 75 38 56 -70 178 89 77 71 93 17 -71 9
97 66 58 1 -40 19 90 128 -61 -41 159 151 120 74 101 125 115 111 80 60 54 24 86 31 10 -7 44 118 106 171 207 81 57 130 93 45 94 141 44 98 91 131 120 79 59 138 133
109 116 103 110 56 -13 14 99 22 6 51 141 159 90 98 78 151 139 83 57 39 20 194 28 0 29 26 42 81 94 159 174 122 128 57 52 178 56 56 54 126 53 29 -36 25 169 176
40 55 71 95 69 64 58 53 172 -85 6 201 173 88 97 105 137 93 70 58 37 132 149 31 -12 -23 -4 46 63 77 102 114 114 142 80 137 147 78 76 76 75 57 99 90 47 23 185
18 28 45 56 46 28 46 102 220 38 -22 238 140 89 101 102 135 101 74 62 160 228 65 31 -19 -34 -29 -11 41 106 44 118 78 66 210 196 201 213 190 165 181 108 128 174 87 151 103
19 45 66 61 61 4 -1 74 206 89 30 221 140 99 55 141 134 125 96 91 203 153 95 4 -27 -67 -58 -37 43 80 65 79 70 63 147 87 115 148 220 156 110 137 124 40 53 81 84
32 39 53 50 56 44 5 60 149 257 89 241 185 148 134 125 130 114 107 146 144 131 72 69 -3 -70 -54 -29 61 66 80 51 95 63 32 45 62 117 160 155 121 150 121 69 62 94 90
22 32 33 47 29 45 -1 -3 191 131 181 237 245 168 163 111 121 140 49 89 84 25 34 57 23 -58 -63 -55 -32 78 66 31 33 33 49 25 60 77 106 140 140 113 114 116 113 88 101
20 18 34 41 22 10 11 13 66 59 200 175 263 177 182 170 165 65 58 66 52 -2 -2 10 11 -47 -112 -85 -95 7 52 32 26 42 39 20 41 71 94 81 85 117 128 123 99 92 93
12 5 20 6 7 -3 15 -28 37 -64 -2 87 172 189 136 199 93 79 9 30 13 10 -24 -21 -21 -24 -70 -102 -103 -35 12 27 42 37 39 36 27 96 65 71 73 75 65 69 79 100 115
14 3 1 -10 -14 -5 11 -44 76 111 31 186 162 228 132 143 49 55 -12 18 2 7 -30 -21 -22 -39 -46 -62 -109 -38 59 101 92 83 51 42 45 59 56 55 58 38 46 81 87 92 86
19 4 -16 -27 -24 -7 -44 -40 195 145 47 251 133 145 126 75 72 5 19 59 43 -29 -45 -44 -44 -40 -48 -63 -50 -72 86 91 85 81 97 51 43 15 1 6 38 42 43 63 85 85 73
25 11 4 -17 -15 -23 -41 65 200 44 358 262 102 77 84 47 43 -15 -23 38 69 77 -50 -70 -62 -45 -45 -68 -57 -77 -50 99 113 89 94 73 56 46 31 27 23 36 40 51 29 56 66
21 -1 7 -7 4 -19 -36 179 159 56 75 181 60 65 87 7 32 -37 -17 42 86 48 22 -33 -51 -46 -39 -42 -46 -39 -53 -45 30 93 96 96 93 73 70 49 44 27 24 13 6 46 41
7 8 14 -5 -19 -38 104 252 222 77 102 141 99 130 53 22 48 42 -10 42 55 46 -24 -62 -56 -21 -29 -52 -37 -37 -40 -32 20 47 82 110 98 98 61 68 48 -1 -7 -14 60 69 72
4 14 21 -5 -25 -7 187 272 69 50 117 157 147 106 59 47 52 -15 -17 36 46 8 18 2 -44 -10 -11 -16 2 -23 -44 -54 -44 -16 65 62 86 89 60 92 83 34 66 67 65 77 63
7 11 18 -4 -6 48 119 258 422 47 160 213 138 133 62 51 44 11 49 70 146 136 61 25 15 -10 -19 -9 -38 -21 -36 -65 -52 -39 -31 11 12 -25 -39 -25 56 59 60 73 73 94 116
11 16 9 19 9 77 238 330 213 50 55 154 150 169 87 57 88 93 86 108 117 102 99 59 62 8 -26 -22 -34 38 36 -22 -11 -51 -33 -32 -39 -37 -22 -48 -57 22 82 79 66 78 111
18 19 26 39 71 264 178 28 29 95 54 79 142 160 75 52 152 140 126 148 91 129 73 40 24 -11 -22 16 44 30 16 -43 39 42 -4 -9 -20 -16 -17 -16 -39 45 89 86 103 66 87
17 27 41 84 140 195 119 -25 61 65 56 95 147 115 57 54 177 155 141 140 140 102 42 15 26 27 -24 1 -4 4 -24 3 -4 -7 -5 18 39 -2 -12 -6 -31 68 178 77 82 104 95
28 44 50 123 193 192 114 32 104 119 108 117 124 135 112 77 121 137 156 199 165 124 89 131 -38 24 -13 -5 -29 -39 -34 -20 11 31 -32 29 14 -9 4 13 -4 23 68 104 109 119 97

GFSGBSN_con_3kmhel_081.txt.gz
Helicity
184 173 159 128 81 91 64 43 39 257 204 83 77 87 75 102 40 87 98 90 59 39 20 49 53 69 117 165 127 69 29 23 41 5 -7 -22 -31 70 59 50 103 119 69 64 151 187 203
144 168 181 187 172 118 63 53 42 74 143 132 89 108 114 92 77 74 102 101 49 51 22 26 47 110 148 159 100 47 26 26 35 -2 -18 29 -3 -3 -68 102 85 48 94 15 87 180 140
150 146 153 181 202 185 141 70 56 51 233 115 143 116 114 97 72 64 88 73 59 42 8 4 43 124 148 102 49 46 42 41 25 1 -11 15 27 164 74 124 92 64 29 84 34 134 198
98 175 175 148 148 177 182 130 65 60 64 56 167 156 115 86 82 88 70 51 58 33 19 7 67 132 133 37 73 82 61 24 10 4 -10 9 11 187 70 94 140 83 85 69 112 93 184
15 5 24 148 182 152 157 144 136 18 -7 48 255 181 115 82 53 74 64 36 41 36 10 32 84 136 61 116 112 72 57 5 7 3 -10 39 35 63 114 110 145 88 -36 108 273 173 139
31 30 16 13 63 160 169 174 114 140 -24 24 124 228 159 47 58 49 68 3 44 59 29 57 65 55 69 82 129 44 -7 9 7 39 25 32 32 56 92 226 81 37 68 78 325 199 90
53 36 15 19 1 -14 86 204 198 134 134 10 27 259 174 81 71 9 114 75 169 128 59 67 77 36 33 64 40 33 27 22 43 20 50 61 12 45 53 104 111 120 85 19 230 165 -0
73 62 52 36 38 20 21 93 181 205 106 -5 56 181 167 160 60 17 153 97 131 103 60 43 24 36 59 69 25 -0 -1 36 25 16 -2 37 36 62 11 4 120 65 29 -40 55 117 22
93 100 91 89 86 74 40 -6 67 127 184 106 10 140 160 145 64 27 129 66 89 96 77 32 28 28 31 93 117 34 15 15 46 17 75 61 44 19 -19 -15 102 68 43 84 63 99 56
82 101 119 131 121 93 77 63 25 77 151 155 72 136 126 119 84 61 116 48 80 81 128 50 10 -0 18 71 66 88 83 58 63 69 71 73 47 59 27 13 43 91 77 97 56 23 133
89 103 90 92 44 59 63 47 21 49 110 226 230 133 169 131 92 65 99 57 80 77 186 51 9 -6 6 14 52 157 102 108 77 54 48 10 86 49 48 50 56 44 47 75 80 -55 -35
64 71 53 46 41 52 74 65 27 57 89 190 291 131 161 155 49 88 114 45 96 169 153 67 -4 -16 -21 24 57 101 98 89 99 61 28 69 77 56 40 62 85 29 114 141 225 71 146
66 65 63 60 60 50 57 60 60 69 108 172 398 148 236 181 83 120 103 66 156 196 35 46 23 -17 -16 -22 42 84 96 71 36 53 109 110 112 96 73 26 7 48 115 198 194 134 160
54 57 62 59 65 56 43 42 46 46 32 117 502 148 177 116 124 152 114 -36 139 99 82 20 5 -14 -16 -37 47 98 66 34 69 112 76 79 98 96 155 70 -26 77 121 168 173 177 148
40 35 43 53 52 53 54 48 16 2 115 168 95 206 182 127 84 115 42 -12 76 74 60 41 20 -21 -49 -41 46 77 33 20 95 71 32 55 91 118 68 52 63 56 170 48 45 60 71
23 22 34 35 24 27 42 34 -6 -5 213 25 245 140 174 154 95 111 -26 27 29 19 9 37 -5 -42 -57 -59 -22 50 37 62 55 51 63 17 43 71 86 46 90 88 21 46 66 64 99
12 14 14 18 14 7 3 -7 -13 -5 4 91 142 184 180 166 130 31 2 22 10 16 -3 -4 -14 -59 -52 -56 -20 45 45 44 56 50 32 28 19 31 49 63 86 114 96 84 69 60 39
8 -10 -0 13 15 1 18 -10 -5 8 -45 80 94 74 155 177 49 23 44 6 -1 28 -11 -51 -53 -97 -63 -74 -65 50 42 23 47 27 11 25 20 65 41 54 68 53 76 70 76 66 71
-4 -36 -6 18 24 18 19 -5 2 2 -30 98 12 25 112 193 24 61 48 -11 16 34 5 -39 -63 -69 -83 -99 -115 11 42 66 31 35 25 22 23 61 54 34 42 37 53 62 50 54 70
-9 -23 -2 14 -1 30 20 -2 -16 5 59 62 57 39 112 48 58 20 22 -6 43 10 -16 -52 -49 -58 -112 -126 -88 -86 49 68 60 61 59 50 27 1 -6 5 38 28 43 59 61 46 41
-16 -20 -1 9 5 30 18 -7 -30 31 77 15 84 8 101 43 35 21 -7 -13 25 56 -17 -53 -64 -59 -53 -98 -118 -107 -41 81 88 80 60 47 23 30 26 30 20 16 24 29 17 41 34
-10 -5 -4 2 16 30 8 -39 15 145 278 36 50 -16 42 42 33 25 41 17 22 48 53 33 -37 -41 -60 -51 -47 -77 -65 -54 5 86 70 72 50 51 47 41 31 10 22 27 31 35 28
2 5 3 11 28 21 -7 -8 62 161 102 168 110 63 -76 17 30 43 37 19 -3 9 65 -44 -51 -41 -67 -50 -39 -40 -40 -40 -45 -50 -23 86 92 15 -31 70 48 -3 11 54 63 61 74
14 12 12 23 18 13 -3 20 167 214 168 88 164 115 35 25 43 24 -6 21 -18 15 12 -11 -63 -42 -20 -36 2 -14 -36 -63 -49 -37 -27 -47 -56 -68 -78 -65 -89 8 35 44 48 84 97
17 8 21 27 22 -2 15 135 212 181 -24 107 135 109 45 98 59 35 15 25 95 139 83 24 29 36 -12 44 -5 -64 -40 -86 -52 -50 -46 -50 -59 -80 -78 -73 -57 -34 42 49 52 67 79
5 15 16 21 11 4 69 241 198 -13 183 173 194 116 68 53 71 98 55 51 109 113 134 104 126 94 16 -10 -42 41 35 -18 -53 -87 -67 -67 -94 -81 -54 -60 -42 -51 -21 83 98 -39 83
13 21 27 29 38 86 85 124 115 21 222 211 177 122 72 48 165 117 80 54 79 109 107 119 100 63 70 -12 -13 24 8 -52 -14 -19 -56 -68 -87 -75 -71 -77 -55 -25 -24 -4 -39 -66 42
23 28 32 33 83 42 40 125 -16 122 238 191 149 139 93 64 179 134 135 120 119 97 100 88 95 79 -18 -38 -42 -29 -51 -20 -14 -25 -15 13 7 -14 -8 -31 -52 -19 43 24 -17 1 9
20 38 39 71 49 54 108 -45 -48 96 202 171 91 139 93 79 115 176 169 169 150 135 89 146 55 92 -32 -36 -35 -47 -43 -30 -2 4 -27 16 10 -10 -1 11 -19 -19 -13 4 43 35 46

GFSGBSN_con_3kmhel_084.txt.gz
Helicity
128 138 149 141 137 149 156 151 107 111 113 13 65 147 77 141 65 76 56 45 54 19 34 53 78 87 123 153 151 85 48 47 54 33 65 58 47 57 119 86 -56 118 129 52 112 31 -8
72 96 148 170 172 152 145 129 120 113 140 52 -21 59 85 157 82 68 51 56 40 39 18 26 71 131 152 145 115 56 32 30 43 32 52 45 -9 30 66 36 -10 71 52 113 84 30 73
40 43 67 88 134 136 160 168 143 125 134 176 129 58 137 174 185 96 37 42 7 48 18 18 58 120 151 99 69 46 65 50 48 33 32 -27 -27 -59 -40 35 17 52 74 90 29 35 -31
6 16 18 20 29 71 128 137 154 161 130 134 107 70 140 181 147 76 42 44 19 11 21 40 61 136 121 82 77 91 83 28 39 13 -11 -7 -9 -6 19 16 20 48 122 -39 2 -103 -155
83 72 56 41 47 58 50 85 142 199 178 151 100 147 97 133 124 71 51 15 23 -2 37 34 92 128 27 67 101 130 68 -11 -8 -14 -8 -13 -3 15 32 95 44 74 -14 -21 -6 -75 -18
78 75 72 69 62 66 48 75 81 142 168 177 216 122 102 163 98 109 111 33 28 18 67 75 69 49 44 47 49 42 10 -28 -3 9 15 11 17 42 38 54 63 43 20 28 -4 -28 -26
74 57 74 79 61 34 48 41 42 47 121 203 217 223 76 149 118 112 140 99 89 72 104 101 84 31 56 55 54 15 18 4 -21 16 29 10 2 3 24 116 111 108 42 18 120 -33 74
88 90 84 85 92 79 69 48 35 28 79 118 215 280 121 149 111 108 91 121 25 43 94 66 53 19 46 64 47 19 18 10 15 37 13 21 16 6 -21 60 163 150 15 108 190 241 139
102 114 112 116 106 100 80 59 42 55 28 83 140 186 100 142 108 84 37 86 50 31 120 90 58 26 35 79 44 35 18 -2 -9 5 36 -0 10 55 6 -15 77 90 2 16 63 112 248
75 120 140 128 109 99 86 72 56 44 54 32 78 177 246 182 87 86 59 69 22 43 161 108 41 10 33 36 36 59 65 32 53 73 65 38 31 39 38 1 59 54 2 36 -43 41 206
54 61 113 113 97 76 67 83 68 68 41 42 54 119 225 189 117 87 83 68 39 53 55 78 41 3 22 22 29 59 41 54 91 81 63 33 27 60 37 28 39 67 103 95 59 28 18
67 83 81 81 65 54 42 47 55 57 54 44 100 93 113 188 151 96 137 76 34 93 55 82 29 -11 -6 30 39 53 106 69 59 32 25 45 47 44 47 45 14 34 137 163 126 48 -33
69 90 76 59 41 30 29 38 51 52 53 61 112 140 156 139 130 115 159 113 -56 31 68 68 37 -14 -18 -2 41 47 42 18 16 60 63 105 73 69 42 65 29 57 56 35 58 68 60
72 92 53 23 14 13 21 36 47 62 59 7 126 146 46 128 130 178 187 119 -18 -29 40 68 44 -3 -22 -20 51 61 21 22 37 64 68 49 45 35 46 30 48 51 46 96 81 101 100
74 40 18 2 -5 -5 24 39 44 14 -32 21 26 -1 114 125 139 201 167 4 -85 -23 63 112 49 -32 -52 1 40 43 21 46 102 50 28 52 64 83 65 39 35 68 134 83 110 138 142
57 27 8 17 -14 1 28 30 12 6 -47 -0 114 56 131 108 157 211 80 -19 -95 -3 57 86 27 -53 -65 -23 10 29 6 13 41 55 41 29 36 50 51 107 67 90 17 80 102 144 167
35 7 18 4 -28 4 25 -2 21 20 12 -15 130 99 50 174 204 118 8 -9 -54 -3 44 23 -5 -61 -77 -41 36 24 10 20 36 29 11 5 2 3 18 53 49 65 2 12 9 58 98
34 16 10 -24 -19 4 -6 11 31 21 11 -106 110 99 53 146 45 61 -24 11 -50 5 19 -13 -33 -99 -78 -32 26 47 12 27 50 43 19 24 1 22 16 22 26 17 39 42 43 47 53
28 -1 -11 -24 -4 8 -5 26 24 32 -19 -76 96 161 31 116 -27 7 38 -20 -45 -4 16 -14 -46 -81 -60 -65 -38 59 25 52 37 22 -7 -5 13 35 23 15 20 26 41 39 41 63 67
14 -8 -12 -7 1 6 5 34 26 20 -42 -31 21 90 62 85 79 36 23 -41 -62 21 6 -31 -57 -64 -95 -78 48 37 52 46 53 32 40 21 -0 -13 -30 -12 12 25 24 34 38 53 54
17 -26 -9 5 12 8 19 27 22 -11 -4 -58 -15 34 55 31 29 -6 -44 -22 -37 28 -3 -30 -76 -60 -87 -99 -71 -57 33 52 70 67 47 26 -1 18 30 21 4 -1 -1 12 27 24 38
15 -9 -5 26 13 16 26 22 7 3 6 -17 -10 14 8 30 77 9 -31 -13 -30 24 23 40 -66 -64 -53 -96 -84 -98 -103 -63 -17 67 44 52 2 25 34 35 17 -8 -13 -3 17 25 26
13 3 7 19 7 15 26 7 -6 21 40 15 -3 33 -1 5 30 39 -9 -6 -11 -24 10 -24 -39 -34 -64 -43 -33 -35 -34 -18 -55 -54 -34 -33 -40 -28 -18 -5 -10 -3 2 3 -2 20 49
12 3 15 4 8 15 11 -5 13 114 156 44 37 74 -33 -25 44 76 -2 -20 -12 -1 -16 15 -57 -50 -14 -35 -8 2 -15 -44 -62 -21 -28 -54 -45 -43 -45 -50 -58 -22 -16 -1 -22 -34 44
6 5 14 7 5 17 1 8 80 226 76 -5 91 77 30 -29 -4 -1 3 -18 16 51 67 12 15 27 -20 36 -34 -85 -70 -82 -82 -31 -42 -30 -56 -86 -91 -75 -57 -51 -50 -66 -58 -43 44
11 14 11 8 18 17 6 73 100 165 -9 127 144 101 26 -31 59 40 16 17 31 47 78 67 97 74 57 25 -30 -3 -18 -59 -108 -114 -63 -55 -75 -81 -83 -92 -72 -62 -70 -60 -79 -69 -42
9 -3 15 33 57 49 85 44 61 60 38 172 136 109 23 5 47 47 52 44 59 80 64 83 98 58 63 -11 -13 -6 -12 -31 -7 -23 -64 -85 -93 -80 -78 -85 -65 -51 -49 -52 -78 -83 -28
-0 5 42 66 78 77 74 29 69 -15 39 169 164 96 19 29 87 61 89 83 76 69 78 72 99 65 43 -5 -27 -25 -39 -14 -36 -36 -40 -16 -8 -12 -17 -7 -50 -34 -6 -37 -23 32 16
-14 20 68 82 77 78 96 18 -1 36 72 141 87 124 63 17 55 98 137 108 94 94 71 128 46 75 3 -30 -22 -47 -34 -30 -6 -7 -36 -13 -16 -26 -3 -2 -3 14 22 49 57 71 63

GFSGBSN_con_3kmhel_087.txt.gz
Helicity
35 44 54 70 93 117 130 160 160 161 129 123 162 117 30 53 94 107 91 55 51 67 64 59 36 71 137 103 89 89 60 75 101 86 63 74 72 55 43 52 66 139 92 76 86 68 89
40 30 18 33 41 77 107 122 126 139 195 213 231 158 232 87 135 129 74 38 48 80 49 68 60 107 128 65 89 66 61 52 65 67 61 68 63 53 41 57 67 61 23 41 260 123 47
30 33 27 26 50 43 21 58 99 111 120 167 228 266 139 160 139 146 64 49 61 63 91 53 77 100 116 55 84 80 81 106 82 48 48 53 24 52 41 72 13 -14 -15 -32 227 60 24
44 54 36 38 67 108 107 100 77 74 100 110 126 224 148 182 113 136 85 50 71 106 95 82 71 108 90 76 66 72 129 78 -2 14 41 -16 -44 -17 79 -18 3 21 13 44 52 87 27
66 60 70 65 71 84 74 83 68 62 77 94 114 129 149 175 101 129 98 52 57 91 80 82 96 93 46 54 79 69 98 23 -8 -4 -31 -15 -42 6 7 20 20 -5 108 44 4 1 -7
73 54 58 62 89 92 103 92 83 87 73 53 102 106 107 130 157 150 112 48 87 85 117 128 139 61 41 52 63 37 25 -3 -1 -7 -4 -11 1 12 1 -9 37 27 82 56 -23 -39 -58
60 63 81 83 99 116 107 105 106 98 92 92 86 74 184 55 170 155 108 81 52 75 125 131 135 65 56 64 51 38 30 28 23 19 -28 5 4 29 6 65 73 23 10 8 12 -13 -66
61 50 65 74 110 120 123 119 104 98 83 75 64 49 129 145 150 120 81 63 112 95 84 84 52 36 29 64 49 29 46 11 24 3 17 -0 -6 -36 33 53 60 52 2 36 53 -3 -10
46 52 58 62 68 94 133 150 134 113 85 81 91 57 70 152 103 80 49 64 107 73 120 70 63 44 39 82 48 43 47 6 20 19 24 8 23 27 39 97 30 32 -4 33 15 -13 -33
45 45 60 66 79 86 86 89 85 99 88 70 58 82 46 153 78 99 81 40 105 27 20 22 19 10 45 30 39 40 51 31 44 25 35 34 12 66 -1 46 42 9 -20 -3 -16 61 15
44 41 58 82 94 81 31 20 24 34 48 51 43 47 14 67 28 89 60 122 29 63 -90 49 41 22 21 26 31 51 30 28 78 63 54 34 42 13 29 7 23 17 14 32 24 42 25
48 43 62 45 36 45 13 8 25 22 12 16 39 20 57 -75 9 92 96 126 35 8 -149 23 48 19 4 16 34 45 40 59 52 32 -0 25 32 36 34 12 53 84 66 99 69 27 156
57 65 97 60 35 31 -1 3 24 27 15 7 1 33 57 -87 -26 65 128 117 -24 -102 97 28 31 10 -17 -39 -0 16 10 30 38 51 33 16 45 62 83 44 57 67 40 66 60 101 24
81 130 60 27 33 20 -6 11 25 24 18 21 12 28 65 -69 81 101 142 195 -106 -69 61 27 35 37 -20 7 35 17 1 60 97 121 83 58 60 58 53 36 26 57 114 74 113 72 27
102 107 59 24 22 13 -7 17 15 6 4 -10 7 -69 -61 11 136 151 145 -11 -103 -37 49 47 59 16 -25 34 37 8 18 53 60 61 52 44 22 81 58 8 57 75 115 104 75 123 78
109 109 47 20 14 -11 -0 10 -10 16 -0 -9 -77 177 103 128 151 173 145 -17 11 105 -32 20 -11 -27 -44 57 27 14 19 28 36 59 41 61 22 85 47 33 10 54 89 92 103 112 96
103 88 30 9 -18 -2 9 8 8 29 -8 -25 5 162 43 148 194 191 19 -6 70 123 -78 -17 -54 -5 65 62 36 19 26 43 51 50 35 5 11 37 11 32 64 34 46 90 53 85 78
92 66 28 -9 -5 3 7 11 24 20 8 -56 41 251 91 93 171 110 5 4 72 26 -64 -52 -39 -10 56 72 45 31 20 47 59 66 19 18 -1 7 17 37 57 33 47 27 76 93 85
97 61 26 -21 -8 2 24 19 28 18 -3 -46 158 231 71 91 52 27 35 48 70 -9 -31 -29 -45 38 68 64 51 43 39 52 42 36 31 34 36 19 26 30 23 47 52 32 44 62 52
107 50 23 -19 -7 16 21 31 30 16 -20 -77 96 213 103 40 64 37 14 -38 -35 -6 5 3 -8 51 51 78 69 54 31 47 40 24 36 20 18 27 13 13 16 31 35 29 34 41 45
91 46 7 -14 8 36 26 27 23 2 -37 -113 32 139 77 13 -2 2 11 -37 -31 -13 -10 8 -28 -33 -34 -20 52 57 56 48 56 60 33 18 21 28 20 24 15 12 4 9 31 17 52
72 37 -15 11 31 20 24 24 5 21 -30 9 68 94 43 60 37 24 -15 -23 -43 -5 -14 -12 -38 -34 -38 -65 -53 -29 -17 15 13 63 42 28 29 28 45 32 11 -8 10 10 17 22 39
56 35 11 23 19 10 13 11 6 15 -28 28 20 47 42 48 72 70 88 -35 -3 -2 -4 -12 -40 -38 -43 -36 -13 -16 23 20 -13 -21 3 -9 -9 3 24 35 37 31 1 -5 5 21 26
53 29 28 20 18 19 35 24 19 38 43 3 24 16 24 46 57 48 12 8 -11 -14 -6 16 -4 -29 7 -15 1 42 2 -35 -33 26 -9 -48 -15 -9 -7 -9 -13 -0 5 8 -4 4 16
43 33 28 15 21 34 49 24 43 70 85 -5 14 19 28 22 22 31 36 -5 -12 -21 4 16 4 33 7 14 -39 -68 -52 -84 -46 1 -3 -41 -47 -49 -73 -58 -32 -40 -32 -53 -64 -53 -60
33 31 23 19 44 54 36 71 101 137 -11 8 3 50 40 -13 34 32 10 -11 5 -7 33 44 57 55 21 -8 -46 -38 -38 -50 -67 -72 7 -25 -55 -74 -68 -78 -56 -44 -22 -58 -81 -78 -35
41 33 41 59 69 68 69 68 46 52 -8 57 36 44 21 29 32 22 36 5 -5 8 23 31 43 32 19 -12 -32 -45 -25 -52 21 12 -39 -64 -79 -48 -38 -27 -38 -50 -33 -40 -45 -37 -51
51 27 82 94 104 87 79 96 4 1 2 31 49 34 3 32 45 39 44 36 44 23 16 32 48 34 -3 -2 21 -19 -31 -12 -13 -10 -5 11 18 16 -5 -13 -10 -32 61 -12 21 62 47
43 21 95 113 144 85 118 46 -20 36 7 46 58 63 8 7 25 46 67 68 78 72 42 80 -1 16 -30 -42 -14 -25 -16 -25 -5 3 -23 12 4 1 27 10 23 19 25 41 50 73 76

GFSGBSN_con_3kmhel_090.txt.gz
Helicity
17 18 19 7 18 19 30 23 54 70 75 95 106 218 274 210 282 131 85 77 65 35 53 44 101 176 176 124 93 121 80 94 109 84 59 41 30 46 47 62 65 50 32 44 25 19 49
27 25 17 5 34 51 54 61 72 58 55 75 86 117 170 180 165 147 112 105 68 90 58 69 129 175 175 75 100 64 78 99 93 76 48 46 48 68 58 33 41 63 52 34 39 58 65
24 24 43 42 54 72 66 65 61 55 68 61 75 84 103 138 168 170 107 127 90 72 77 85 93 153 161 92 100 78 76 81 110 69 1 26 37 51 89 21 19 7 32 26 37 35 -1
52 51 64 58 79 96 85 81 75 62 69 79 71 96 91 158 104 117 162 100 87 64 57 67 93 160 87 79 64 54 49 82 67 31 0 21 28 38 32 101 33 15 43 -48 -25 2 17
64 58 64 58 54 71 59 70 87 67 89 93 78 81 93 104 107 57 144 95 76 66 46 99 120 113 61 44 64 58 57 35 22 15 9 -21 46 27 67 122 6 44 -16 -14 13 56 48
65 51 51 45 54 49 65 76 66 92 71 96 83 80 92 94 174 105 141 135 94 100 78 112 139 96 78 81 69 59 47 21 18 22 14 26 20 28 33 20 -35 -23 3 2 92 32 -1
42 35 32 55 59 74 74 82 74 80 97 79 80 77 76 52 80 139 155 73 105 93 82 102 97 115 103 66 61 52 51 40 33 4 -18 21 -10 -12 28 14 26 27 64 44 3 1 -24
40 36 41 52 55 70 96 91 74 66 65 61 32 65 70 19 114 58 62 80 52 99 39 34 100 76 41 45 53 60 50 16 -12 -33 7 17 -2 -5 4 67 7 0 50 28 7 -23 -3
25 22 48 56 70 66 71 41 3 -7 2 25 32 39 60 65 35 50 40 36 79 60 41 63 86 59 21 59 43 39 49 1 -15 23 25 11 30 13 86 51 37 10 15 37 8 -9 22
16 29 39 57 98 94 52 20 5 5 9 11 14 15 39 63 1 -16 14 19 19 31 36 27 23 47 42 22 20 37 56 6 16 18 27 42 11 47 146 50 27 1 1 32 57 54 6
65 55 60 145 89 46 36 23 2 2 17 13 16 20 19 37 9 4 -9 75 114 122 -34 43 41 7 24 -2 9 52 46 33 43 33 35 56 16 77 93 55 38 6 3 78 97 76 65
104 89 93 101 84 35 25 23 12 13 21 25 24 29 24 14 -17 16 49 85 162 43 -20 41 31 15 6 17 16 20 45 43 21 42 21 20 10 73 59 38 51 24 10 39 69 55 15
116 122 77 94 82 47 19 19 20 11 1 -8 -22 -37 6 2 -5 -8 82 132 68 16 37 25 -6 -9 -16 -46 20 26 25 44 48 27 -8 50 47 54 64 61 67 33 49 62 86 52 42
133 156 48 81 46 23 1 14 3 -9 -28 -21 -25 -7 10 2 -5 19 61 142 40 37 33 17 -16 -8 -46 -30 21 23 32 42 45 31 24 70 65 73 72 70 52 63 70 100 104 58 43
256 208 26 51 26 5 9 11 -1 -11 -1 -5 8 77 83 44 -4 55 125 89 68 60 23 -39 -34 -39 -65 38 27 12 44 65 52 103 122 65 79 96 46 86 59 66 54 41 57 50 47
343 132 6 27 39 4 7 3 5 4 10 4 19 179 104 136 22 131 115 59 83 41 2 -44 -91 -97 -76 42 17 39 48 41 59 65 71 43 59 79 53 96 75 83 90 75 75 67 86
418 10 2 31 35 5 5 18 8 17 13 -9 130 199 144 44 107 148 65 24 73 29 -11 -1 -79 -98 60 45 33 42 36 40 69 67 45 56 49 69 72 75 143 120 98 74 51 36 4
149 -63 58 35 12 3 28 24 30 29 11 -34 245 188 146 114 122 88 65 21 42 30 62 38 -109 43 69 60 34 21 29 50 58 72 54 52 45 55 53 66 82 116 153 117 56 38 37
-22 63 41 19 0 20 24 30 41 21 -35 41 331 195 208 119 61 104 61 48 18 36 18 -65 3 85 61 64 40 48 50 48 42 38 40 49 36 54 50 31 33 63 75 112 102 64 73
103 62 35 7 7 31 19 33 36 7 -19 31 222 165 66 87 95 72 44 14 14 44 15 -1 78 70 77 71 66 56 49 43 51 32 32 36 34 32 28 26 53 66 68 83 92 42 31
125 59 38 4 18 28 31 39 24 11 5 65 149 181 110 37 55 41 40 29 -3 3 18 55 98 92 75 62 73 57 48 44 27 39 25 23 17 29 25 31 38 68 78 85 69 75 62
96 51 28 25 24 32 42 37 27 15 29 48 117 164 99 78 18 34 34 36 0 43 31 42 70 54 79 41 80 36 34 44 45 21 29 28 32 27 23 18 27 45 57 56 81 84 66
93 53 34 20 22 40 48 48 32 21 5 36 72 100 104 96 49 24 48 11 10 49 4 22 71 8 -32 62 65 56 55 35 25 42 35 24 28 41 54 56 52 22 41 30 39 45 56
82 53 38 15 37 66 68 45 15 33 6 -16 59 55 80 52 47 17 18 9 7 19 6 32 46 28 42 27 53 60 60 25 37 46 34 -3 12 5 -1 37 -2 9 27 31 25 19 5
72 61 49 43 49 69 79 28 54 68 43 21 47 23 40 23 15 2 -3 26 -1 3 9 19 36 39 10 49 -46 -61 -49 -56 -31 10 16 -6 -16 -27 -35 -31 -19 -24 -14 -7 -7 -17 19
70 51 60 47 65 97 81 86 73 70 2 36 40 28 12 -4 -7 14 -1 9 -2 0 16 10 21 35 42 -8 -32 -59 -71 -80 -102 -87 -15 -19 -28 -27 -39 -47 -33 -48 -25 -22 -16 -36 -30
58 33 45 44 62 68 50 51 55 30 -3 28 20 18 6 -30 -5 0 -39 -9 5 16 2 6 12 18 13 -21 -48 -46 -45 -59 -13 -37 -61 -44 -50 -27 -22 -4 -23 -37 -15 -6 3 -6 13
39 24 54 69 63 37 42 65 -36 14 -7 13 29 31 17 -11 -19 6 4 8 5 19 25 -18 6 -28 -42 -29 -42 -61 -61 -59 -19 -30 -25 -4 17 20 8 31 38 -1 29 4 61 76 63
10 8 51 93 81 52 52 -14 -20 49 -3 38 36 39 17 -10 -25 14 28 39 33 20 23 1 -16 -28 -52 -42 -32 -37 -28 -31 4 33 -2 38 21 12 23 14 -24 9 29 41 52 66 63

GFSGBSN_con_3kmhel_096.txt.gz
Helicity
22 25 20 19 28 34 30 35 40 36 45 47 52 62 65 69 97 127 86 99 220 79 99 110 64 69 60 41 56 178 131 110 65 55 47 39 33 44 31 47 83 137 58 70 63 68 79
29 22 22 33 25 19 12 6 6 -2 14 13 45 54 58 59 74 79 121 93 154 167 89 127 63 71 73 72 169 149 68 79 29 45 38 45 51 113 144 103 112 94 70 13 17 5 15
39 32 41 43 25 25 23 8 15 23 22 18 32 42 47 63 74 89 94 118 101 104 98 94 69 47 48 35 126 133 87 52 49 42 32 42 53 69 83 50 38 61 40 -4 -11 9 24
34 45 41 32 33 16 16 25 26 25 40 31 35 35 46 56 64 109 156 138 2 61 170 61 36 107 77 43 38 82 62 45 55 51 44 25 60 31 16 26 14 13 26 57 77 -5 -0
33 43 39 26 35 29 35 30 43 56 45 49 34 32 34 65 32 108 249 136 90 145 52 64 89 40 28 103 73 44 31 14 53 50 28 13 52 34 33 31 21 22 7 24 25 -17 64
42 53 62 57 55 59 75 57 45 44 46 57 63 20 11 22 -8 11 133 169 152 133 127 81 141 68 56 44 63 65 51 43 80 66 58 44 43 14 41 29 30 -12 56 48 -15 19 84
90 106 116 101 117 65 60 47 19 32 44 34 33 23 10 7 -13 64 23 94 180 83 119 83 62 110 64 116 89 47 43 55 67 25 -13 23 35 8 -0 46 62 -23 -43 -56 -49 -35 40
130 146 158 164 148 88 74 24 -25 24 33 40 29 22 -6 22 32 52 -51 63 20 109 85 6 47 33 91 54 55 46 42 33 25 -24 -5 32 10 23 38 3 -18 -49 -63 -52 32 53 30
65 50 93 131 283 325 48 -31 -51 16 36 32 26 12 10 41 48 -23 -7 56 -19 56 61 21 13 37 46 49 33 77 42 13 10 -20 16 10 -0 -5 47 17 17 67 57 82 109 9 19
105 120 126 562 745 150 -95 -62 -16 15 14 16 7 11 -3 22 10 9 -38 4 -6 21 73 9 11 34 64 36 11 61 35 -1 -22 -7 -14 25 90 46 36 33 30 73 28 122 96 1 35
94 283 361 483 274 -105 -128 -40 -6 6 10 12 6 -9 -17 1 2 -22 37 -11 3 92 91 32 41 30 34 -2 40 -4 -11 5 -11 -8 -10 8 -21 -20 41 58 22 47 9 21 23 -16 -19
219 79 46 95 -42 -68 -47 -26 -3 12 2 -6 -0 18 35 19 4 17 23 32 8 97 100 21 44 43 3 30 8 8 9 15 7 18 45 52 -43 -38 4 6 39 6 49 29 -2 12 51
31 63 81 39 4 3 9 18 3 3 4 7 14 14 16 24 53 -10 9 52 71 95 19 31 59 22 19 30 38 27 10 12 33 37 17 -8 36 -18 -38 -1 4 14 2 26 73 65 53
-70 66 51 35 44 19 28 27 16 12 -4 -23 -31 -17 -47 14 37 36 34 72 79 15 29 46 50 34 64 18 39 47 13 46 36 25 25 25 33 37 20 34 7 -21 15 55 85 24 86
45 70 84 56 32 23 23 23 13 -21 -2 60 108 21 -15 -21 11 18 66 8 129 62 48 65 37 66 69 27 27 43 51 54 23 8 25 43 22 83 92 48 -2 51 83 53 95 74 182
101 104 88 28 12 21 36 35 36 82 110 110 31 106 141 85 29 52 49 161 57 119 121 104 88 125 47 40 58 74 51 53 76 72 77 54 27 63 55 54 80 71 63 100 111 131 181
137 116 70 26 34 45 50 59 97 102 69 86 225 287 142 66 45 66 234 103 46 144 103 123 171 118 23 42 89 85 35 35 31 50 68 75 33 67 111 66 54 60 66 101 158 142 100
132 95 64 45 41 63 87 103 130 101 98 123 230 152 98 110 107 77 89 79 24 120 149 128 173 122 65 77 69 35 32 24 45 43 50 48 43 56 59 51 59 109 93 110 63 111 85
114 55 46 33 41 56 66 83 111 76 49 159 126 80 144 92 76 67 49 15 30 71 138 150 100 75 72 76 69 48 38 48 43 29 40 62 49 69 60 61 63 56 123 87 93 74 50
97 33 21 18 19 20 25 51 60 41 41 72 68 53 65 73 73 35 19 7 8 96 157 164 139 70 68 57 53 58 46 38 68 60 79 53 36 43 40 34 57 54 113 134 55 -23 46
73 32 14 2 -19 -20 2 24 33 31 25 53 36 40 28 29 28 16 10 14 13 113 153 177 106 74 95 97 38 61 47 83 57 72 54 22 11 9 -8 6 11 27 52 87 56 54 -25
57 34 14 8 -43 -46 -29 -29 7 4 44 18 46 52 32 32 20 41 28 -19 36 86 146 144 92 54 63 60 81 43 70 52 42 36 30 48 24 25 25 20 2 13 40 32 63 24 -3
50 44 10 10 -13 -59 -42 -35 -20 -37 -3 6 32 37 44 37 65 87 51 28 49 93 66 93 144 80 58 92 70 25 7 19 28 34 35 23 -1 14 39 25 17 32 22 26 3 20 -21
59 19 13 2 9 -12 -36 -43 -39 -36 -38 4 20 38 87 100 78 64 34 50 5 28 22 27 93 67 94 95 101 14 -2 2 31 44 50 44 7 2 2 20 49 -6 -12 -18 5 14 39
51 32 -0 1 -4 7 -13 -28 -27 -29 -30 -18 9 62 109 106 68 24 32 36 41 -38 -28 -34 5 63 104 93 45 26 -2 -17 -38 -4 31 32 29 14 23 40 10 -9 -9 -10 -8 7 28
54 48 4 -11 7 24 15 -8 -16 -12 -4 -7 -8 14 64 72 61 1 48 9 6 -16 -39 -49 6 82 51 6 -2 -29 -58 -31 -41 -72 -60 -17 -15 -27 -21 -19 -8 -19 -21 -11 -1 -24 -13
51 40 31 -14 16 33 -5 -3 15 12 6 -21 -0 5 48 69 15 7 19 -12 -18 28 -41 -45 -47 -28 -19 -32 -52 -34 -57 -57 -34 -76 -113 -109 -86 -57 -37 -4 -28 -55 -38 -23 -16 -22 -42
53 38 18 18 -23 54 43 66 58 41 18 -0 17 7 24 30 6 2 -3 -0 -6 18 -0 -42 -39 -52 -62 -48 -48 -56 -43 -70 -53 -63 -66 -65 -45 -7 -20 10 26 -55 -35 -24 -31 -21 16
52 38 19 25 13 -5 49 57 54 48 35 1 26 13 15 16 6 -19 -33 -27 -32 -27 -8 -2 -18 -41 -56 -44 -43 -52 -12 -40 -34 8 -40 2 -19 9 -3 3 -47 -36 -47 -21 -17 23 26

GFSGBSN_con_3kmhel_102.txt.gz
Helicity
29 46 70 83 89 107 98 104 59 81 90 92 60 33 58 56 60 46 39 89 122 74 51 159 126 213 241 188 100 41 52 39 78 86 82 101 119 132 126 108 126 99 90 99 77 64 70
10 20 39 54 92 105 150 199 135 111 80 78 56 52 52 53 46 32 22 59 75 73 53 150 163 165 105 133 73 42 103 104 71 85 89 107 92 91 119 103 137 135 112 77 49 16 68
24 40 60 50 48 62 70 69 99 53 78 62 70 77 56 53 49 39 49 47 61 54 56 46 143 199 182 65 91 125 116 72 61 82 93 97 81 126 124 116 133 102 96 69 38 92 101
35 63 100 70 81 147 79 -51 154 152 112 68 44 60 42 34 47 45 43 69 50 69 26 86 164 236 114 82 35 87 77 84 85 99 108 115 118 109 101 94 117 121 129 146 86 86 36
131 93 92 96 95 47 66 245 253 219 95 50 34 46 42 40 51 51 89 119 139 62 43 175 254 198 141 104 67 34 68 79 91 81 78 95 93 81 102 151 146 106 100 71 86 18 26
109 125 27 77 55 43 29 32 13 -34 24 40 42 38 36 48 41 46 61 50 70 66 233 336 274 157 101 68 47 67 31 54 80 88 79 83 85 111 121 119 130 83 62 35 31 31 60
2 -90 48 28 20 39 28 34 -23 -25 -13 -7 4 9 33 36 34 30 26 -5 180 263 293 180 124 158 91 71 114 40 33 92 95 61 65 65 97 89 37 49 39 43 17 16 80 179 42
130 111 82 48 44 32 29 30 34 15 -24 -11 2 12 11 8 6 28 13 -17 42 109 267 119 56 142 6 101 52 70 72 85 88 51 50 63 22 34 75 50 18 -9 20 113 154 34 7
120 111 81 44 45 33 32 32 33 36 28 17 10 12 15 16 8 -12 -57 0 -17 120 174 77 78 77 101 62 41 9 41 32 27 25 9 42 16 57 28 46 12 16 80 92 76 60 0
125 91 78 57 41 35 36 18 22 26 27 37 42 41 14 26 11 49 56 56 57 116 66 73 157 81 49 54 73 24 -26 21 11 -3 4 20 42 19 2 41 13 58 16 66 30 -7 -23
106 86 78 60 45 33 35 34 26 34 38 30 45 39 51 21 81 36 45 -3 89 78 148 91 69 67 52 59 26 9 6 20 6 -1 5 -2 19 -11 -27 4 1 48 18 15 28 36 -1
90 62 70 59 59 41 44 38 18 41 78 128 90 88 74 63 66 67 73 59 59 142 80 72 54 50 31 58 42 31 12 8 -11 -20 18 54 7 -7 16 -7 11 34 11 34 105 63 91
93 40 59 51 55 75 61 40 38 31 7 27 110 49 61 86 81 68 36 111 148 134 110 69 51 22 38 44 23 25 33 27 18 10 25 -12 5 16 7 -3 -4 0 3 77 44 51 78
76 49 35 30 42 59 56 20 8 3 -6 -26 -8 35 79 69 83 51 112 160 111 75 100 92 67 51 70 52 45 49 62 68 71 19 37 42 11 9 3 3 -14 -20 -8 72 97 29 5
64 61 22 7 19 31 37 35 14 20 63 30 45 106 92 102 56 86 125 134 111 157 118 63 89 85 70 76 54 59 94 65 38 13 44 29 36 23 68 49 -1 -22 34 26 34 82 91
53 45 21 -1 16 2 1 -2 0 17 42 95 113 96 155 168 131 169 103 91 150 158 130 136 111 92 74 37 59 67 54 42 54 64 23 37 33 44 26 24 36 60 36 42 72 76 74
47 39 39 0 7 6 -15 -18 -14 -14 9 13 48 56 187 193 121 94 143 136 164 166 131 123 101 77 59 83 69 65 51 51 40 27 133 58 44 51 24 26 51 50 100 105 130 93 82
59 35 32 27 4 2 -1 -24 -21 -26 2 -29 62 37 125 109 49 89 128 142 159 161 121 112 107 78 74 63 50 60 79 93 52 33 70 85 60 43 40 45 59 85 159 141 120 126 88
56 49 29 20 16 6 -7 -9 -19 -31 -36 27 34 47 104 71 16 46 98 124 142 120 119 111 104 67 75 38 32 54 69 84 65 35 52 46 41 66 53 51 54 104 119 123 95 69 80
79 45 40 27 14 8 6 -8 -28 -30 -25 31 74 68 30 42 56 63 69 117 122 158 144 126 120 79 48 53 47 50 58 76 66 46 38 26 36 43 49 97 157 144 188 107 74 75 82
74 57 32 23 19 18 7 6 -2 -11 -26 33 79 72 62 47 66 51 19 86 132 83 102 84 83 76 41 45 63 68 69 65 58 48 28 22 22 35 42 62 65 86 136 101 83 52 -2
78 58 46 15 10 5 1 2 2 9 -19 29 102 84 44 51 26 5 -10 17 37 84 66 99 48 66 44 43 52 83 86 61 70 80 34 32 32 26 29 41 55 28 82 102 101 74 25
81 68 47 39 9 15 10 16 8 14 -15 35 45 56 61 37 -16 -57 -37 -25 12 28 30 39 63 32 51 72 110 114 97 58 27 41 55 40 25 17 38 19 23 50 63 66 61 41 8
79 65 46 31 31 0 8 7 15 30 36 45 49 68 47 -18 -59 -86 -63 -32 -20 -10 12 24 20 17 37 57 38 28 49 43 30 24 2 10 12 7 21 19 39 14 36 32 2 4 -10
100 65 55 31 24 6 3 31 40 52 36 55 37 51 44 -24 -78 -102 -95 -53 -42 -36 -40 -4 17 33 54 13 12 8 13 5 3 1 5 -19 -22 -12 -18 -22 -1 -8 1 -2 1 -3 4
115 64 63 40 15 14 16 78 76 39 41 31 52 35 25 6 -43 -62 -80 -66 -65 -51 -55 -24 1 10 -18 -47 -42 -20 0 -16 -3 8 12 11 25 -17 -24 -33 -24 7 26 31 -10 -16 -6
119 72 52 67 34 36 48 58 91 57 0 16 29 44 36 10 -13 -30 -63 -80 -87 -82 -56 -45 -44 -50 -61 -64 -47 -19 0 -34 -28 -42 -65 -76 -85 -81 -66 -54 -34 -35 -52 -40 -37 -20 -18
117 86 44 61 59 54 82 81 68 49 32 28 29 38 57 35 8 9 -20 -61 -81 -90 -49 -54 -53 -69 -64 -25 6 2 14 3 -20 -8 -44 -59 -87 -74 -84 -58 -7 -58 -45 -45 -44 -36 -31
113 93 55 46 60 48 47 66 49 43 36 45 29 3 19 61 45 6 6 2 -8 -39 -73 -68 -51 -50 -41 -28 -44 -32 -5 -15 -14 3 -29 -25 -30 -38 -28 -32 -30 -19 -28 -45 -23 15 23

GFSGBSN_con_3kmhel_105.txt.gz
Helicity
12 21 35 54 57 64 57 115 67 -5 60 72 57 49 67 63 17 32 40 62 71 45 94 83 85 142 408 188 194 142 24 -9 113 96 72 123 139 122 106 103 125 103 89 97 92 79 81
11 56 104 139 68 41 33 36 233 17 -3 93 73 108 82 59 36 41 50 64 86 86 80 93 112 288 243 119 93 259 98 116 95 105 101 101 79 105 106 104 105 123 92 72 64 66 94
103 150 118 97 54 48 40 12 39 309 443 191 147 57 81 56 67 59 54 62 73 101 113 125 61 268 249 72 32 70 116 85 86 96 124 113 94 121 99 100 111 97 67 52 72 103 110
147 149 145 105 59 28 22 16 -30 -52 10 66 78 41 51 57 71 88 83 76 105 96 123 18 94 199 88 46 52 161 90 91 92 97 98 94 83 105 93 88 102 84 94 110 93 135 104
114 120 118 97 62 22 24 30 -8 -22 -14 -8 -10 3 42 47 59 51 81 120 116 81 51 121 206 187 100 92 117 39 26 86 82 78 92 89 95 95 98 97 115 111 99 65 118 61 112
91 67 69 74 70 36 23 20 37 -1 -14 3 13 6 1 11 31 31 55 87 149 171 158 225 178 155 105 67 75 95 83 56 65 63 86 84 91 100 93 111 80 82 94 99 102 85 114
75 6 49 50 79 34 31 28 35 35 28 -9 -8 -8 -12 4 10 27 38 87 123 139 228 113 78 113 77 94 64 63 61 77 66 62 70 61 75 55 67 82 110 96 73 70 78 85 64
62 -1 45 35 78 43 37 45 34 28 30 41 39 -10 -4 4 15 16 14 95 63 140 173 167 167 106 78 56 70 54 60 64 62 49 44 74 47 52 63 49 39 13 15 32 56 59 12
60 8 20 28 59 66 38 37 42 27 17 24 36 20 8 14 26 8 9 83 9 81 174 143 129 144 89 68 83 24 33 29 23 13 15 69 37 65 26 19 31 16 24 40 49 105 29
63 36 -18 29 26 58 10 -4 -1 -5 2 21 19 21 28 39 43 78 82 133 95 205 96 71 69 125 107 90 68 48 13 13 4 0 7 22 38 24 18 68 71 34 26 59 28 -8 32
65 28 3 5 18 30 13 -52 -103 -75 -42 -15 32 25 33 31 71 52 65 94 67 90 46 53 62 38 83 46 23 14 -25 17 -3 -1 11 2 19 23 8 22 36 47 -15 -8 20 56 18
59 28 -12 -4 29 8 19 -18 -36 -43 -32 9 69 52 63 71 112 139 136 55 50 88 100 50 99 39 30 38 28 25 -2 6 -7 -8 -4 -4 -12 -8 27 9 10 10 -9 32 31 51 66
56 33 -3 -20 2 25 11 18 14 34 12 -1 33 43 64 82 98 107 65 54 82 105 101 84 58 30 29 30 15 10 -7 -21 -20 -11 -5 15 33 39 20 23 -6 -11 -18 7 18 26 65
60 42 8 -1 -13 -2 13 16 36 42 73 63 46 49 58 72 62 36 57 90 70 83 78 83 43 40 67 53 37 28 31 4 62 -23 28 42 38 19 8 3 -18 -30 -30 35 32 51 20
64 45 30 8 -7 -8 -1 1 12 39 59 60 75 56 105 139 139 139 120 127 68 86 66 40 66 72 46 70 67 83 86 41 13 26 39 29 42 21 76 36 -27 -37 0 -7 3 24 90
61 57 35 25 5 -1 -2 -2 -5 7 39 110 143 94 196 181 128 124 126 37 86 88 76 81 76 74 63 53 47 45 49 50 34 24 18 24 42 49 8 18 21 65 12 1 17 65 62
83 56 47 27 23 12 7 -7 -4 9 21 108 105 65 126 108 85 58 112 103 123 110 87 106 76 72 65 68 44 50 61 47 42 51 72 50 46 42 39 37 65 83 74 34 33 40 39
90 66 47 36 31 29 19 9 1 -1 15 56 91 64 89 31 13 93 134 140 140 119 77 63 85 62 65 55 64 61 89 63 47 65 77 82 43 58 99 68 42 130 126 53 60 96 91
92 81 57 42 33 28 27 22 14 -3 1 54 71 64 58 18 30 71 122 116 149 98 64 36 36 39 38 50 53 48 70 54 43 36 49 48 44 62 61 94 79 93 124 81 53 52 85
108 82 75 53 38 31 25 24 14 5 0 34 65 50 26 26 43 44 50 82 65 106 106 67 59 43 41 58 48 57 75 54 39 31 24 30 35 48 66 93 141 162 153 58 41 38 69
124 90 82 66 50 29 20 30 31 9 3 49 5 39 46 -24 6 7 7 35 44 14 69 29 46 47 54 33 41 45 71 60 46 33 24 34 46 45 61 65 94 115 113 81 41 83 20
114 97 76 76 49 48 25 45 43 6 10 78 40 26 14 0 -21 -68 -42 -7 -6 34 25 70 45 73 39 35 37 40 44 41 45 67 40 37 62 36 54 40 43 49 78 62 67 67 -1
108 97 76 63 49 49 43 35 29 22 18 81 33 -27 -1 -41 -79 -107 -68 -25 -15 -4 15 30 67 51 44 43 85 87 58 51 49 33 31 22 47 42 51 12 30 42 40 50 42 24 25
128 91 73 64 43 38 30 33 53 47 42 56 58 21 -52 -68 -88 -87 -78 -57 -36 -21 -2 24 23 32 38 47 26 26 32 29 11 -16 -28 -23 40 24 16 34 42 8 5 9 4 13 8
152 91 78 63 39 17 20 31 58 44 26 47 35 44 -20 -65 -41 -93 -98 -66 -59 -54 -53 -14 -4 16 51 17 9 16 21 12 -9 -19 -28 -43 -55 -25 -14 7 8 -14 -22 -13 22 -7 -7
159 104 82 73 63 56 37 42 48 40 17 37 42 35 23 -18 -54 -6 -34 -78 -88 -73 -72 -46 -30 -22 -62 -53 -43 -37 -38 -39 -36 -27 43 41 55 21 -34 -47 -23 -4 14 42 50 -37 -32
166 113 81 69 80 79 86 58 51 46 20 24 27 33 28 21 -11 -18 -14 -34 -64 -80 -72 -65 -62 -66 -79 -79 -45 -31 -36 -55 -53 -68 -81 -102 -102 -100 -95 -92 -57 -54 11 20 -81 -48 -72
165 115 93 71 68 76 86 61 26 26 42 27 12 24 36 33 16 8 12 5 -32 -54 -57 -74 -75 -52 -68 -21 -10 -8 -20 -50 -60 -63 -78 -85 -93 -79 -91 -54 -41 -97 -22 -75 -47 -28 -43
152 134 100 73 66 63 48 57 14 34 39 45 27 6 26 45 23 0 -10 2 7 14 16 -18 -17 -32 -3 15 29 32 34 7 -9 -4 -38 -24 -7 -20 9 -10 -54 -64 -49 -24 -32 -28 -2

GFSGBSN_con_3kmhel_108.txt.gz
Helicity
39 81 51 84 38 30 38 33 25 -31 168 11 14 99 82 75 59 87 26 33 24 21 70 150 148 144 114 212 271 138 58 32 120 146 106 126 163 137 130 111 111 103 100 106 86 62 60
61 45 34 51 22 56 44 45 -35 -47 64 219 226 196 97 83 66 74 42 32 43 36 53 66 7 88 149 51 110 240 138 87 115 97 112 122 106 110 110 107 97 76 59 58 46 69 81
24 4 34 23 33 55 52 44 -40 -29 -50 -54 44 54 69 64 41 56 49 40 36 47 81 102 130 202 77 110 67 47 141 121 101 91 122 101 82 113 87 88 68 66 46 51 60 67 54
27 6 27 -8 49 47 48 44 47 -33 -15 -24 -28 -12 21 77 66 70 72 59 63 63 44 73 25 242 159 159 25 77 124 136 91 89 82 78 75 85 88 58 76 53 41 67 59 77 72
39 -21 -17 -22 29 68 39 42 40 39 -12 -5 6 13 25 53 74 83 111 92 69 51 35 49 106 66 17 6 -11 48 25 69 94 96 86 76 83 79 79 78 81 82 64 40 58 58 82
46 -36 -7 -1 4 67 55 44 25 18 25 11 -0 10 10 41 79 91 112 112 118 79 117 87 118 76 39 45 82 58 30 60 85 81 92 89 85 88 87 88 53 52 56 55 37 73 83
49 -36 -47 -15 2 49 81 77 52 5 13 6 -18 -12 6 34 71 74 88 111 102 89 161 112 85 33 45 68 68 56 21 61 38 68 84 67 77 41 28 49 71 74 68 55 100 108 110
55 -13 -40 -6 19 39 66 61 35 39 24 11 3 -5 -18 -5 37 66 77 101 121 147 160 164 64 88 54 57 55 44 39 51 41 65 50 72 52 43 37 45 55 56 53 52 52 42 28
56 14 -37 -23 14 37 56 48 47 85 70 46 15 -0 -11 14 24 105 131 129 121 138 76 113 91 75 42 50 48 22 32 46 36 35 30 47 37 60 49 43 43 56 90 76 83 93 17
58 38 -8 -24 -0 16 53 43 55 85 96 86 46 31 6 64 31 146 95 164 127 133 41 62 67 84 56 52 52 29 27 36 20 27 40 39 9 17 35 45 64 71 23 11 21 9 35
56 54 10 -13 -15 -7 21 55 38 89 113 94 69 59 52 33 68 57 107 132 93 69 74 45 83 64 70 65 25 14 21 9 40 30 24 10 20 28 21 42 74 61 36 43 65 71 27
58 47 34 2 -19 -22 -25 11 54 68 138 116 66 48 94 104 85 113 104 85 49 42 47 15 12 15 64 20 25 32 12 10 1 14 25 30 27 7 35 23 38 34 15 38 16 -29 -4
69 49 42 19 -1 -16 -25 -37 -18 21 102 131 105 45 31 28 47 67 42 14 30 48 59 50 36 43 38 33 23 28 41 10 7 2 5 14 -6 26 16 14 -1 -22 -11 -23 -24 -2 17
88 64 43 34 11 -7 -15 -25 -48 -26 12 92 157 108 53 63 44 22 21 20 37 50 41 59 31 43 54 61 46 46 34 5 15 -13 -21 -8 15 26 21 12 -13 -29 -42 -5 7 42 65
85 85 53 37 27 5 -7 -18 -18 -28 16 57 76 83 81 142 105 28 28 55 27 42 31 36 72 67 67 69 49 88 104 -26 -55 73 61 43 41 11 73 32 -7 -42 -5 -25 20 24 57
89 80 78 45 28 18 8 -14 -22 -21 -27 54 54 51 94 143 104 81 68 25 42 36 39 50 56 68 70 58 46 43 59 51 40 72 49 38 34 25 2 10 1 8 -0 -8 13 53 63
113 85 77 71 47 23 18 10 -16 -29 -9 93 56 39 72 50 60 47 86 50 74 49 38 78 90 68 59 73 61 57 50 55 61 72 107 57 31 32 10 8 12 14 36 17 21 22 49
130 98 85 76 69 47 11 14 3 -28 -23 56 53 33 72 11 30 65 83 77 88 78 63 62 70 57 75 68 76 69 80 90 82 99 97 89 59 79 99 99 58 48 35 50 54 59 82
146 123 87 80 78 68 26 28 19 -11 -26 68 46 26 79 8 2 47 75 77 103 48 52 34 44 28 39 60 71 73 71 56 54 84 79 71 77 118 108 66 61 63 71 44 102 114 92
148 128 103 71 78 76 37 44 37 -8 -6 69 78 14 4 24 4 9 14 45 38 66 66 58 52 55 41 51 56 56 53 44 47 52 43 34 54 73 123 138 157 140 92 35 34 35 13
166 135 114 81 53 67 49 63 17 -0 4 66 65 31 10 -42 -40 -51 -12 6 32 25 57 27 41 44 77 60 60 49 59 54 46 36 42 50 75 61 78 83 76 122 85 86 68 45 32
163 143 104 82 55 40 57 47 24 15 22 75 71 40 -9 -14 -15 -43 -32 -22 -24 28 37 54 39 78 44 42 52 66 50 41 57 52 35 41 72 54 57 52 48 60 26 21 5 9 9
136 155 111 74 49 23 36 26 45 11 41 76 53 40 -5 -23 -11 -15 -0 -6 -16 1 13 10 45 48 42 58 94 112 87 67 74 54 55 47 46 51 48 36 35 33 29 22 21 18 19
104 151 127 76 57 27 32 65 45 21 39 67 60 41 -19 2 15 22 16 3 -2 -8 7 19 7 19 25 44 33 23 38 48 48 48 49 37 51 4 37 12 29 15 4 -9 -6 3 19
89 150 135 91 65 51 29 71 73 44 24 39 46 44 -2 23 5 29 49 13 -12 -11 -7 2 -10 -3 16 -6 -1 -5 -12 -11 21 16 -21 -23 -57 -4 12 -4 -15 19 10 -10 12 -23 47
102 146 143 93 73 65 50 48 86 64 36 36 26 33 29 35 14 9 36 15 11 -18 -33 -9 -28 -37 -71 -55 -36 -32 -41 -33 -37 -27 67 33 32 13 41 23 -6 15 41 78 70 -46 47
105 147 128 93 91 90 67 33 38 75 63 33 26 24 24 18 11 37 69 47 1 -9 -21 -34 -26 -38 -56 -45 -35 -29 -19 -2 -20 -12 -23 -65 -86 -60 -62 -57 -8 53 62 98 112 50 34
82 143 118 100 111 92 57 58 30 40 85 59 29 11 14 19 15 19 13 49 49 39 35 -47 -66 -18 18 40 28 28 15 -19 -35 -13 -18 2 9 36 35 16 20 51 54 30 -27 -0 -6
65 123 127 109 101 98 64 58 41 37 64 87 85 36 20 18 12 7 -7 -0 44 44 50 87 63 8 31 72 79 87 105 124 129 73 72 59 73 86 88 76 59 54 -9 29 29 -7 15

GFSGBSN_con_3kmhel_111.txt.gz
Helicity
-24 -33 -47 -31 31 58 70 72 65 55 -6 9 123 177 127 51 51 76 56 28 -5 -3 93 120 89 92 124 194 211 141 133 35 134 118 104 113 139 124 125 108 106 108 90 83 57 57 56
-20 -31 -48 -34 6 62 66 84 76 59 12 -18 20 8 79 78 46 30 43 34 -11 0 8 30 115 85 131 211 161 212 175 192 131 131 118 129 118 103 110 106 96 61 68 63 52 69 54
33 -24 -28 -26 -1 34 57 97 86 55 47 1 15 19 64 46 37 24 40 77 10 -21 3 63 57 108 188 144 161 124 72 236 106 100 164 120 81 124 103 92 76 68 73 78 55 50 45
70 1 -14 -26 -7 29 39 65 114 93 67 29 1 32 35 85 54 51 64 100 79 13 -42 25 96 144 97 65 30 97 89 145 121 116 91 77 75 103 101 66 84 70 52 92 38 47 61
72 24 -7 -7 5 3 15 30 61 122 90 63 24 5 42 67 99 74 98 103 14 26 -12 19 146 172 115 63 36 2 19 103 124 100 99 71 79 92 88 101 101 112 66 68 69 44 64
59 51 10 -17 -5 2 -2 5 22 106 98 79 42 28 11 58 94 101 52 58 52 88 47 42 7 2 -52 28 69 12 20 37 94 112 112 86 86 99 98 89 62 62 63 57 53 60 73
47 43 23 -15 -22 -6 -22 -6 19 67 109 91 49 34 10 54 109 88 33 48 115 140 151 78 53 30 39 56 90 24 -9 47 55 86 64 72 75 57 43 49 66 67 60 59 124 81 49
51 47 34 9 -15 -8 3 -9 9 37 110 104 64 50 8 28 85 78 63 106 92 113 102 114 43 25 9 25 21 29 -13 24 43 44 41 59 50 46 43 64 69 66 65 87 68 62 27
58 53 36 26 -6 -13 19 20 -16 27 81 89 83 40 28 17 84 200 125 138 155 100 38 92 70 51 35 62 38 6 1 26 29 36 28 39 38 57 61 65 57 62 95 94 65 60 -20
69 50 46 33 10 1 -10 11 36 -4 42 59 76 52 36 87 81 155 101 68 85 65 16 65 63 20 18 -10 3 -5 21 28 22 28 21 27 28 37 55 67 42 61 19 -2 15 10 44
83 61 41 47 33 15 10 3 7 54 15 62 60 102 36 38 69 85 82 91 68 46 14 23 -4 22 45 1 -11 8 7 27 24 37 43 30 23 16 11 16 48 32 28 26 24 37 42
83 69 44 43 47 31 27 27 14 29 61 43 47 92 119 63 45 75 73 61 39 22 42 34 45 33 2 3 8 6 13 7 10 30 26 25 32 19 17 13 60 48 19 14 -27 -41 -27
74 73 61 36 39 42 37 38 41 39 44 53 73 68 46 55 49 31 19 34 24 34 66 52 45 79 77 21 -8 20 12 4 20 37 46 11 -9 -2 16 -4 10 -10 -8 -33 -32 -33 -13
78 73 68 52 34 34 35 28 28 33 38 51 83 94 118 67 25 -5 4 34 22 62 40 57 62 81 74 78 65 56 31 46 55 33 4 8 -29 7 10 1 -5 -24 -24 -14 10 13 64
95 72 69 69 41 23 23 22 9 14 34 59 63 57 135 104 44 -7 6 24 37 50 60 64 74 87 97 103 93 89 70 46 15 14 -20 -7 50 13 33 18 7 -32 -3 -20 26 16 45
108 85 67 67 61 38 7 5 -7 -1 17 45 64 55 147 93 89 76 42 32 38 42 52 76 97 95 81 64 67 64 70 77 67 67 50 44 37 23 14 19 30 41 -11 -1 -6 35 84
128 95 78 67 75 61 12 5 -29 -36 -4 54 25 32 79 64 67 42 85 58 68 65 67 76 77 89 84 77 67 68 72 72 62 72 97 49 27 28 23 76 22 -4 13 10 15 61 87
141 110 85 73 73 75 30 23 -28 -54 18 20 32 0 46 40 32 59 69 56 62 67 53 57 80 90 92 88 87 75 85 93 97 103 107 97 73 81 69 69 34 19 42 19 41 54 59
125 132 90 85 65 70 54 40 16 -8 4 49 20 34 38 6 44 38 49 59 82 58 50 47 62 59 56 73 80 93 79 46 72 87 85 111 141 109 87 66 85 141 63 80 67 48 41
94 146 108 78 64 59 52 41 27 21 21 48 11 4 9 33 28 35 65 62 63 60 69 53 46 37 46 47 56 64 47 51 42 57 70 76 99 132 118 146 151 112 93 98 83 49 28
96 136 113 83 61 41 42 19 30 32 42 67 18 -16 8 39 41 50 47 51 50 51 43 23 33 28 61 49 57 52 60 66 76 42 61 76 111 107 106 130 110 147 110 52 54 46 37
100 115 120 86 63 40 32 41 25 19 61 77 52 14 -24 28 29 41 41 53 49 37 36 44 26 51 34 35 58 69 51 55 58 55 44 46 92 84 89 100 121 105 90 72 23 47 63
88 108 122 90 66 48 32 37 34 18 39 79 36 29 0 -21 19 29 43 56 60 40 26 22 28 29 36 43 77 111 91 54 49 34 45 46 53 46 66 43 5 21 74 51 26 29 75
67 97 110 101 67 50 38 35 34 46 43 47 58 27 10 13 -14 15 24 22 38 29 31 25 21 14 6 7 15 19 38 59 69 63 77 63 60 84 8 -20 3 -40 50 36 -38 -29 22
49 85 112 101 73 54 60 44 32 56 62 32 29 41 6 14 1 -20 6 6 -12 -7 6 15 18 11 -36 -31 -8 1 6 16 40 63 76 88 71 -19 -12 17 -4 67 74 72 47 -36 17
50 68 103 93 78 72 66 62 13 36 68 62 28 29 32 21 5 -11 -10 -10 -6 -1 -13 -1 -17 -31 -22 7 -1 5 0 13 4 1 54 68 90 6 9 20 -6 55 70 66 60 73 36
56 64 92 83 74 64 75 72 56 17 48 68 49 28 15 18 13 17 3 -29 -16 -24 -25 -24 -7 5 -3 65 100 94 86 80 73 83 67 27 25 67 40 32 -15 66 80 91 130 72 92
77 62 90 81 65 60 65 77 58 60 33 50 54 56 47 40 21 34 32 26 -8 -23 -10 -17 -27 8 33 58 68 102 129 121 114 116 111 119 100 68 57 50 23 48 64 42 40 58 59
82 72 76 80 55 53 66 68 88 71 56 52 37 37 59 73 51 38 23 13 28 25 18 -10 1 -13 8 19 39 57 73 104 135 97 116 87 124 158 173 175 101 67 63 60 91 64 71

GFSGBSN_con_3kmhel_114.txt.gz
Helicity
69 63 15 -6 -8 14 32 50 59 43 22 33 37 55 64 54 51 56 31 5 -14 3 75 93 122 115 170 141 160 102 33 -6 68 74 84 109 119 145 139 126 120 110 88 70 64 56 48
60 59 34 6 2 8 24 46 39 49 29 30 23 49 54 54 47 20 10 4 -29 -21 6 89 92 181 129 171 105 100 147 164 134 85 100 110 114 119 138 132 123 100 81 62 55 55 46
58 47 27 9 1 -4 14 45 44 39 39 31 19 25 26 20 61 34 77 85 26 -41 -31 27 70 141 138 180 91 156 194 192 125 89 119 127 106 133 113 100 99 85 88 64 52 64 61
55 42 19 15 4 -4 4 23 25 55 25 27 28 8 22 27 18 62 115 120 47 -12 -19 10 52 160 196 126 95 182 290 256 122 137 118 92 98 131 130 84 78 69 58 82 60 54 64
43 34 19 16 15 20 40 44 10 69 36 19 27 1 21 31 40 78 137 37 17 32 83 57 175 170 79 54 128 59 118 155 127 95 91 88 103 125 91 88 83 96 92 92 65 63 61
51 35 23 14 21 33 43 52 40 52 41 38 28 3 23 52 44 45 76 29 46 15 17 42 69 76 175 104 -6 36 76 106 124 99 89 113 119 105 107 98 120 91 91 73 64 75 58
56 43 29 13 12 20 49 51 72 63 54 47 68 56 58 58 13 17 57 47 62 85 100 60 41 58 30 39 1 63 48 39 79 82 89 107 94 91 91 94 95 75 62 62 82 69 30
53 47 39 22 13 12 27 47 61 69 76 61 70 69 63 67 -22 15 -12 38 66 54 57 127 68 49 46 36 5 2 54 76 71 78 57 69 89 85 61 53 55 58 65 60 78 79 49
73 52 44 40 26 13 22 28 50 53 82 58 71 68 79 89 61 119 91 56 38 60 2 89 77 46 31 43 23 6 66 66 63 64 53 69 54 35 41 46 46 51 48 57 64 72 20
89 62 53 51 47 22 27 28 43 46 65 61 47 63 14 64 61 99 70 99 50 63 2 71 47 28 35 27 34 29 56 50 38 44 36 44 26 24 40 45 26 59 45 41 49 80 82
92 85 63 53 53 42 24 34 39 50 42 76 65 53 85 23 36 26 45 65 44 33 -29 40 50 57 65 39 30 33 22 49 47 46 32 37 23 26 39 24 14 51 31 10 -8 5 8
102 91 82 66 48 55 33 32 45 57 54 29 69 67 51 51 54 21 40 85 43 32 53 28 46 64 31 48 52 50 44 56 58 40 36 37 28 17 8 7 19 15 14 -1 5 17 22
100 95 91 80 52 37 40 31 38 51 55 34 58 52 40 33 23 18 49 53 45 37 66 63 15 47 72 58 66 82 70 58 56 51 63 37 -5 1 4 -1 17 -0 3 10 11 4 -23
98 94 87 94 73 18 22 26 30 40 38 32 63 75 54 33 13 10 51 36 41 62 43 75 83 90 36 56 54 51 68 65 44 15 16 26 44 3 17 -15 6 -14 -25 -21 3 -22 13
100 99 84 82 84 43 27 12 24 34 32 34 75 102 102 65 48 41 28 37 48 78 70 83 100 90 91 90 60 19 33 74 57 29 -15 -24 -15 3 34 7 -10 -30 -23 -25 19 -1 -2
116 99 94 77 79 54 27 9 11 24 20 17 45 63 90 46 53 71 53 36 54 55 73 100 81 91 85 75 68 58 62 59 56 58 34 21 24 10 3 17 16 -6 -17 4 -5 25 41
87 109 96 84 74 66 31 15 22 22 16 20 26 34 22 55 83 55 51 50 63 68 69 92 80 81 68 75 73 75 61 68 73 60 41 26 19 8 19 35 46 18 13 12 23 55 43
65 111 95 84 74 66 50 20 30 18 26 19 18 11 -14 18 38 41 58 57 63 66 72 75 87 90 81 69 69 60 50 45 59 63 84 96 72 79 62 58 61 37 27 55 65 38 46
59 97 88 81 68 59 54 21 6 29 3 20 15 23 9 25 77 69 49 54 52 51 47 50 66 50 40 52 75 74 67 44 70 83 87 83 97 104 90 73 95 133 167 74 42 17 43
50 72 86 75 56 53 45 37 11 9 15 18 32 17 -0 10 31 54 64 49 52 50 48 48 39 55 48 47 41 67 59 65 48 63 75 81 120 161 120 85 105 135 109 74 77 44 31
54 63 80 73 51 47 35 38 23 6 26 39 15 30 18 38 19 13 33 41 47 52 44 39 43 37 59 59 65 56 57 60 70 46 70 96 114 130 162 164 153 116 62 67 134 79 61
43 46 78 82 59 43 40 22 26 -4 37 47 27 51 36 45 37 15 14 35 37 33 36 35 47 53 54 61 66 67 54 54 52 34 43 54 90 74 81 71 131 101 59 71 69 60 52
44 40 76 81 80 52 43 17 17 36 33 38 37 18 31 45 35 19 -0 -1 11 11 22 18 23 35 49 44 58 59 67 57 63 53 49 62 55 30 52 -8 8 19 77 125 86 69 59
42 39 60 78 79 79 52 47 14 38 60 36 31 32 19 52 61 35 7 5 -2 -17 -14 -13 2 6 -21 -15 -8 23 45 52 64 87 92 103 67 59 44 -7 6 52 59 81 92 56 76
49 38 46 71 78 76 74 48 40 46 44 41 38 22 26 40 19 49 48 28 2 -6 -11 -21 -20 -25 -33 -41 -12 23 61 67 67 64 87 92 104 58 -7 -2 42 71 78 83 94 97 73
59 48 45 63 74 63 72 67 53 50 51 45 29 34 15 31 33 19 40 27 16 7 -2 3 -14 -41 -48 -18 21 67 87 66 97 113 110 118 80 128 146 68 6 83 122 106 99 99 110
64 60 52 45 72 67 60 60 57 76 63 40 41 33 42 37 36 47 51 47 20 5 -4 -23 -4 11 39 -8 18 54 76 51 73 90 105 113 117 168 137 146 84 157 151 125 133 165 117
69 55 53 51 52 66 58 52 45 71 88 56 49 37 37 48 46 57 48 80 66 45 48 9 -23 6 11 37 28 27 44 37 32 30 31 79 80 111 128 123 71 110 130 103 161 128 89
71 59 49 56 58 51 46 55 53 60 92 80 62 56 52 54 66 82 69 58 83 95 96 90 79 78 58 57 59 46 86 80 89 66 68 53 45 65 97 113 112 112 96 120 114 85 124

GFSGBSN_con_3kmhel_117.txt.gz
Helicity
33 17 14 13 30 45 46 51 51 36 31 7 16 32 94 52 33 29 27 11 -12 -2 44 80 113 123 142 255 199 145 202 88 76 89 99 133 137 158 144 127 108 126 100 98 84 77 73
32 21 8 17 48 59 70 40 55 53 32 -3 16 22 30 115 46 47 34 9 2 -15 52 59 135 159 226 199 164 128 65 171 53 82 113 151 166 175 175 143 160 133 93 87 87 76 70
45 24 10 9 59 66 83 59 62 62 29 -15 9 12 9 116 94 103 59 36 11 10 27 57 79 122 165 106 110 61 87 108 84 57 102 119 127 163 119 117 119 113 116 70 58 73 62
47 33 18 14 40 75 82 70 70 44 27 32 12 48 25 52 88 102 76 55 23 13 61 99 108 63 114 86 191 351 55 89 110 91 86 90 107 132 144 112 110 118 110 111 71 66 80
56 47 27 23 17 61 88 67 79 72 44 49 73 78 64 49 116 15 41 26 46 15 66 136 153 136 238 87 126 294 320 133 109 112 83 89 124 158 121 131 126 101 140 118 55 62 80
57 45 37 31 24 40 76 64 63 58 44 40 74 90 48 39 40 30 8 -0 16 77 110 193 152 101 120 94 152 141 231 231 136 103 108 127 126 147 136 155 196 153 141 101 71 24 36
66 61 37 31 30 25 50 72 55 61 50 49 59 65 30 13 7 27 75 188 163 163 107 58 44 59 24 52 118 128 115 105 116 93 91 94 99 79 86 112 133 110 100 98 77 83 44
92 71 47 33 27 22 36 48 41 56 54 44 32 28 43 17 -20 4 12 46 26 50 64 74 37 38 6 -15 89 127 163 86 83 89 73 63 70 62 58 63 79 79 77 74 62 32 30
110 86 63 41 31 18 25 32 30 28 51 39 30 28 34 47 39 62 24 9 36 64 41 69 56 64 89 74 56 82 122 116 109 69 70 67 59 50 53 52 55 54 61 73 57 77 17
116 115 85 41 29 21 14 27 23 21 20 46 33 -0 2 41 30 27 22 39 68 67 19 57 44 55 98 80 45 73 75 98 70 48 51 35 31 28 43 49 52 63 75 65 68 78 64
112 110 115 62 36 24 20 20 23 7 7 12 32 9 -19 -2 -56 4 17 52 49 34 32 71 79 86 116 67 52 70 60 94 45 44 60 34 26 27 38 51 28 83 54 60 61 57 52
116 115 108 95 56 31 21 22 11 16 9 6 10 10 -15 8 -23 14 39 62 34 41 78 85 67 89 94 63 64 76 77 70 58 57 31 32 20 19 21 32 21 50 68 39 21 26 84
115 110 112 110 74 44 25 16 16 18 26 13 13 19 2 11 25 19 49 55 47 67 42 80 86 98 72 73 74 76 80 53 41 44 48 41 6 12 1 33 36 21 23 67 52 30 52
109 109 102 101 93 56 29 16 8 18 30 29 41 31 20 9 15 36 64 52 25 72 85 60 99 112 84 83 61 62 52 40 26 17 22 38 39 7 26 10 25 14 30 39 22 14 -14
66 119 101 87 89 66 42 22 4 19 -1 14 65 89 65 37 45 58 65 41 53 47 65 119 161 123 82 82 82 79 59 46 27 23 16 24 10 -9 -16 -19 -20 -12 -29 -9 -31 -32 -30
59 94 99 79 77 62 45 25 13 -5 -16 6 55 80 78 83 83 86 43 54 58 64 62 82 69 57 52 47 59 41 50 29 19 34 25 5 4 -18 -31 -22 -16 -20 -27 -14 -18 -0 33
51 67 88 74 70 51 43 24 17 -5 -10 8 53 60 42 72 68 45 48 33 52 60 60 66 41 53 40 40 39 39 22 26 29 46 25 13 -4 -21 -14 27 28 16 -0 3 18 48 41
41 54 68 71 64 56 35 26 24 9 -16 19 36 57 13 47 49 50 34 35 36 56 65 63 60 52 36 37 50 46 40 32 39 57 54 29 29 57 52 7 13 31 25 24 45 20 42
31 45 56 63 65 64 38 28 23 24 -4 12 41 39 26 36 45 41 43 42 44 69 67 75 69 65 66 71 77 53 47 20 28 34 34 41 69 69 60 64 70 98 134 72 39 -7 48
21 47 50 51 58 50 48 29 26 20 30 23 37 42 23 35 43 35 36 43 43 46 47 50 52 62 76 78 63 72 66 60 54 68 41 60 95 115 117 77 58 61 69 102 69 55 38
25 34 54 47 45 35 31 34 22 20 32 43 29 45 37 31 30 38 17 18 38 33 36 31 48 55 56 70 79 82 72 77 87 88 79 82 106 119 159 152 97 85 79 83 118 92 40
27 32 51 41 42 42 32 25 33 19 8 36 43 42 37 37 25 30 35 27 13 -1 14 9 19 2 18 25 13 20 18 33 40 56 50 66 78 73 90 45 31 98 103 92 85 87 86
36 22 43 45 41 41 46 40 29 31 17 49 34 32 22 35 33 30 16 23 31 12 12 -2 -4 2 16 1 -1 19 27 37 35 39 44 51 60 30 63 61 -9 62 102 90 126 126 106
42 23 31 52 44 43 43 51 49 53 49 30 42 29 42 77 54 43 16 8 14 20 19 4 1 -0 -17 -14 23 27 14 37 53 64 71 80 47 46 56 -13 -11 73 101 79 105 93 93
55 44 25 47 49 45 45 51 54 66 65 57 33 41 55 55 51 57 46 35 14 11 7 12 17 9 -30 -32 -45 -24 -7 -1 27 43 75 98 88 71 15 -15 44 4 45 70 95 65 72
62 63 48 38 56 46 48 49 56 54 75 75 51 23 39 51 62 50 60 57 51 35 14 -1 8 35 18 -1 12 86 87 66 49 50 93 112 92 87 71 53 49 62 97 107 87 58 145
69 71 71 53 56 49 41 50 46 61 59 66 76 39 31 42 66 81 64 55 75 78 65 33 28 21 47 71 100 110 110 123 106 109 101 72 70 130 87 113 74 189 115 88 81 164 183
91 85 84 74 53 64 43 44 44 52 62 56 81 63 50 52 65 83 85 94 84 77 65 82 41 82 92 91 88 83 90 98 75 87 104 123 91 120 88 144 97 163 168 173 205 157 136
102 88 82 75 66 57 59 44 39 45 59 63 60 78 70 80 76 91 75 66 103 135 109 104 115 102 110 97 100 111 129 160 126 120 154 106 118 147 180 198 280 216 159 240 207 185 116

GFSGBSN_con_3kmhel_120.txt.gz
Helicity
41 34 20 42 55 47 44 63 76 51 17 47 34 56 72 60 47 31 23 20 25 49 114 178 144 108 148 104 53 131 221 162 113 153 139 121 137 178 142 146 129 163 110 117 108 83 61
43 41 26 32 56 53 37 62 63 36 38 20 32 41 112 77 74 46 29 8 9 56 96 183 72 183 181 163 220 142 167 186 112 169 174 211 233 207 269 140 192 207 138 112 92 84 70
55 54 32 36 53 55 43 53 59 33 34 59 65 103 121 103 96 63 8 0 8 44 53 138 104 163 323 235 169 134 178 241 216 120 168 180 216 209 144 138 132 127 135 72 67 81 77
48 44 40 40 47 43 62 55 42 40 30 38 57 70 82 90 14 34 24 10 34 26 28 109 114 110 275 158 189 197 124 202 140 74 88 97 141 166 157 105 107 109 109 108 105 66 77
52 50 41 46 49 46 38 59 38 37 9 10 18 19 0 13 21 10 8 24 44 54 125 34 121 272 125 255 200 213 134 21 33 44 66 88 109 105 105 130 133 120 130 120 51 52 78
52 43 41 40 52 51 27 32 39 24 11 4 41 46 -2 -1 63 119 87 25 75 180 150 95 109 109 125 88 110 219 139 34 19 22 41 98 120 156 146 158 233 181 157 124 104 21 22
77 46 31 36 49 52 36 22 27 14 14 17 31 29 8 -4 -8 76 141 167 202 167 92 90 89 89 95 91 51 76 144 100 107 85 79 102 122 123 154 180 174 189 175 136 128 143 76
88 60 38 30 31 41 42 26 21 19 4 21 18 12 -1 37 47 10 10 20 55 98 95 37 13 61 49 137 156 162 132 144 171 130 96 105 131 125 120 116 120 106 90 83 70 47 46
106 69 54 31 25 27 33 22 11 8 1 2 -1 -34 -21 51 44 36 25 34 86 86 106 104 89 106 130 119 86 147 167 162 122 112 139 90 70 39 46 61 81 54 72 92 63 60 45
105 99 58 47 29 22 27 29 3 -4 -1 -6 -6 -24 -33 -10 28 32 49 58 49 44 83 135 94 84 108 93 114 94 100 117 92 62 118 56 33 30 36 41 54 48 81 63 51 40 58
95 97 71 57 36 23 19 28 27 1 0 -3 -4 -18 -45 -23 0 53 12 48 48 30 86 104 116 106 146 64 73 86 84 90 85 57 71 30 12 12 20 43 47 53 55 44 45 40 41
121 92 92 65 54 19 7 16 35 32 14 9 10 0 -9 5 27 34 79 102 68 67 90 87 105 138 86 59 79 100 95 71 57 75 52 29 32 31 37 43 34 39 48 22 31 32 38
99 104 92 81 64 38 12 11 21 40 46 27 30 30 26 47 90 50 63 47 82 73 92 91 101 81 39 64 60 67 58 42 41 35 36 45 22 20 11 27 34 24 50 39 43 57 53
75 100 86 80 61 44 31 18 14 18 25 47 51 81 83 64 73 62 73 84 67 126 53 107 96 118 75 64 74 64 47 40 26 33 16 25 13 -2 21 -10 12 7 28 65 77 68 34
60 77 93 70 62 32 22 6 8 10 5 25 56 85 116 79 61 65 65 54 83 76 55 53 89 64 60 44 50 51 49 25 17 17 2 -11 18 22 19 16 14 21 28 12 -18 -35 -17
47 60 85 72 65 40 18 21 7 16 15 37 71 75 117 75 80 76 60 76 84 56 57 95 44 46 29 29 29 34 23 26 24 14 5 0 17 6 -6 -14 -21 -25 -39 -30 -27 13 50
33 49 62 73 65 52 32 20 16 7 11 17 58 60 81 73 69 62 56 34 57 57 51 54 46 49 53 44 43 34 17 27 19 5 -1 -6 -6 -7 -2 22 32 7 -9 -6 14 30 17
24 33 45 58 65 56 45 33 27 11 18 31 45 64 39 55 63 50 53 21 44 52 66 59 61 56 44 47 45 45 41 41 45 52 32 32 32 39 33 -1 -9 46 38 26 27 3 26
14 24 32 41 57 59 50 43 30 12 -1 23 37 60 49 44 54 51 58 50 40 58 51 56 56 46 39 56 71 55 45 44 42 43 35 39 54 62 40 29 43 63 91 47 0 -13 44
13 16 25 31 37 40 40 48 49 26 14 35 44 43 31 37 45 38 47 44 43 46 39 35 38 42 57 73 52 51 40 40 47 49 19 38 62 84 82 46 32 99 103 146 95 75 58
18 25 22 27 27 28 27 26 45 41 21 49 40 58 35 45 30 24 23 38 45 45 48 41 50 34 23 47 48 54 26 38 89 47 35 28 65 54 90 140 70 37 58 161 292 251 153
21 22 28 28 26 25 29 27 12 35 14 71 56 51 56 40 30 39 33 28 34 34 35 42 38 10 25 39 31 37 19 20 34 84 51 93 50 26 61 49 12 43 113 102 146 212 205
33 18 20 35 34 36 27 30 32 29 22 78 64 56 37 68 67 41 47 36 21 7 28 15 16 10 23 23 38 39 42 37 35 83 106 137 71 9 76 -20 -15 17 32 79 81 106 119
42 32 17 31 41 38 44 36 41 54 46 43 60 52 49 66 69 85 46 31 42 27 10 -3 -6 -5 -18 -28 -5 50 64 49 50 70 128 120 104 61 76 -39 8 18 103 70 101 86 142
44 41 29 21 42 46 51 54 46 56 66 47 51 62 55 44 60 36 69 77 47 39 34 15 -9 1 55 -61 -46 6 39 44 43 95 68 100 61 76 73 70 101 32 56 60 41 60 201
48 43 48 42 39 48 49 59 66 50 53 57 48 49 69 65 51 63 34 45 68 86 77 101 85 81 49 28 48 87 99 98 88 100 81 76 78 93 152 122 83 122 148 114 123 124 187
62 57 58 54 51 50 53 50 64 71 55 44 66 50 38 63 67 80 79 58 45 48 83 116 108 112 137 148 129 115 108 152 91 119 133 137 127 166 135 162 132 174 187 149 144 139 236
74 63 57 68 77 59 52 53 50 72 71 48 69 71 48 62 87 87 70 89 94 90 79 81 67 91 126 143 145 131 152 146 124 112 162 181 160 190 162 182 53 198 206 193 183 239 267
60 61 54 67 83 69 58 57 62 63 68 58 59 58 84 76 101 121 104 49 56 117 113 134 131 96 112 104 130 158 188 214 179 168 136 111 148 195 216 194 213 185 197 220 242 208 200

GFSGBSN_con_3kmhel_123.txt.gz
Helicity
43 39 28 40 34 49 50 37 23 30 15 32 44 66 61 53 36 13 12 8 21 103 135 126 5 73 68 170 179 240 230 228 168 223 221 180 164 206 187 199 202 211 155 138 91 79 78
36 38 32 27 25 56 39 35 26 20 28 23 52 53 35 22 23 -15 -12 1 33 58 112 107 165 129 109 143 174 79 198 206 251 217 217 207 239 186 223 216 210 180 141 123 86 79 81
52 46 35 27 28 26 40 22 24 26 31 19 5 -10 2 0 25 16 8 22 47 63 72 122 204 196 197 140 105 117 267 264 237 156 200 256 212 168 155 145 146 133 138 124 99 77 69
59 55 38 35 24 24 27 27 7 -11 -1 28 24 16 -7 -2 -1 2 17 6 23 36 113 204 155 289 118 181 192 230 366 228 134 135 146 164 157 134 141 99 159 137 139 145 110 82 72
67 60 45 28 31 24 29 28 -2 -14 4 32 -9 -24 -2 54 72 40 -10 19 15 35 60 105 187 198 146 245 212 204 262 183 110 131 134 131 129 139 137 153 186 171 137 120 126 72 83
85 70 58 34 26 18 21 31 13 -3 12 15 -15 -2 64 81 94 84 73 79 32 105 96 173 135 154 137 117 127 154 208 189 91 91 123 134 138 160 187 197 178 135 125 129 107 83 81
79 81 68 47 29 21 14 18 26 5 -2 -11 -35 -16 75 62 32 31 101 169 313 268 175 140 89 63 30 45 46 122 119 97 63 83 123 135 168 199 135 128 129 153 151 153 141 62 66
70 78 78 55 39 26 10 8 8 16 4 -12 -39 -48 2 47 41 11 41 70 62 101 132 58 117 132 143 136 113 180 128 91 61 61 75 109 136 92 94 132 148 141 129 134 115 89 76
68 66 67 72 38 32 16 9 7 3 7 0 -12 -12 -51 4 41 44 30 88 131 115 215 172 97 122 159 130 117 159 140 179 182 209 133 84 97 94 103 114 121 105 93 67 40 56 60
86 68 64 59 52 28 22 12 12 8 10 1 4 4 -4 4 49 56 56 87 72 75 138 238 143 109 105 95 70 78 95 69 94 92 69 58 58 68 67 65 70 45 64 52 35 0 21
84 76 61 53 49 26 25 25 26 20 20 9 21 16 10 -15 79 89 84 89 53 23 61 168 175 115 134 61 66 81 63 64 76 65 48 34 25 29 41 36 42 37 40 22 19 8 20
60 88 69 50 46 38 19 23 23 28 14 36 40 39 32 70 80 98 87 77 50 47 76 84 186 160 113 83 90 82 82 77 79 76 42 31 36 24 21 28 29 29 34 37 32 50 46
47 66 78 56 47 37 18 9 15 2 -6 31 63 76 84 93 111 65 54 44 46 66 85 95 126 112 62 90 83 66 37 45 48 47 59 49 25 17 13 11 16 42 60 56 55 65 40
35 44 71 62 47 30 33 8 10 9 -5 16 32 42 65 91 72 58 59 15 32 82 69 75 100 99 79 66 72 67 42 35 57 50 21 16 10 -7 -8 -14 4 16 28 52 42 65 58
30 32 56 60 52 37 32 28 1 5 12 14 30 85 116 126 81 60 32 36 53 34 43 56 83 83 71 63 44 57 46 39 41 37 18 21 7 18 4 16 12 14 15 21 25 27 13
25 28 36 47 55 48 40 33 24 5 10 14 69 67 130 108 82 61 48 55 30 18 29 62 60 57 42 53 48 49 47 57 40 21 24 -2 20 4 1 -13 -9 -15 -32 -20 -28 22 31
19 24 22 33 40 52 48 44 26 14 12 29 52 63 87 73 65 43 79 53 42 29 28 39 37 35 58 55 50 41 42 52 57 43 28 15 17 18 2 29 29 0 -10 -23 -10 11 9
18 15 16 19 29 40 49 47 33 6 23 40 51 47 64 61 48 42 54 54 52 59 64 53 52 57 60 46 49 64 63 65 77 78 54 70 19 41 49 13 57 65 54 46 27 21 29
15 18 13 9 16 29 37 46 45 8 8 40 53 57 36 31 57 38 38 39 39 66 68 59 59 48 55 73 79 76 82 80 86 82 67 68 56 39 43 41 63 96 100 71 46 36 75
18 17 15 14 9 14 27 43 53 32 31 62 49 64 31 22 40 48 37 36 42 38 44 50 56 54 54 66 68 68 61 80 104 87 75 61 73 88 83 54 60 95 138 161 186 131 117
20 21 14 16 15 6 6 8 32 48 33 71 45 59 55 56 40 31 29 33 32 40 27 37 29 34 30 34 30 46 33 36 68 68 59 59 53 63 78 81 56 68 77 142 268 264 188
30 27 17 15 19 16 11 4 13 34 40 68 75 52 41 55 47 35 27 49 46 26 31 28 27 6 8 30 29 26 20 24 27 56 54 56 2 -7 54 0 -31 27 48 68 153 218 244
38 36 22 19 20 21 20 19 23 47 22 76 45 64 53 47 56 71 58 24 16 22 19 24 25 11 18 23 10 24 59 86 83 81 116 98 45 -23 57 -40 -54 16 -2 67 108 192 216
32 40 33 26 27 26 31 32 39 49 48 53 57 49 67 52 52 60 66 70 45 14 17 5 14 12 3 -10 -23 19 59 76 84 75 171 168 104 83 117 -22 32 66 111 86 96 82 123
43 42 48 38 34 32 30 40 51 65 57 51 46 58 28 47 80 35 51 52 50 56 44 27 3 29 2 -25 -12 0 40 54 48 44 79 124 159 110 66 73 90 2 59 76 96 69 128
47 44 41 47 54 46 41 37 48 56 70 47 53 58 55 40 31 53 78 62 68 61 44 51 100 80 71 71 67 95 90 87 76 93 118 115 136 176 175 124 76 73 96 122 102 74 54
64 57 49 42 50 58 59 46 44 54 54 48 38 56 65 51 25 59 71 76 88 67 59 46 48 62 91 94 107 102 99 129 90 122 134 166 162 203 183 173 102 99 121 123 106 64 90
60 57 53 45 43 45 51 47 40 54 50 55 39 46 55 41 65 51 45 76 107 115 106 70 46 64 86 90 92 85 113 96 100 125 128 175 161 200 206 217 63 152 183 152 107 138 163
28 52 62 52 42 44 49 50 51 51 50 59 52 43 61 60 65 86 97 64 52 51 116 105 115 148 102 91 91 101 126 147 162 173 173 181 175 156 187 178 171 225 206 172 210 200 195

GFSGBSN_con_3kmhel_126.txt.gz
Helicity
40 23 25 12 15 30 23 23 15 23 27 24 10 9 -1 17 12 -28 -33 23 31 28 -4 64 52 141 658 571 610 492 327 277 230 215 226 180 245 238 254 241 260 217 169 167 135 126 110
37 31 36 25 4 12 4 11 34 9 31 25 28 19 2 0 1 -17 -19 2 34 33 13 -9 -6 98 215 436 319 404 312 258 252 200 239 214 233 198 234 250 235 192 156 115 123 119 105
27 25 31 31 14 11 -1 -4 14 11 16 2 41 45 16 43 -16 -12 -20 -7 46 88 58 17 14 58 219 218 260 486 314 264 237 171 240 223 172 175 186 185 171 172 170 147 145 110 100
29 21 19 21 26 11 4 0 10 12 11 21 56 49 68 26 59 32 -10 -13 89 81 91 53 93 234 161 150 375 364 303 209 201 205 176 190 144 135 180 127 187 166 169 158 114 100 90
46 22 20 19 16 10 3 2 -2 6 1 28 53 53 35 22 62 74 60 67 85 159 107 55 174 116 152 166 152 292 231 208 207 182 164 137 122 159 179 180 222 204 147 134 123 74 89
64 38 16 21 24 15 0 0 1 0 -2 7 14 6 1 -16 -29 42 98 179 102 103 97 143 176 130 162 133 214 327 204 185 169 191 195 159 147 169 201 190 163 138 140 142 131 91 85
74 47 31 17 24 25 11 3 8 4 -4 7 -8 9 32 58 49 37 23 98 272 206 184 133 130 127 142 229 207 176 171 167 148 177 187 166 178 190 155 144 132 147 146 125 116 97 93
82 63 32 14 23 28 28 13 8 10 1 14 15 -2 8 35 61 64 116 117 168 166 173 115 75 108 92 155 50 151 86 104 112 142 148 175 199 142 124 139 147 157 130 136 114 100 83
73 66 43 23 11 27 38 38 22 15 5 10 36 38 19 26 77 52 27 107 74 106 222 106 76 103 56 56 133 190 124 96 43 48 79 101 120 110 105 132 136 160 106 92 71 96 66
56 76 56 41 21 27 39 54 47 24 10 13 28 34 48 61 101 102 74 85 85 83 117 196 82 27 73 103 97 128 61 55 77 52 72 71 108 98 103 100 85 71 79 55 42 45 25
51 69 79 59 41 22 25 29 44 28 23 31 42 40 48 57 117 80 86 74 43 47 112 222 187 157 136 36 56 110 78 68 83 60 34 56 66 92 86 72 52 47 33 22 17 26 41
51 56 70 71 54 37 24 29 23 31 25 39 54 51 54 75 63 56 45 55 84 85 135 149 139 143 80 105 107 90 43 48 48 66 63 37 40 39 19 26 25 21 31 35 40 34 86
34 42 54 65 55 48 33 19 24 23 33 21 41 40 76 87 98 55 24 47 47 69 98 122 114 101 91 78 83 56 45 52 49 41 57 65 47 31 25 24 25 30 48 73 76 75 47
17 30 38 47 51 44 47 30 14 12 14 30 38 67 95 113 92 51 46 11 26 58 52 53 81 60 71 68 83 72 58 59 58 44 27 17 38 2 0 0 25 34 44 51 48 70 61
19 23 30 35 45 43 43 46 23 17 19 16 51 77 95 123 85 105 40 4 45 41 18 43 50 63 55 70 58 69 65 65 41 22 18 18 13 20 11 23 16 16 22 19 18 4 25
14 14 19 29 35 42 44 42 45 26 21 29 59 65 105 101 99 71 45 54 18 15 23 32 46 59 44 54 42 40 57 60 50 38 25 21 14 6 -7 -12 -11 -14 -34 -33 -23 -28 -6
12 13 14 12 18 31 43 46 44 34 17 61 43 44 82 63 55 30 64 33 33 22 29 49 38 29 32 40 29 28 33 55 54 40 35 20 6 21 3 22 31 -13 -9 -10 6 25 0
7 7 7 5 7 17 35 43 41 33 24 33 49 37 49 51 24 39 44 39 30 41 38 45 45 51 55 41 50 54 71 75 83 71 61 54 36 53 62 28 42 43 52 67 14 -1 15
3 6 3 5 1 10 33 45 38 26 26 56 60 56 34 26 43 30 22 30 41 52 49 49 54 52 48 64 65 65 66 62 95 91 74 67 58 47 38 32 71 88 100 96 87 90 79
9 7 2 5 5 0 16 32 40 30 33 69 56 51 28 23 32 39 42 28 28 26 32 30 25 16 20 38 33 42 40 43 60 57 56 52 56 77 73 47 57 109 145 169 202 144 144
13 5 3 6 11 14 16 23 36 33 33 76 32 52 44 48 28 26 24 46 36 28 11 19 19 27 28 30 23 27 21 17 37 48 56 47 36 42 44 35 51 80 70 108 269 242 188
36 20 6 6 12 16 17 27 47 63 29 56 68 40 41 30 33 25 20 40 50 33 33 17 19 17 15 43 44 28 13 15 22 43 54 48 21 -11 2 2 -7 52 59 118 234 243 261
39 45 29 17 14 18 15 21 43 72 31 43 28 40 51 47 36 28 34 33 26 20 21 31 36 9 7 20 19 32 53 54 72 116 111 99 59 -9 8 -40 -60 24 66 124 166 217 205
31 51 52 46 34 26 28 30 41 57 44 36 26 44 55 35 52 56 29 22 18 15 17 13 33 35 9 16 -18 9 45 65 109 145 196 178 163 111 81 -32 15 53 57 94 130 112 197
61 58 71 68 63 63 54 44 51 57 58 35 11 25 45 38 44 24 58 57 15 3 21 15 23 45 60 42 -4 -17 16 29 42 71 111 144 166 107 80 73 57 -4 60 90 119 39 122
88 91 97 103 91 72 67 65 71 66 64 38 17 12 39 51 32 28 35 49 64 42 19 35 53 81 87 61 44 44 46 48 54 70 98 118 114 163 141 97 64 55 71 86 98 60 63
108 128 114 117 97 78 64 55 57 56 66 68 37 20 40 48 40 55 48 53 59 78 77 43 45 56 86 102 104 88 56 73 63 70 91 122 109 151 115 119 88 80 117 112 75 31 53
84 109 108 91 81 68 56 47 39 42 53 62 49 42 51 52 57 83 55 78 88 114 92 85 83 68 86 95 90 75 80 70 97 126 122 147 131 154 142 155 30 67 148 127 42 56 25
54 54 62 73 76 66 51 37 39 39 40 62 62 62 65 62 61 89 102 98 80 79 108 100 85 75 61 103 94 112 132 154 150 145 181 147 183 167 209 165 171 121 145 115 142 120 79